[[{"header":{"parameterUnit":"m.s-1","parameterCategory":1,"la1":31.0,"la2":29.5877,"lo1":-88.7671,"lo2":-86.6584,"dy":0.0162,"dx":0.0185,"nx":115,"ny":88,"refTime":"2023-07-25T06:00:00:Z","depth":0,"parameterNumber":2,"parameterNumberName":"U-component_of_WINDS"},"data":[0.0,0.0,0.0,0.0,0.0,0.0,0.0,0.0,0.0,0.0,0.0,0.0,0.0,0.0,0.0,0.0,0.0,0.0,0.0,0.0,0.0,0.0,0.0,0.0,0.0,0.0,0.0,0.0,0.0,0.0,0.0,0.0,0.0,0.0,0.0,0.0,0.0,0.0,0.0,0.0,0.0,0.0,0.0,0.0,0.0,0.0,0.0,0.0,0.0,0.0,0.0,0.0,0.0,0.0,0.0,0.0,0.0,0.0,0.0,0.0,0.0,0.0,0.0,0.0,0.0,0.0,0.0,0.0,0.0,0.0,0.0,0.0,0.0,0.0,0.0,0.0,0.0,0.0,0.0,0.0,0.0,0.0,0.0,0.0,0.0,0.0,0.0,0.0,0.0,0.0,0.0,0.0,0.0,0.0,0.0,0.0,0.0,0.0,0.0,0.0,0.0,0.0,0.0,0.0,0.0,0.0,0.0,0.0,0.0,0.0,0.0,0.0,0.0,0.0,0.0,0.0,0.0,0.0,0.0,0.0,0.0,0.0,0.0,0.0,0.0,0.0,0.0,0.0,0.0,0.0,0.0,0.0,0.0,0.0,0.0,0.0,0.0,0.0,0.0,0.0,0.0,0.0,0.0,0.0,0.0,0.0,0.0,0.0,0.0,0.0,0.0,0.0,0.0,0.0,0.0,0.0,0.0,0.0,0.0,0.0,0.0,0.0,0.0,0.0,0.0,0.0,0.0,0.0,0.0,0.0,0.0,0.0,0.0,0.0,0.0,0.0,0.0,0.0,0.0,0.0,0.0,0.0,0.0,0.0,0.0,0.0,0.0,0.0,0.0,0.0,0.0,0.0,0.0,0.0,0.0,0.0,0.0,0.0,0.0,0.0,0.0,0.0,0.0,0.0,0.0,0.0,0.0,0.0,0.0,0.0,0.0,0.0,0.0,0.0,0.0,0.0,0.0,0.0,0.0,0.0,0.0,0.0,0.0,0.0,0.0,0.0,0.0,0.0,0.0,0.0,0.0,0.0,0.0,0.0,0.0,0.0,0.0,0.0,0.0,0.0,0.0,0.0,0.0,0.0,0.0,0.0,0.0,0.0,0.0,0.0,0.0,0.0,0.0,0.0,0.0,0.0,0.0,0.0,0.0,0.0,0.0,0.0,0.0,0.0,0.0,0.0,0.0,0.0,0.0,0.0,0.0,0.0,0.0,0.0,0.0,0.0,0.0,0.0,0.0,0.0,0.0,0.0,0.0,0.0,0.0,0.0,0.0,0.0,0.0,0.0,0.0,0.0,0.0,0.0,0.0,0.0,0.0,0.0,0.0,0.0,0.0,0.0,0.0,0.0,0.0,0.0,0.0,0.0,0.0,0.0,0.0,0.0,0.0,0.0,0.0,0.0,0.0,0.0,0.0,0.0,0.0,0.0,0.0,0.0,0.0,0.0,0.0,0.0,0.0,0.0,0.0,0.0,0.0,0.0,0.0,0.0,0.0,0.0,0.0,0.0,0.0,0.0,0.0,0.0,0.0,0.0,0.0,0.0,0.0,0.0,0.0,0.0,0.0,0.0,0.0,0.0,0.0,0.0,0.0,0.0,0.0,0.0,0.0,0.0,0.0,0.0,0.0,0.0,0.0,0.0,0.0,0.0,0.0,0.0,0.0,0.0,0.0,0.0,0.0,0.0,0.0,0.0,0.0,0.0,0.0,0.0,0.0,0.0,0.0,0.0,0.0,0.0,0.0,0.0,0.0,0.0,0.0,0.0,0.0,0.0,0.0,0.0,0.0,0.0,0.0,0.0,0.0,0.0,0.0,0.0,0.0,0.0,0.0,0.0,0.0,0.0,0.0,0.0,0.0,0.0,0.0,0.0,0.0,0.0,0.0,0.0,0.0,0.0,0.0,0.0,0.0,0.0,0.0,0.0,0.0,0.0,0.0,0.0,0.0,0.0,0.0,0.0,0.0,0.0,0.0,0.0,0.0,0.0,0.0,0.0,0.0,0.0,0.0,0.0,0.0,0.0,0.0,0.0,0.0,0.0,0.0,0.0,0.0,0.0,0.0,0.0,0.0,0.0,0.0,0.0,0.0,0.0,0.0,0.0,0.0,0.0,0.0,0.0,0.0,0.0,0.0,0.0,0.0,0.0,0.0,0.0,0.0,0.0,0.0,0.0,0.0,0.0,0.0,0.0,0.0,0.0,0.0,0.0,0.0,0.0,0.0,0.0,0.0,0.0,0.0,0.0,0.0,0.0,0.0,0.0,0.0,0.0,0.0,0.0,0.0,0.0,0.0,0.0,0.0,0.0,0.0,0.0,0.0,0.0,0.0,0.0,0.0,0.0,0.0,0.0,0.0,0.0,0.0,0.0,0.0,0.0,0.0,0.0,0.0,0.0,0.0,0.0,0.0,0.0,0.0,0.0,0.0,0.0,0.0,0.0,0.0,0.0,0.0,0.0,0.0,0.0,0.0,0.0,0.0,0.0,0.0,0.0,0.0,0.0,0.0,0.0,0.0,0.0,0.0,0.0,0.0,0.0,0.0,0.0,0.0,0.0,0.0,0.0,0.0,0.0,0.0,0.0,0.0,0.0,0.0,0.0,0.0,0.0,0.0,0.0,0.0,0.0,0.0,0.0,0.0,0.0,0.0,0.0,0.0,0.0,0.0,0.0,0.0,0.0,0.0,0.0,0.0,0.0,0.0,0.0,0.0,0.0,0.0,0.0,0.0,0.0,0.0,0.0,0.0,0.0,0.0,0.0,0.0,0.0,0.0,0.0,0.0,0.0,0.0,0.0,0.0,0.0,0.0,0.0,0.0,0.0,0.0,0.0,0.0,0.0,0.0,0.0,0.0,0.0,0.0,0.0,0.0,0.0,0.0,0.0,0.0,0.0,0.0,0.0,0.0,0.0,0.0,0.0,0.0,0.0,0.0,0.0,0.0,0.0,0.0,0.0,0.0,0.0,0.0,0.0,0.0,0.0,0.0,0.0,0.0,0.0,0.0,0.0,0.0,0.0,0.0,0.0,0.0,0.0,0.0,0.0,0.0,0.0,0.0,0.0,0.0,0.0,0.0,0.0,0.0,0.0,0.0,0.0,0.0,0.0,0.0,0.0,0.0,0.0,0.0,0.0,0.0,0.0,0.0,0.0,0.0,0.0,0.0,0.0,0.0,0.0,0.0,0.0,0.0,0.0,0.0,0.0,0.0,0.0,0.0,0.0,0.0,0.0,0.0,0.0,0.0,0.0,0.0,0.0,0.0,0.0,0.0,0.0,0.0,0.0,0.0,0.0,0.0,0.0,0.0,0.0,0.0,0.0,0.0,0.0,0.0,0.0,0.0,0.0,0.0,0.0,0.0,0.0,0.0,0.0,0.0,0.0,0.0,0.0,0.0,0.0,0.0,0.0,0.0,0.0,0.0,0.0,0.0,0.0,0.0,0.0,0.0,0.0,0.0,0.0,0.0,0.0,0.0,0.0,0.0,0.0,0.0,0.0,0.0,0.0,0.0,0.0,0.0,0.0,0.0,0.0,0.0,0.0,0.0,0.0,0.0,0.0,0.0,0.0,0.0,0.0,0.0,0.0,0.0,0.0,0.0,0.0,0.0,0.0,0.0,0.0,0.0,0.0,0.0,0.0,0.0,0.0,0.0,0.0,0.0,0.0,0.0,0.0,0.0,0.0,0.0,0.0,0.0,0.0,0.0,0.0,0.0,0.0,0.0,0.0,0.0,0.0,0.0,0.0,0.0,0.0,0.0,0.0,0.0,0.0,0.0,0.0,0.0,0.0,0.0,0.0,0.0,0.0,0.0,0.0,0.0,0.0,0.0,0.0,0.0,0.0,0.0,0.0,0.0,0.0,0.0,0.0,0.0,0.0,0.0,0.0,0.0,0.0,0.0,0.0,0.0,0.0,0.0,0.0,0.0,0.0,0.0,0.0,0.0,0.0,0.0,0.0,0.0,0.0,0.0,0.0,0.0,0.0,0.0,0.0,0.0,0.0,0.0,0.0,0.0,0.0,0.0,0.0,0.0,0.0,0.0,0.0,0.0,0.0,0.0,0.0,0.0,0.0,0.0,0.0,0.0,0.0,0.0,0.0,0.0,0.0,0.0,0.0,0.0,0.0,0.0,0.0,0.0,0.0,0.0,0.0,0.0,0.0,0.0,0.0,0.0,0.0,0.0,0.0,0.0,0.0,0.0,0.0,0.0,0.0,0.0,0.0,0.0,0.0,0.0,0.0,0.0,0.0,0.0,0.0,0.0,0.0,0.0,0.0,0.0,0.0,0.9628,0.0,0.0,0.0,0.0,0.0,0.0,0.0,0.0,0.0,0.0,0.0,0.0,0.0,0.0,0.0,0.0,0.0,0.0,0.0,0.0,0.0,0.0,0.0,0.0,0.0,0.0,0.0,0.0,0.0,0.0,0.0,0.0,0.0,0.0,0.0,0.0,0.0,0.0,0.0,0.0,0.0,0.0,0.0,0.0,0.0,0.0,0.0,0.0,0.0,0.0,0.0,0.0,0.0,0.0,0.0,0.0,0.0,0.0,0.0,0.0,0.0,0.0,0.0,0.0,0.0,0.0,0.0,0.0,0.0,0.0,0.0,0.0,0.0,0.0,0.0,0.0,0.0,0.0,0.0,0.0,0.0,0.0,0.0,0.0,0.0,0.0,0.0,0.0,0.0,0.0,0.0,0.0,0.0,0.0,0.0,0.0,0.0,0.0,0.0,0.0,0.0,0.0,0.0,0.0,0.0,0.0,0.0,0.0,0.0,0.0,1.0709,1.0886,1.0611,1.048,1.0501,0.0,0.0,0.0,0.0,0.0,0.0,0.0,0.0,0.0,0.0,0.0,0.0,0.0,0.0,0.0,0.0,0.0,0.0,0.0,0.0,0.0,0.0,0.0,0.0,0.0,0.0,0.0,0.0,0.0,0.0,0.0,0.0,0.0,0.0,0.0,0.0,0.0,0.0,0.0,0.0,0.0,0.0,0.0,0.0,0.0,0.0,0.0,0.0,0.0,0.0,0.0,0.0,0.0,0.0,0.0,0.0,0.0,0.0,0.0,0.0,0.0,0.0,0.0,0.0,0.0,0.0,0.0,0.0,0.0,0.0,0.0,0.0,0.0,0.0,0.0,0.0,0.0,0.0,0.0,0.0,0.0,0.0,0.0,0.0,0.0,0.0,0.0,0.0,0.0,0.0,0.0,0.0,0.0,0.0,0.0,0.0,0.0,0.0,0.0,0.0,0.0,0.0,0.0,0.0,0.0,0.0,0.0,0.0,0.0,0.0,0.0,0.0,1.1533,1.1224,1.1079,0.0,0.0,0.0,0.0,0.0,0.0,0.0,0.0,0.0,0.0,0.0,0.0,0.0,0.0,0.0,0.0,0.0,0.0,0.0,0.0,0.0,0.0,0.0,0.0,0.0,0.0,0.0,0.0,0.0,0.0,0.0,0.0,0.0,0.0,0.0,0.0,0.0,0.0,0.0,0.0,0.0,0.0,0.0,0.0,0.0,0.0,0.0,0.0,0.0,0.0,0.0,0.0,0.0,0.0,0.0,0.0,0.0,0.0,0.0,0.0,0.0,0.0,0.0,0.0,0.0,0.0,0.0,0.0,0.0,0.0,0.0,0.0,0.0,0.0,0.0,0.0,0.0,0.0,0.0,0.0,0.0,0.0,0.0,0.0,0.0,0.0,0.0,0.0,0.0,0.0,0.0,0.0,0.0,0.0,0.0,0.0,0.0,0.0,0.0,0.0,0.0,0.0,0.0,0.0,0.0,0.0,0.0,0.0,0.0,0.0,1.1796,1.1989,1.2068,0.0,1.1109,0.0,0.0,0.0,0.0,0.0,0.0,0.0,0.0,0.0,0.0,0.0,0.0,0.0,0.0,0.0,0.0,0.0,0.0,0.0,0.0,0.0,0.0,0.0,0.0,0.0,0.0,0.0,0.0,0.0,0.0,0.0,0.0,0.0,0.0,0.0,0.0,0.0,0.0,0.0,0.0,0.0,0.0,0.0,0.0,0.0,0.0,0.0,0.0,0.0,0.0,0.0,0.0,0.0,0.0,0.0,0.0,0.0,0.0,0.0,0.0,0.0,0.0,0.0,0.0,0.0,0.0,0.0,0.0,0.0,0.0,0.0,0.0,0.0,0.0,0.0,0.0,0.0,0.0,0.0,0.0,0.0,0.0,0.0,0.0,0.0,0.0,0.0,0.0,0.0,0.0,0.0,0.0,0.0,0.0,0.0,0.0,0.0,0.0,0.0,0.0,0.0,0.0,0.0,0.0,0.0,0.0,0.0,0.0,0.0,0.0,1.3185,1.3411,1.2668,1.1885,0.0,0.0,0.0,0.0,0.0,0.0,0.0,0.0,0.0,0.0,0.0,0.0,0.0,0.0,0.0,0.0,0.0,0.0,0.0,0.0,0.0,0.0,0.0,0.0,0.0,0.0,0.0,0.0,0.0,0.0,0.0,0.0,0.0,0.0,0.0,0.0,0.0,0.0,0.0,0.0,0.0,0.0,0.0,0.0,0.0,0.0,0.0,0.0,0.0,0.0,0.0,0.0,0.0,0.0,0.0,0.0,0.0,0.0,0.0,0.0,0.0,0.0,0.0,0.0,0.0,0.0,0.0,0.0,0.0,0.0,0.0,0.0,0.0,0.0,0.0,0.0,0.0,0.0,0.0,0.0,0.0,0.0,0.0,0.0,0.0,0.0,0.0,0.0,0.0,0.0,0.0,0.0,0.0,0.0,0.0,0.0,0.0,0.0,0.0,0.0,0.0,0.0,0.0,0.0,0.0,0.0,0.0,0.0,0.0,0.0,1.3447,1.413,1.4379,1.3261,1.222,1.1373,0.0,0.0,0.0,0.0,0.0,0.0,0.0,0.0,0.0,0.0,0.0,0.0,0.0,0.0,0.0,0.0,0.0,0.0,0.0,0.0,0.0,0.0,0.0,0.0,0.0,0.0,0.0,0.0,0.0,0.0,0.0,0.0,0.0,0.0,0.0,0.0,0.0,0.0,0.0,0.0,0.0,0.0,0.0,0.0,0.0,0.0,0.0,0.0,0.0,0.0,0.0,0.0,0.0,0.0,0.0,0.0,0.0,0.0,0.0,0.0,0.0,0.0,0.0,0.0,0.0,0.0,0.0,0.0,0.0,0.0,0.0,0.0,0.0,0.0,0.0,0.0,0.0,0.0,0.0,0.0,0.0,0.0,0.0,0.0,0.0,0.0,0.0,0.0,0.0,0.0,0.0,0.0,0.0,0.0,0.0,0.0,0.0,0.0,0.0,0.0,0.0,0.0,0.0,0.0,0.0,0.0,0.0,0.0,1.2407,1.3449,1.4175,1.4549,1.3837,1.303,0.0,0.0,0.0,0.0,0.0,0.0,0.0,0.0,0.0,0.0,0.0,0.0,0.0,0.0,0.0,0.0,0.0,0.0,0.0,0.0,0.0,0.0,0.0,0.0,0.0,0.0,0.0,0.0,0.0,0.0,0.0,0.0,0.0,0.0,0.0,0.0,0.0,0.0,0.0,0.0,0.0,0.0,0.0,0.0,0.0,0.0,0.0,0.0,0.0,0.0,0.0,0.0,0.0,0.0,0.0,0.0,0.0,0.0,0.0,0.0,0.0,0.0,0.0,0.0,0.0,0.0,0.0,0.0,0.0,0.0,0.0,0.0,0.0,0.0,0.0,0.0,0.0,0.0,0.0,0.0,0.0,0.0,0.0,0.0,0.0,0.0,0.0,0.0,0.0,0.0,0.0,0.0,0.0,0.0,0.0,0.0,0.0,0.0,0.0,0.0,0.0,0.0,0.0,0.0,0.0,0.0,0.0,0.0,0.0,1.3069,1.3841,1.4347,1.4494,1.3873,1.3105,0.0,0.0,0.0,0.0,0.0,0.0,0.0,0.0,0.0,0.0,0.0,0.0,0.0,0.0,0.0,0.0,0.0,0.0,0.0,0.0,0.0,0.0,0.0,0.0,0.0,0.0,0.0,0.0,0.0,0.0,0.0,0.0,0.0,0.0,0.0,0.0,0.0,0.0,0.0,0.0,0.0,0.0,0.0,0.0,0.0,0.0,0.0,0.0,0.0,0.0,0.0,0.0,0.0,0.0,0.0,0.0,0.0,0.0,0.0,0.0,0.0,0.0,0.0,0.0,0.0,0.0,0.0,0.0,0.0,0.0,0.0,0.0,0.0,0.0,0.0,0.0,0.0,0.0,0.0,0.0,0.0,0.0,0.0,0.0,0.0,0.0,0.0,0.0,0.0,0.0,0.0,0.0,0.0,0.0,0.0,0.0,0.0,0.0,0.0,0.0,0.0,0.0,0.0,0.0,0.0,0.0,0.0,0.0,0.0,1.362,0.0,1.4432,1.4492,1.4093,1.3485,0.0,0.0,0.0,0.0,0.0,0.0,0.0,0.0,0.0,0.0,0.0,0.0,0.0,0.0,0.0,0.0,0.0,0.0,0.0,0.0,0.0,0.0,0.0,0.0,0.0,0.0,0.0,0.0,0.0,0.0,0.0,0.0,0.0,0.0,0.0,0.0,0.0,0.0,0.0,0.0,0.0,0.0,0.0,0.0,0.0,0.0,0.0,0.0,0.0,0.0,0.0,0.0,0.0,0.0,0.0,0.0,0.0,0.0,0.0,0.0,0.0,0.0,0.0,0.0,0.0,0.0,0.0,0.0,0.0,0.0,0.0,0.0,0.0,0.0,0.0,0.0,0.0,0.0,0.0,0.0,0.0,0.0,0.0,0.0,0.0,0.0,0.0,0.0,0.0,0.0,0.0,0.0,0.0,0.0,0.0,0.0,0.0,0.0,0.0,0.0,0.0,0.0,0.0,0.0,0.0,0.0,0.0,0.0,1.2668,1.3941,1.4263,1.4437,1.4501,1.4605,1.4263,0.0,0.0,0.0,0.0,0.0,0.0,0.0,0.0,0.0,0.0,0.0,0.0,0.0,0.0,0.0,0.0,0.0,0.0,0.0,0.0,0.0,0.0,0.0,0.0,0.0,0.0,0.0,0.0,0.0,0.0,0.0,0.0,0.0,0.0,0.0,0.0,0.0,0.0,0.0,0.0,0.0,0.0,0.0,0.0,0.0,0.0,0.0,0.0,0.0,0.0,0.0,0.0,0.0,0.0,0.0,0.0,0.0,0.0,0.0,0.0,0.0,0.0,0.0,0.0,0.0,0.0,0.0,0.0,0.0,0.0,0.0,0.0,0.0,0.0,0.0,0.0,0.0,0.0,0.0,0.0,0.0,0.0,0.0,0.0,0.0,0.0,0.0,0.0,0.0,0.0,0.0,0.0,0.0,0.0,0.0,0.0,0.0,0.0,0.0,0.0,0.0,0.0,0.0,0.0,0.0,0.0,0.0,0.0,0.0,1.3982,1.4266,1.4448,1.456,1.4664,1.4323,0.0,0.0,0.0,0.0,0.0,0.0,0.0,0.0,0.0,0.0,0.0,0.0,0.0,0.0,0.0,0.0,0.0,0.0,0.0,0.0,0.0,0.0,0.0,0.0,0.0,0.0,0.0,0.0,0.0,0.0,0.0,0.0,0.0,0.0,0.0,0.0,0.0,0.0,0.0,0.0,0.0,0.0,0.0,0.0,0.0,0.0,0.0,0.0,0.0,0.0,0.0,0.0,0.0,0.0,0.0,0.0,0.0,0.0,0.0,0.0,0.0,0.0,0.0,0.0,0.0,0.0,0.0,0.0,0.0,0.0,0.0,0.0,0.0,0.0,0.0,0.0,0.0,0.0,0.0,0.0,0.0,0.0,0.0,0.0,0.0,0.0,0.0,0.0,0.0,0.0,0.0,0.0,0.0,0.0,0.0,0.0,0.0,0.0,0.0,0.0,0.0,0.0,0.0,0.0,0.0,0.0,0.0,0.0,0.0,1.4005,1.4266,1.4437,1.455,1.4647,1.4435,1.3931,0.0,0.0,0.0,0.0,0.0,0.0,0.0,0.0,0.0,0.0,0.0,0.0,0.0,0.0,0.0,0.0,0.0,0.0,0.0,0.0,0.0,0.0,0.0,0.0,0.0,0.0,0.0,0.0,0.0,0.0,0.0,0.0,0.0,0.0,0.0,0.0,0.0,0.0,0.0,0.0,0.0,0.0,0.0,0.0,0.0,0.0,0.0,0.0,0.0,0.0,0.0,0.0,0.0,0.0,0.0,0.0,0.0,0.0,0.0,0.0,0.0,0.0,0.0,0.0,0.0,0.0,0.0,0.0,0.0,0.0,0.0,0.0,0.0,0.0,0.0,0.0,0.0,0.0,0.0,0.0,0.0,0.0,0.0,0.0,0.0,0.0,0.0,0.0,0.0,0.0,0.0,0.0,0.0,0.0,0.0,0.0,0.0,0.0,0.0,0.0,0.0,0.0,0.0,0.0,0.0,0.0,0.0,0.0,1.4,1.4245,1.4434,1.4501,1.4618,1.4677,0.0,0.0,0.0,0.0,0.0,0.0,0.0,0.0,0.0,0.0,0.0,0.0,0.0,0.0,0.0,0.0,0.0,0.0,0.0,0.0,0.0,0.0,0.0,0.0,0.0,0.0,0.0,0.0,0.0,0.0,0.0,0.0,0.0,0.0,0.0,0.0,0.0,0.0,0.0,0.0,0.0,0.0,0.0,0.0,0.0,0.0,0.0,0.0,0.0,0.0,0.0,0.0,0.0,0.0,0.0,0.0,0.0,0.0,0.0,0.0,0.0,0.0,0.0,0.0,0.0,0.0,0.0,0.0,0.0,0.0,0.0,0.0,0.0,0.0,0.0,0.0,0.0,0.0,0.0,0.0,0.0,0.0,0.0,0.0,0.0,0.0,0.0,0.0,0.0,0.0,0.0,0.0,0.0,0.0,0.0,0.0,0.0,0.0,0.0,0.0,0.0,0.0,0.0,0.0,0.0,0.0,0.0,0.0,0.0,1.3934,1.4198,1.4399,1.4569,1.4663,1.4684,0.0,0.0,0.0,0.0,0.0,0.0,0.0,0.0,0.0,0.0,0.0,0.0,0.0,0.0,0.0,0.0,0.0,0.0,0.0,0.0,0.0,0.0,0.0,0.0,0.0,0.0,0.0,0.0,0.0,0.0,0.0,0.0,0.0,0.0,0.0,0.0,0.0,0.0,0.0,0.0,0.0,0.0,0.0,0.0,0.0,0.0,0.0,0.0,0.0,0.0,0.0,0.0,0.0,0.0,0.0,0.0,0.0,0.0,0.0,0.0,0.0,0.0,0.0,0.0,0.0,0.0,0.0,0.0,0.0,0.0,0.0,0.0,0.0,0.0,0.0,0.0,0.0,0.0,0.0,0.0,0.0,0.0,0.0,0.0,0.0,0.0,0.0,0.0,0.0,0.0,0.0,0.0,0.0,0.0,0.0,0.0,0.0,0.0,0.0,0.0,0.0,0.0,0.0,0.0,0.0,0.0,0.0,0.0,1.3739,1.3906,1.4472,1.4834,1.5025,1.4796,1.4683,0.0,0.0,0.0,0.0,0.0,0.0,0.0,0.0,0.0,0.0,0.0,0.0,0.0,0.0,0.0,0.0,0.0,0.0,0.0,0.0,0.0,0.0,0.0,0.0,0.0,0.0,0.0,0.0,0.0,0.0,0.0,0.0,0.0,0.0,0.0,0.0,0.0,0.0,0.0,0.0,0.0,0.0,0.0,0.0,0.0,0.0,0.0,0.0,0.0,0.0,0.0,0.0,0.0,0.0,0.0,0.0,0.0,0.0,0.0,0.0,0.0,0.0,0.0,0.0,0.0,0.0,0.0,0.0,0.0,0.0,0.0,0.0,0.0,0.0,0.0,0.0,0.0,0.0,0.0,0.0,0.0,0.0,0.0,0.0,0.0,0.0,0.0,0.0,0.0,0.0,0.0,0.0,0.0,0.0,0.0,0.0,0.0,0.0,0.0,0.0,0.0,0.0,0.0,0.0,0.0,0.0,0.0,0.0,1.3669,1.388,1.4857,1.5437,1.5555,1.5155,1.4864,0.0,0.0,0.0,0.0,0.0,0.0,0.0,0.0,0.0,0.0,0.0,0.0,0.0,0.0,0.0,0.0,0.0,0.0,0.0,0.0,0.0,0.0,0.0,0.0,0.0,0.0,0.0,0.0,0.0,0.0,0.0,0.0,0.0,0.0,0.0,0.0,0.0,0.0,0.0,0.0,0.0,0.0,0.0,0.0,0.0,0.0,0.0,0.0,0.0,0.0,0.0,0.0,0.0,0.0,0.0,0.0,0.0,0.0,0.0,0.0,0.0,0.0,0.0,0.0,0.0,0.0,0.0,0.0,0.0,0.0,0.0,0.0,0.0,0.0,0.0,0.0,0.0,0.0,0.0,0.0,0.0,0.0,0.0,0.0,0.0,0.0,0.0,0.0,0.0,0.0,0.0,0.0,0.0,0.0,0.0,0.0,0.0,0.0,0.0,0.0,0.0,0.0,0.0,0.0,0.0,0.0,0.0,0.0,1.3599,1.3754,1.4719,1.5305,1.5446,1.6082,1.6161,0.0,0.0,0.0,0.0,0.0,0.0,0.0,0.0,0.0,0.0,0.0,0.0,0.0,0.0,0.0,0.0,0.0,0.0,0.0,0.0,0.0,0.0,0.0,0.0,0.0,0.0,0.0,0.0,0.0,0.0,0.0,0.0,0.0,0.0,0.0,0.0,0.0,0.0,0.0,0.0,0.0,0.0,0.0,0.0,0.0,0.0,0.0,0.0,1.3496,0.0,0.0,0.0,0.0,0.0,0.0,0.0,0.0,0.0,0.0,0.0,0.0,0.0,0.0,0.0,0.0,0.0,0.0,0.0,0.0,0.0,0.0,0.0,0.0,0.0,0.0,0.0,0.0,0.0,0.0,0.0,0.0,0.0,0.0,0.0,0.0,0.0,0.0,0.0,0.0,0.0,0.0,0.0,0.0,0.0,0.0,0.0,0.0,0.0,0.0,0.0,0.0,0.0,0.0,0.0,0.0,0.0,0.0,0.0,1.3528,1.3717,1.5024,1.5786,1.5994,1.7249,1.7232,0.0,0.0,0.0,0.0,0.0,0.0,0.0,0.0,0.0,0.0,0.0,0.0,0.0,0.0,0.0,0.0,0.0,0.0,0.0,0.0,0.0,0.0,0.0,0.0,0.0,0.0,0.0,0.0,0.0,0.0,0.0,0.0,0.0,0.0,0.0,0.0,0.0,0.0,0.0,0.0,0.0,0.0,0.0,0.0,0.0,0.0,0.0,0.0,0.0,0.0,0.0,0.0,0.0,0.0,0.0,0.0,0.0,0.0,0.0,0.0,0.0,0.0,0.0,0.0,0.0,0.0,0.0,0.0,0.0,0.0,0.0,0.0,0.0,0.0,0.0,0.0,0.0,0.0,0.0,0.0,0.0,0.0,0.0,0.0,0.0,0.0,0.0,0.0,0.0,0.0,0.0,0.0,0.0,0.0,0.0,0.0,0.0,0.0,0.0,0.0,0.0,0.0,0.0,0.0,0.0,0.0,0.0,1.3328,1.3471,1.3714,1.5372,1.6371,1.6583,1.8187,1.8095,1.6055,0.0,0.0,0.0,0.0,0.0,0.0,0.0,0.0,0.0,0.0,0.0,0.0,0.0,0.0,0.0,0.0,0.0,0.0,0.0,0.0,0.0,0.0,0.0,0.0,0.0,0.0,0.0,0.0,0.0,0.0,0.0,0.0,0.0,0.0,0.0,0.0,0.0,0.0,1.1056,1.25,0.0,0.0,0.0,0.0,0.0,0.0,0.0,0.0,1.3824,0.0,0.0,0.0,0.0,0.0,0.0,0.0,0.0,0.0,0.0,0.0,0.0,0.0,0.0,0.0,0.0,0.0,0.0,0.0,0.0,0.0,0.0,0.0,0.0,0.0,0.0,0.0,0.0,0.0,0.0,0.0,0.0,0.0,0.0,0.0,0.0,0.0,0.0,0.0,0.0,0.0,0.0,0.0,0.0,0.0,0.0,0.0,0.0,0.0,0.0,0.0,0.0,0.0,0.0,0.0,0.0,1.3031,1.3226,1.3396,1.357,1.5236,1.6201,1.6385,1.8035,1.8496,1.7566,0.0,0.0,0.0,0.0,0.0,0.0,0.0,0.0,0.0,0.0,0.0,0.0,0.0,0.0,0.0,0.0,0.0,0.0,0.0,0.0,0.0,0.0,0.0,0.0,0.0,0.0,0.0,0.0,0.0,0.0,0.0,0.0,0.0,0.0,0.0,0.0,0.0,0.0,0.0,1.2789,1.3633,0.0,0.0,0.0,0.0,0.0,0.0,0.0,0.0,1.37,0.0,0.0,0.0,0.0,0.0,0.0,0.0,0.0,0.0,0.0,0.0,0.0,0.0,0.0,0.0,0.0,0.0,0.0,0.0,0.0,0.0,0.0,0.0,0.0,0.0,0.0,0.0,0.0,0.0,0.0,0.0,0.0,0.0,0.0,0.0,0.0,0.0,0.0,0.0,0.0,0.0,0.0,0.0,0.0,0.0,0.0,0.0,0.0,0.0,0.0,0.0,0.0,0.0,0.0,0.0,1.3013,1.319,1.3346,1.3521,1.4812,1.5563,1.5751,1.7384,1.8165,0.0,0.0,0.0,0.0,0.0,0.0,0.0,0.0,0.0,0.0,0.0,0.0,0.0,0.0,0.0,0.0,0.0,0.0,0.0,0.0,0.0,0.0,0.0,0.0,0.0,0.0,0.0,0.0,0.0,0.0,0.0,0.0,0.0,0.0,0.0,0.0,0.0,0.0,0.0,0.0,1.3353,1.4136,1.4921,0.0,0.0,0.0,0.0,0.0,0.0,1.509,1.489,0.0,0.0,0.0,0.0,0.0,0.0,0.0,0.0,0.0,0.0,0.0,0.0,0.0,0.0,0.0,0.0,0.0,0.0,0.0,0.0,0.0,0.0,0.0,0.0,0.0,0.0,0.0,0.0,0.0,0.0,0.0,0.0,0.0,0.0,0.0,0.0,0.0,0.0,0.0,0.0,0.0,0.0,0.0,0.0,0.0,0.0,0.0,0.0,0.0,0.0,0.0,0.0,0.0,0.0,0.0,1.2987,1.3189,1.3354,1.3505,1.4407,1.4971,1.5181,1.6799,1.7737,0.0,0.0,0.0,0.0,0.0,0.0,0.0,0.0,0.0,0.0,0.0,0.0,0.0,0.0,0.0,0.0,0.0,0.0,0.0,0.0,0.0,0.0,0.0,0.0,0.0,0.0,0.0,0.0,0.0,0.0,0.0,0.0,0.0,0.0,0.0,0.0,0.0,0.0,0.0,0.0,0.0,1.4827,1.5622,1.5812,0.0,0.0,0.0,0.0,1.6104,1.6031,0.0,0.0,0.0,0.0,0.0,0.0,0.0,0.0,0.0,0.0,0.0,0.0,0.0,0.0,0.0,0.0,0.0,0.0,0.0,0.0,0.0,0.0,0.0,0.0,0.0,0.0,0.0,0.0,0.0,0.0,0.0,0.0,0.0,0.0,0.0,0.0,0.0,0.0,0.0,0.0,0.0,0.0,0.0,0.0,0.0,0.0,0.0,0.0,0.0,0.0,0.0,0.0,0.0,0.0,0.0,0.0,1.2908,1.3113,1.3269,1.3455,1.4306,1.4863,1.5046,1.67,1.7637,0.0,0.0,0.0,0.0,0.0,0.0,0.0,0.0,0.0,0.0,0.0,0.0,0.0,0.0,0.0,0.0,0.0,0.0,0.0,0.0,0.0,0.0,0.0,0.0,0.0,0.0,0.0,0.0,0.0,0.0,0.0,0.0,0.0,0.0,0.0,0.0,0.0,0.0,0.0,0.0,0.0,1.5625,1.6353,1.6538,1.6838,0.0,0.0,1.672,1.6775,1.6237,0.0,0.0,0.0,0.0,0.0,0.0,0.0,0.0,0.0,0.0,0.0,0.0,0.0,0.0,0.0,0.0,0.0,0.0,0.0,0.0,0.0,0.0,0.0,0.0,0.0,0.0,0.0,0.0,0.0,0.0,0.0,0.0,0.0,0.0,0.0,0.0,0.0,0.0,0.0,0.0,0.0,0.0,0.0,0.0,0.0,0.0,0.0,0.0,0.0,0.0,0.0,0.0,0.0,0.0,0.0,1.2906,1.2916,1.3113,1.3269,1.3413,1.387,1.4181,1.4307,1.596,1.6916,0.0,0.0,0.0,0.0,0.0,0.0,0.0,0.0,0.0,0.0,0.0,0.0,0.0,0.0,0.0,0.0,0.0,0.0,0.0,0.0,0.0,0.0,0.0,0.0,0.0,0.0,0.0,0.0,0.0,0.0,0.0,0.0,0.0,0.0,0.0,0.0,0.0,0.0,0.0,0.0,0.0,0.0,1.7115,1.7299,0.0,0.0,0.0,1.7467,1.7522,0.0,0.0,0.0,0.0,0.0,0.0,0.0,0.0,0.0,0.0,0.0,0.0,0.0,0.0,0.0,0.0,0.0,0.0,0.0,0.0,0.0,0.0,0.0,0.0,0.0,0.0,0.0,0.0,0.0,0.0,0.0,0.0,0.0,0.0,0.0,0.0,0.0,0.0,0.0,0.0,0.0,0.0,0.0,0.0,0.0,0.0,0.0,0.0,0.0,0.0,0.0,0.0,0.0,0.0,0.0,0.0,0.0,1.324,1.3214,1.3252,1.3405,1.3546,1.3674,1.3789,1.5383,0.0,0.0,0.0,0.0,0.0,0.0,0.0,0.0,0.0,0.0,0.0,0.0,0.0,0.0,0.0,0.0,0.0,0.0,0.0,0.0,0.0,0.0,0.0,0.0,0.0,0.0,0.0,1.1085,0.0,0.0,0.0,0.0,0.0,0.0,0.0,0.0,0.0,0.0,0.0,0.0,0.0,0.0,1.7095,1.7642,1.7772,1.7789,0.0,0.0,1.7892,1.7961,1.8027,1.81,0.0,0.0,0.0,0.0,0.0,0.0,0.0,0.0,0.0,0.0,0.0,0.0,0.0,0.0,0.0,0.0,0.0,0.0,0.0,0.0,0.0,0.0,0.0,0.0,0.0,0.0,0.0,0.0,0.0,0.0,0.0,0.0,0.0,0.0,0.0,0.0,0.0,0.0,0.0,0.0,0.0,0.0,0.0,0.0,0.0,0.0,0.0,0.0,0.0,0.0,0.0,0.0,0.0,0.0,0.0,1.4093,1.3507,1.3278,1.3396,1.3529,1.3642,1.3736,1.5328,1.6279,0.0,0.0,0.0,0.0,0.0,0.0,0.0,0.0,0.0,0.0,0.0,0.0,0.0,0.0,0.0,0.0,0.0,0.0,0.0,0.0,0.0,0.0,0.0,0.0,0.0,0.0,0.0,0.0,0.0,0.0,0.0,0.0,0.0,0.0,0.0,0.0,0.0,0.0,0.0,0.0,0.0,1.7738,1.778,1.7789,1.7789,0.0,0.0,1.7833,1.7892,1.7961,1.8035,1.8091,0.0,0.0,0.0,0.0,0.0,0.0,0.0,0.0,0.0,0.0,0.0,0.0,0.0,0.0,0.0,0.0,0.0,0.0,0.0,0.0,0.0,0.0,0.0,0.0,0.0,0.0,0.0,0.0,0.0,0.0,0.0,0.0,0.0,0.0,0.0,0.0,0.0,0.0,0.0,0.0,0.0,0.0,0.0,0.0,0.0,0.0,0.0,0.0,0.0,0.0,0.0,0.0,0.0,1.4109,1.4184,1.355,1.3252,1.3396,1.3488,1.3568,1.3638,1.5269,1.6193,0.0,0.0,0.0,0.0,0.0,0.0,0.0,0.0,0.0,0.0,0.0,0.0,0.0,0.0,0.0,0.0,0.0,0.0,0.0,0.0,0.0,0.0,0.0,0.0,0.0,0.0,0.0,0.0,1.2874,1.3177,1.3937,0.0,0.0,0.0,0.0,0.0,0.0,0.0,0.0,0.0,0.0,1.7689,1.7689,1.7712,0.0,0.0,1.7772,1.7833,1.7892,1.7914,1.7961,1.8018,1.8455,0.0,0.0,0.0,0.0,0.0,0.0,0.0,0.0,0.0,0.0,0.0,0.0,0.0,0.0,0.0,0.0,0.0,0.0,0.0,0.0,0.0,0.0,0.0,0.0,0.0,0.0,0.0,0.0,0.0,0.0,0.0,0.0,0.0,0.0,0.0,0.0,0.0,0.0,0.0,0.0,0.0,0.0,0.0,0.0,0.0,0.0,0.0,0.0,0.0,0.0,0.0,0.0,1.4705,1.4577,1.3911,1.3497,1.3396,1.3446,1.3605,1.3944,1.5306,1.6221,0.0,0.0,0.0,0.0,0.0,0.0,0.0,0.0,0.0,0.0,0.0,0.0,0.0,0.0,0.0,0.0,0.0,0.0,0.0,0.0,0.0,0.0,0.0,0.0,0.0,0.0,0.0,0.0,1.4004,1.4171,1.4664,0.0,0.0,0.0,0.0,0.0,0.0,0.0,0.0,0.0,0.0,1.7534,1.7566,1.7803,1.7977,1.8032,1.824,1.8447,1.8509,1.8563,1.8586,1.8626,0.0,0.0,0.0,0.0,0.0,0.0,0.0,0.0,0.0,0.0,0.0,0.0,0.0,0.0,0.0,0.0,0.0,0.0,0.0,0.0,0.0,0.0,0.0,0.0,0.0,0.0,0.0,0.0,0.0,0.0,1.5475,0.0,0.0,0.0,0.0,0.0,0.0,0.0,0.0,0.0,0.0,0.0,0.0,0.0,0.0,0.0,0.0,0.0,0.0,0.0,0.0,0.0,0.0,1.6033,1.5459,1.4715,1.4053,1.3447,1.3413,1.3829,1.4658,1.5495,1.6339,1.7264,0.0,0.0,0.0,0.0,0.0,0.0,0.0,0.0,0.0,0.0,0.0,0.0,0.0,0.0,0.0,0.0,0.0,0.0,0.0,0.0,0.0,0.0,0.0,0.0,0.0,0.0,1.5426,1.5536,1.5508,0.0,0.0,0.0,0.0,0.0,0.0,0.0,0.0,0.0,0.0,1.7384,1.7416,1.7511,1.8119,1.8601,1.8765,1.9378,1.9866,1.99,1.9984,2.006,0.0,0.0,0.0,0.0,0.0,0.0,0.0,0.0,0.0,0.0,0.0,0.0,0.0,0.0,0.0,0.0,0.0,0.0,0.0,0.0,0.0,0.0,0.0,0.0,0.0,0.0,0.0,1.6813,1.6562,0.0,0.0,0.0,0.0,0.0,0.0,0.0,0.0,0.0,0.0,0.0,1.8777,1.8726,0.0,0.0,0.0,0.0,0.0,0.0,0.0,0.0,0.0,0.0,0.0,0.0,1.6156,1.5493,1.4773,1.4306,1.4132,1.4134,1.4517,1.5328,1.6186,1.7122,1.8131,0.0,0.0,0.0,0.0,0.0,0.0,0.0,0.0,0.0,0.0,0.0,0.0,0.0,0.0,0.0,0.0,0.0,0.0,0.0,0.0,0.0,0.0,0.0,0.0,0.0,1.5458,0.0,0.0,0.0,0.0,0.0,0.0,0.0,0.0,0.0,0.0,0.0,1.7175,1.7134,1.7199,1.7445,1.7879,1.8277,1.8734,0.0,0.0,0.0,0.0,0.0,0.0,0.0,0.0,0.0,0.0,0.0,0.0,0.0,0.0,2.0429,1.9569,1.9297,1.8844,1.7831,0.0,0.0,0.0,0.0,0.0,0.0,0.0,0.0,0.0,0.0,0.0,0.0,0.0,0.0,1.7876,0.0,1.789,0.0,0.0,0.0,0.0,0.0,0.0,0.0,0.0,1.845,1.8829,1.9594,1.9526,1.983,0.0,2.0341,1.9923,0.0,0.0,0.0,0.0,0.0,0.0,0.0,0.0,1.664,1.5949,1.5438,1.5105,1.4902,1.4893,1.5268,1.6073,1.6958,1.778,1.8547,1.8734,1.8688,0.0,0.0,0.0,0.0,0.0,0.0,0.0,0.0,0.0,0.0,0.0,0.0,0.0,0.0,0.0,0.0,0.0,0.0,0.0,0.0,0.0,0.0,0.0,1.6536,0.0,0.0,0.0,0.0,0.0,0.0,0.0,0.0,0.0,1.7539,1.7635,1.7702,1.7658,1.7735,1.7963,1.8427,0.0,0.0,0.0,0.0,0.0,0.0,0.0,2.0629,2.0682,2.1015,2.1259,2.1089,2.1275,2.1388,2.1143,0.0,0.0,1.9659,1.9305,1.8771,1.7557,1.7096,1.6909,1.6833,1.6746,1.6667,0.0,0.0,0.0,0.0,0.0,0.0,0.0,0.0,1.9533,1.9619,0.0,1.9559,0.0,0.0,0.0,0.0,0.0,1.9164,0.0,0.0,1.9271,1.9667,2.0388,2.03,2.0579,2.1189,2.1093,2.0972,2.0824,1.9979,0.0,0.0,0.0,0.0,0.0,0.0,1.7518,1.6716,1.6655,1.6333,1.5663,1.5639,1.6021,1.6804,1.7722,1.8289,1.8494,1.8631,1.8816,1.9052,1.8422,0.0,0.0,0.0,0.0,0.0,0.0,0.0,0.0,0.0,0.0,0.0,0.0,0.0,0.0,0.0,0.0,0.0,0.0,0.0,0.0,1.7527,0.0,0.0,0.0,0.0,0.0,0.0,0.0,0.0,0.0,0.0,1.8134,1.8511,1.8869,1.8845,0.0,0.0,0.0,0.0,2.034,2.0487,2.1208,2.1794,2.1845,2.1915,2.1965,2.1956,0.0,0.0,2.1448,2.1285,2.1103,2.0819,2.0589,2.0303,1.9783,1.9127,1.8464,1.7713,1.7034,1.6586,1.6493,1.6463,1.639,2.0669,0.0,0.0,0.0,0.0,1.9911,2.0156,2.0241,2.0901,2.1223,2.1208,2.0667,0.0,0.0,0.0,0.0,0.0,0.0,1.9598,2.0138,2.0142,2.053,2.1261,2.1125,2.1399,2.2037,2.1865,2.2023,2.2376,2.1533,2.0486,1.9381,0.0,0.0,0.0,0.0,1.7496,1.6741,1.6703,1.6601,1.6394,1.6386,1.6762,1.7569,1.7937,1.821,1.8339,1.8533,1.8714,1.8932,1.8801,0.0,0.0,0.0,0.0,0.0,0.0,0.0,0.0,0.0,0.0,0.0,0.0,0.0,0.0,0.0,0.0,0.0,0.0,0.0,1.7693,1.7877,1.8196,0.0,0.0,0.0,0.0,0.0,0.0,0.0,0.0,0.0,1.9159,1.8816,1.8628,0.0,0.0,1.8958,1.9473,1.9917,2.0366,2.0914,2.1303,0.0,2.1656,2.1738,2.1797,2.184,2.1691,2.1487,2.1285,2.1055,2.0819,2.0538,2.003,1.9389,1.8684,1.8462,1.7928,1.6933,1.644,1.6289,1.6226,1.6207,1.6179,2.1862,2.1402,2.0615,2.0285,2.033,2.0814,2.1024,2.1066,2.1594,2.1884,2.1881,2.1442,2.122,2.113,2.0305,0.0,0.0,0.0,2.02,2.0972,2.0948,2.1306,2.1961,2.1844,2.2144,2.2776,2.2605,2.2678,2.3003,2.2382,2.1476,2.0237,0.0,0.0,1.8449,1.8089,1.7649,1.7164,1.7126,1.7117,1.7126,1.7134,1.7389,1.7897,1.8027,1.8117,1.8263,1.8414,1.8598,1.8769,1.8878,1.8347,0.0,0.0,0.0,0.0,0.0,0.0,0.0,0.0,0.0,0.0,0.0,1.7223,1.7369,0.0,0.0,0.0,1.7428,1.7674,1.8381,1.8418,0.0,0.0,0.0,0.0,0.0,0.0,0.0,1.9621,2.0021,2.0194,1.9978,1.9536,1.927,1.9287,1.9358,1.9578,2.0002,0.0,2.0519,2.0967,2.1191,2.134,2.1442,2.1534,2.1579,2.1579,2.1448,2.1277,2.1071,2.0884,2.0575,2.0053,1.9523,1.8839,1.7782,1.7577,1.7311,1.634,1.6131,1.6095,1.6067,1.6047,1.6011,2.2994,2.2913,2.2272,2.1905,2.1812,2.1876,2.1903,2.1909,2.1955,2.2018,2.2088,2.2026,2.1961,2.1839,2.106,0.0,2.0611,2.0604,2.1027,2.1798,2.1717,2.2052,2.268,2.2569,2.2803,2.3374,2.3184,2.302,2.2885,2.2764,2.2332,2.1541,2.0076,1.9273,1.9049,1.8348,1.7929,1.7794,1.778,1.7789,1.778,1.7789,1.7816,1.7892,1.7961,1.8065,1.819,1.8322,1.8443,1.8596,1.8713,1.8414,1.7637,0.0,0.0,0.0,0.0,0.0,0.0,0.0,0.0,0.0,0.0,0.0,0.0,0.0,0.0,0.0,1.8198,0.0,1.9015,1.9092,0.0,0.0,0.0,2.0145,2.0076,2.0508,2.0661,2.0351,0.0,0.0,2.0545,2.0441,2.0449,2.0494,2.0501,2.0486,2.0494,2.0638,2.0786,2.0786,2.099,2.1167,2.1254,2.1332,2.1371,2.1317,2.1246,2.1111,2.0844,2.0616,2.0233,1.9441,1.9053,1.844,1.7105,1.6811,1.6511,1.6068,1.5968,1.5968,1.5975,1.5934,1.5906,2.4229,2.3733,2.3618,2.2878,2.185,2.2464,2.2712,2.2776,2.3364,2.364,2.3603,2.3049,2.2441,2.1815,2.1622,2.1524,2.1492,2.1439,2.1861,2.2584,2.249,2.2823,2.3506,2.3368,2.3307,2.3313,2.3111,2.2927,2.2747,2.2659,2.2501,2.2242,2.1267,2.0211,1.9056,1.8843,1.8432,1.7805,1.7789,1.7789,1.7789,1.7789,1.7819,1.7833,1.7939,1.8035,1.813,1.8248,1.8371,1.8522,1.8552,1.8248,1.7551,1.7338,0.0,0.0,0.0,0.0,0.0,0.0,0.0,0.0,0.0,1.8959,1.9491,0.0,1.9343,0.0,1.9607,1.9595,1.9796,1.983,0.0,0.0,2.0951,2.1092,2.1468,2.1541,2.1406,2.1157,2.099,2.0877,2.0728,2.0569,2.046,2.0449,2.0407,2.0407,2.0415,2.0509,2.0603,2.0711,2.0835,2.0925,2.0982,2.1095,2.1159,2.1127,2.1014,2.0868,2.0752,2.0106,1.9505,1.9066,1.8131,1.7294,1.6825,1.6353,1.6023,1.5857,1.5848,1.5848,1.5856,1.5835,1.5842,2.543,2.5083,2.5143,2.449,2.3401,2.3501,2.3529,2.3575,2.4007,2.42,2.4164,2.3759,2.3116,2.2355,2.2326,2.2317,2.2291,2.2255,2.2639,2.333,2.3233,2.3397,2.375,2.3589,2.3415,2.3265,2.3061,2.2868,2.2685,2.2623,2.2533,2.246,2.1988,2.1154,2.0009,1.9306,1.8723,1.831,1.7972,1.7789,1.7789,1.7789,1.7789,1.7803,1.7939,1.7996,1.8057,1.8206,1.833,1.8417,1.8454,1.8292,1.7964,1.762,1.7294,0.0,0.0,0.0,0.0,0.0,0.0,0.0,0.0,0.0,0.0,0.0,1.9976,2.0151,2.0078,2.017,2.0552,2.0577,2.0891,2.1602,2.1686,2.1784,2.1977,2.192,2.1713,2.1448,2.123,2.1007,2.0827,2.0687,2.0595,2.0475,2.0449,2.0415,2.0388,2.0399,2.0475,2.0577,2.0669,2.0769,2.0852,2.0933,2.099,2.0932,2.0818,2.0711,2.0569,1.9898,1.9144,1.8621,1.7636,1.6744,1.6398,1.6046,1.5814,1.5814,1.5814,1.5814,1.5814,1.5814,1.5814,2.6436,2.6403,2.6447,2.6139,2.5493,2.4694,2.4291,2.4199,2.4199,2.4199,2.4199,2.4199,2.3821,2.3159,2.3134,2.3107,2.3041,2.3032,2.3339,2.3887,2.3834,2.375,2.3647,2.3476,2.3313,2.316,2.2986,2.2825,2.2685,2.256,2.246,2.2394,2.2347,2.198,2.1314,1.99,1.9139,1.9046,1.8411,1.8099,1.8099,1.8099,1.8107,1.813,1.8251,1.8304,1.8317,1.8478,1.8567,1.8594,1.8653,1.8714,1.8795,1.82,1.7895,0.0,1.8135,0.0,0.0,0.0,0.0,0.0,0.0,0.0,0.0,2.0611,2.0622,2.034,2.0295,2.0563,2.1262,2.1356,2.1591,2.2217,2.2319,2.2229,2.2027,2.1949,2.1773,2.1487,2.1371,2.1183,2.0925,2.0868,2.0769,2.0587,2.0553,2.0527,2.0415,2.0415,2.0449,2.0501,2.0618,2.0752,2.0777,2.0819,2.0827,2.0718,2.0652,2.0592,2.0407,1.969,1.8851,1.8141,1.7303,1.6525,1.5888,1.5821,1.5814,1.5814,1.5814,1.5814,1.5814,1.5814,1.5814,2.687,2.6409,2.6408,2.6399,2.6309,2.5502,2.4786,2.4199,2.4199,2.4199,2.4199,2.4199,2.4116,2.3969,2.3931,2.3883,2.3883,2.3757,2.3742,2.3816,2.381,2.3691,2.3539,2.3439,2.3265,2.3036,2.2936,2.2764,2.2542,2.2515,2.2432,2.231,2.231,2.2234,2.2057,0.0,0.0,0.0,1.9647,1.9637,1.9761,1.9753,1.9769,1.9826,1.9889,0.0,1.9936,1.9998,2.0042,2.0161,2.0169,0.0,0.0,0.0,0.0,0.0,0.0,0.0,0.0,0.0,0.0,0.0,2.198,2.1697,2.1441,2.1806,2.201,2.1953,2.1896,2.1944,2.2046,2.2099,2.215,2.2293,2.2319,2.2237,2.2036,2.194,2.184,2.1678,2.1442,2.1285,2.1206,2.1111,2.099,2.0844,2.0828,2.0778,2.066,2.0551,2.0535,2.0644,2.0677,2.0685,2.0718,2.0644,2.0595,2.0535,2.0483,2.0415,2.0261,1.915,1.8256,1.7893,1.6894,1.6015,1.5821,1.5814,1.5814,1.5814,1.5814,1.5814,1.5814,1.5814,1.5814,2.7822,0.0,2.7592,2.7428,0.0,2.6759,2.6126,2.5328,2.4538,2.4199,2.4199,2.4199,2.417,2.4141,2.4122,2.4074,2.4005,2.3887,2.3834,2.3789,2.3712,2.3638,2.3494,2.3378,2.3193,2.3011,2.2885,2.2747,2.2515,2.2487,2.2441,2.2319,2.2319,2.2319,2.2302,2.1957,2.1222,2.0111,2.0102,2.0136,2.0261,2.0244,2.0252,2.0301,2.0374,0.0,0.0,0.0,0.0,0.0,0.0,0.0,0.0,2.0933,0.0,2.1198,2.1247,2.1497,2.2021,2.2036,2.2328,2.3028,2.2816,2.2526,2.2256,2.2358,2.24,2.2413,2.233,2.2319,2.2319,2.2319,2.2319,2.2319,2.2319,2.2245,2.2106,2.2015,2.189,2.1768,2.1595,2.1464,2.1379,2.1262,2.1175,2.1055,2.1023,2.0974,2.09,2.0711,2.0618,2.0693,2.0685,2.0677,2.0618,2.0509,2.0441,2.0407,2.0339,2.0254,2.0185,1.8967,1.7955,1.7815,1.6759,1.5814,1.5814,1.5814,1.5814,1.5814,1.5814,1.5814,1.5814,1.5814,1.5814,2.8662,2.8795,2.8804,2.8516,2.8007,2.787,2.7337,2.6511,0.0,0.0,0.0,2.4199,2.416,2.411,2.4074,2.4016,2.3896,2.3834,2.381,2.3783,2.3652,2.3539,2.348,2.3256,2.3111,2.2995,2.2859,2.2712,2.2506,2.2515,2.2468,2.233,2.233,2.233,2.233,2.2377,2.1837,2.0696,2.0611,2.0619,2.0703,2.0711,2.0711,2.0711,2.0785,2.0809,2.0809,2.0825,2.088,2.0981,2.0996,2.1089,2.1278,2.1348,2.1475,2.1607,2.1669,2.2055,2.2813,2.2817,2.3025,2.3589,2.3304,2.3011,2.2825,2.2563,2.24,2.2396,2.2358,2.2319,2.2319,2.2319,2.2319,2.2319,2.2319,2.2254,2.2205,2.2115,2.1995,2.1848,2.1768,2.1648,2.1487,2.1411,2.1317,2.127,2.1247,2.1167,2.1095,2.0916,2.0752,2.0744,2.0718,2.0652,2.0527,2.0441,2.0373,2.0346,2.0193,2.0108,1.989,1.8882,1.7997,1.7874,1.6728,1.5956,1.5814,1.5814,1.5814,1.5814,1.5814,1.5814,1.5814,1.5814,1.5814,2.8696,2.8804,2.8804,2.8803,2.8764,2.809,2.7337,2.6548,2.5621,2.4841,2.4199,2.4199,2.418,2.4103,2.4054,2.3958,2.3896,2.3841,2.3774,2.3691,2.3585,2.3439,2.3313,2.3175,2.3045,2.291,2.2842,2.2747,2.2587,2.2596,2.2533,2.2487,2.2468,2.2451,2.2451,2.2487,2.2404,2.227,2.2199,2.2199,2.227,2.2279,2.2297,2.2367,2.2341,2.2367,2.2375,2.2367,2.2419,2.2487,2.2538,2.2638,2.2795,2.287,2.3032,2.3146,2.3222,2.3365,2.355,2.3512,2.3423,2.3342,2.3208,2.3045,2.2893,2.2589,2.2445,2.2487,2.2394,2.2319,2.2319,2.2319,2.2319,2.2319,2.2319,2.2262,2.2205,2.2185,2.2094,2.1907,2.1802,2.1759,2.1648,2.1595,2.155,2.1528,2.1497,2.1458,2.1262,2.1055,2.0917,2.0852,2.0769,2.0636,2.0535,2.0441,2.0381,2.0304,2.0185,2.008,2.0025,1.8909,1.7979,1.7762,1.6682,1.5956,1.5829,1.5814,1.5814,1.5814,1.5814,1.5814,1.5814,1.5814,1.5814,2.8703,2.8795,2.8834,2.8914,2.8957,2.8604,2.7998,2.7236,2.6851,2.5979,2.4898,2.4841,2.4545,2.4063,2.4016,2.3946,2.3864,2.4198,2.4329,2.4311,2.4569,2.4653,2.4544,2.4409,2.4287,2.4146,2.4065,2.3748,2.3241,2.3179,2.2954,2.254,2.2487,2.2487,2.2487,2.2533,2.2569,2.2614,2.256,2.2587,2.2632,2.2667,2.2659,2.2712,2.2738,2.2764,2.2756,2.279,2.2842,2.2919,2.2927,2.302,2.3135,2.3241,2.3369,2.3494,2.3571,2.3629,2.37,2.3629,2.3526,2.3313,2.3208,2.3086,2.2902,2.2677,2.2499,2.2506,2.2396,2.233,2.2319,2.2319,2.2319,2.2319,2.2319,2.2282,2.2245,2.2205,2.216,2.2077,2.1966,2.189,2.1819,2.1746,2.1686,2.1656,2.1612,2.155,2.1497,2.1246,2.1063,2.0934,2.0811,2.0711,2.0618,2.0483,2.0388,2.0346,2.0227,2.008,1.9945,1.9057,1.8349,1.776,1.6883,1.6234,1.5911,1.5814,1.5814,1.5814,1.5814,1.5814,1.5814,1.5814,1.5814,2.8767,2.8815,2.8863,2.8938,2.8984,2.8984,2.865,2.8099,2.8062,2.7264,2.6016,2.575,2.523,2.4591,2.4525,2.4472,2.442,2.4856,2.5075,2.5114,2.5544,2.5692,2.5596,2.5464,2.5338,2.5209,2.5116,2.4737,2.4078,2.4007,2.3573,2.286,2.2637,2.256,2.2569,2.2632,2.2667,2.2667,2.2667,2.2677,2.2703,2.2738,2.2721,2.2773,2.2773,2.2825,2.2842,2.2868,2.2936,2.2961,2.2986,2.307,2.316,2.3265,2.3327,2.3462,2.3539,2.3598,2.3643,2.3607,2.3494,2.3304,2.3241,2.3119,2.2902,2.2747,2.2587,2.2515,2.2432,2.2366,2.2319,2.2319,2.2319,2.2319,2.2319,2.2319,2.2291,2.2254,2.2214,2.2205,2.2106,2.2023,2.194,2.189,2.1819,2.1759,2.1664,2.1612,2.1612,2.1489,2.1277,2.1039,2.0909,2.0786,2.0718,2.0543,2.0415,2.0388,2.0227,2.0115,1.9911,1.9402,1.8635,1.7875,1.7167,1.6473,1.5934,1.5814,1.5814,1.5814,1.5814,1.5814,1.5814,1.5814,1.5814,2.8839,2.8888,2.891,2.8929,2.8984,2.8984,2.892,2.887,2.8865,2.8402,2.7502,2.6833,2.6374,2.6206,2.6142,2.6018,2.5905,2.591,2.5883,2.5877,2.5818,2.5736,2.5685,2.5508,2.5365,2.5354,2.5231,2.5175,2.4982,2.4853,2.4442,2.3693,2.3066,2.2764,2.2799,2.2833,2.2859,2.285,2.2868,2.2825,2.279,2.2833,2.2885,2.2885,2.2893,2.2885,2.2893,2.2885,2.2919,2.2919,2.297,2.3028,2.3111,2.3241,2.3354,2.3415,2.3462,2.3517,2.3508,2.3499,2.3462,2.3313,2.3241,2.3111,2.2936,2.2825,2.2703,2.2542,2.2432,2.2394,2.231,2.2319,2.2319,2.2319,2.2319,2.2319,2.2319,2.2291,2.2254,2.2214,2.2197,2.2152,2.2015,2.1969,2.194,2.189,2.1776,2.1716,2.1686,2.1612,2.1481,2.1285,2.1087,2.0877,2.0794,2.0636,2.0509,2.0415,2.0227,2.015,1.9951,1.9429,1.8676,1.7987,1.7237,1.651,1.6017,1.5814,1.5814,1.5814,1.5814,1.5814,1.5814,1.5814,1.5814,2.8872,2.8896,2.8952,2.8984,2.8984,2.8984,2.8984,2.8984,2.8984,2.8792,2.8521,2.8182,2.7449,2.6487,2.6407,2.634,2.6277,2.6631,2.6759,2.6754,2.7058,2.7184,2.7085,2.6947,2.6825,2.6705,2.6627,2.6321,2.5779,2.4943,2.429,2.3935,2.3232,2.2868,2.2859,2.2893,2.291,2.2952,2.2995,2.3036,2.3045,2.2977,2.2961,2.2961,2.3045,2.3061,2.3086,2.3128,2.3126,2.3135,2.3177,2.3184,2.3217,2.3313,2.336,2.3415,2.3462,2.3494,2.3494,2.3494,2.3471,2.3351,2.3289,2.3193,2.3036,2.2902,2.2799,2.2632,2.2533,2.2424,2.2349,2.2321,2.2319,2.2319,2.2319,2.2319,2.2319,2.2319,2.2291,2.2254,2.2254,2.2217,2.2143,2.2044,2.1982,2.1932,2.1861,2.1819,2.1819,2.1754,2.1634,2.1542,2.1309,2.1071,2.0909,2.0745,2.0628,2.0467,2.0365,2.027,2.0024,1.9463,1.8725,1.8019,1.7261,1.654,1.5926,1.5829,1.5814,1.5814,1.5814,1.5814,1.5814,1.5814,1.5814,2.8938,2.8938,2.8994,2.8984,2.8984,2.8984,2.8984,2.8984,2.8984,2.8984,2.8984,2.8984,2.8329,2.7299,2.7104,2.7027,2.7031,2.7429,2.7619,2.7615,2.804,2.8182,2.8135,2.8003,2.7891,2.7777,2.7645,2.7302,2.6641,2.5448,2.4671,2.4356,2.3685,2.3204,2.2995,2.2995,2.3028,2.3086,2.3135,2.3193,2.3232,2.3184,2.3119,2.3077,2.316,2.325,2.3232,2.3274,2.328,2.328,2.328,2.3321,2.3336,2.3383,2.343,2.3476,2.353,2.3562,2.3548,2.3539,2.3503,2.3424,2.336,2.3256,2.3111,2.3003,2.2893,2.2738,2.2623,2.2515,2.2413,2.2349,2.2338,2.2319,2.2319,2.2319,2.2319,2.2319,2.2319,2.2319,2.2291,2.2274,2.2225,2.2135,2.2052,2.2052,2.1978,2.192,2.1899,2.1827,2.1738,2.1686,2.1534,2.1293,2.1071,2.0877,2.0761,2.0628,2.0501,2.0346,2.0139,1.9516,1.8784,1.8068,1.7278,1.6563,1.5993,1.5821,1.5814,1.5814,1.5814,1.5814,1.5814,1.5814,1.5814,2.8984,2.8994,2.8984,2.8984,2.8984,2.8984,2.8984,2.8984,2.8984,2.8984,2.8984,2.8984,2.8938,2.8783,2.8602,2.8625,2.8548,2.8433,2.8366,2.8349,2.8344,2.8255,2.8191,2.8126,2.8062,2.7968,2.7864,2.7704,2.7451,2.6786,2.6067,2.525,2.4559,2.3906,2.3289,2.3241,2.3289,2.3265,2.3274,2.3324,2.3392,2.3439,2.3415,2.3304,2.3289,2.3313,2.3304,2.3304,2.3304,2.3304,2.3304,2.3336,2.3392,2.3462,2.3544,2.3665,2.3687,2.3656,2.3607,2.3594,2.353,2.3439,2.3407,2.3313,2.3144,2.3086,2.2986,2.2808,2.2729,2.2605,2.246,2.2405,2.2366,2.231,2.2319,2.2319,2.2319,2.2319,2.2319,2.2319,2.2319,2.2282,2.2282,2.2234,2.2197,2.216,2.2098,2.1978,2.1949,2.189,2.1848,2.1746,2.1686,2.1587,2.1317,2.1087,2.0885,2.0728,2.0569,2.0334,2.0099,1.9667,1.8854,1.8072,1.7212,1.654,1.6045,1.5814,1.5814,1.5814,1.5814,1.5814,1.5814,1.5814,1.5814,2.8984,2.8984,2.8984,2.8984,2.8984,2.8984,2.8984,2.8984,2.8984,2.8984,2.8984,2.8984,2.8984,2.8994,2.8905,2.8834,2.8761,2.8687,2.8578,2.8501,2.844,2.8406,2.8309,2.82,2.8154,2.81,2.7988,2.7902,2.7756,2.7088,2.6311,2.5517,2.4785,2.4076,2.3421,2.3336,2.3392,2.3424,2.348,2.3508,2.3607,2.3611,2.3611,2.3567,2.3567,2.3558,2.3567,2.3558,2.3576,2.3558,2.3544,2.3567,2.3589,2.3611,2.3665,2.37,2.3718,2.3687,2.3674,2.3674,2.3629,2.353,2.3485,2.3415,2.3289,2.3168,2.3061,2.2977,2.2833,2.2712,2.2614,2.2496,2.2394,2.2358,2.2347,2.2319,2.2319,2.2319,2.2319,2.2319,2.2319,2.2319,2.224,2.2265,2.2245,2.2245,2.218,2.2073,2.2061,2.1986,2.1857,2.1832,2.1776,2.1664,2.1511,2.1285,2.1079,2.086,2.0663,2.0223,1.989,1.9134,1.8315,1.7585,1.6871,1.6367,1.5835,1.5814,1.5814,1.5814,1.5814,1.5814,1.5814,1.5814,1.5814,2.8984,2.8984,2.8984,2.8984,2.8984,2.8984,2.8984,2.8984,2.8984,2.8984,2.8984,2.8984,2.8984,2.8984,2.897,2.8905,2.8834,2.8761,2.8678,2.8569,2.8552,2.8492,2.8415,2.8318,2.8255,2.8237,2.8164,2.8126,2.8064,2.7575,2.6748,2.5709,2.5209,2.4453,2.3631,2.3476,2.3522,2.3576,2.3629,2.3665,2.373,2.3728,2.3759,2.3747,2.3768,2.3765,2.3718,2.3718,2.3718,2.3709,2.3691,2.3682,2.3694,2.3703,2.3734,2.3734,2.3734,2.3734,2.373,2.3721,2.37,2.362,2.3594,2.3517,2.3439,2.3304,2.3166,2.3077,2.2986,2.2868,2.2738,2.2587,2.2487,2.2413,2.2358,2.231,2.231,2.2319,2.2319,2.2319,2.2319,2.2217,2.1989,2.1947,2.1786,2.1615,2.1537,2.1473,2.1437,2.1583,2.157,2.1574,2.1686,2.1713,2.1625,2.1448,2.1182,2.0958,2.0447,2.0041,1.9443,1.8594,1.7861,1.7135,1.656,1.6094,1.5863,1.5814,1.5814,1.5814,1.5814,1.5814,1.5814,1.5814,1.5814,2.8984,2.8984,2.8984,2.8984,2.8984,2.8984,2.8984,2.8984,2.8984,2.8984,2.8984,2.8984,2.8984,2.8984,2.8994,2.8961,2.8914,2.8834,2.8752,2.8678,2.8637,2.8578,2.8501,2.8432,2.8389,2.8389,2.8398,2.8362,2.8282,2.8201,2.7466,2.6177,2.5888,2.5087,2.3687,2.3687,2.3709,2.37,2.3703,2.3738,2.3768,2.3807,2.383,2.3896,2.3946,2.3894,2.373,2.373,2.373,2.3712,2.3676,2.3649,2.3732,2.3768,2.3789,2.3804,2.3804,2.381,2.3795,2.3804,2.3765,2.3709,2.3629,2.3585,2.3508,2.3426,2.3307,2.3175,2.3095,2.302,2.2842,2.2738,2.2605,2.2424,2.2413,2.2358,2.2319,2.2319,2.2319,2.231,2.2243,2.1955,2.1431,2.1194,2.0974,2.0466,2.028,2.0288,2.0337,2.0698,2.0896,2.0972,2.1104,2.1209,2.1419,2.1584,2.1314,2.0974,2.0321,1.9759,1.9022,1.8236,1.7543,1.6835,1.6385,1.5943,1.5835,1.5814,1.5814,1.5814,1.5814,1.5814,1.5814,1.5814,1.5814,2.8984,2.8984,2.8984,2.8984,2.8984,2.8984,2.8984,2.8984,2.8984,2.8984,2.8984,2.8984,2.8984,2.8984,2.8984,2.8975,2.8961,2.8938,2.8891,2.8785,2.8737,2.8703,2.8628,2.8571,2.8502,2.8406,2.8423,2.8379,2.8389,2.838,2.7589,2.6263,2.6,2.5197,2.379,2.3752,2.3765,2.3762,2.3804,2.3864,2.3924,2.3937,2.3948,2.3967,2.3996,2.3955,2.3924,2.3915,2.3905,2.3885,2.3885,2.3887,2.3896,2.3926,2.3915,2.3867,2.3867,2.3855,2.3813,2.3801,2.3789,2.3765,2.3748,2.3683,2.3594,2.3508,2.3412,2.3321,2.3193,2.3061,2.2995,2.2868,2.2712,2.256,2.2468,2.2405,2.2366,2.2347,2.2319,2.2234,2.1862,2.1448,2.1161,2.0813,2.0264,1.9985,1.9892,1.99,1.9976,2.0035,2.0201,2.0197,2.0394,2.0528,2.0582,2.055,2.0334,2.0164,1.9735,1.9229,1.8526,1.7846,1.7171,1.6657,1.6201,1.5979,1.585,1.5814,1.5814,1.5814,1.5814,1.5814,1.5814,1.5814,1.5814,2.8984,2.8984,2.8984,2.8984,2.8984,2.8984,2.8984,2.8984,2.8984,2.8984,2.8984,2.8984,2.8984,2.8984,2.8984,2.8984,2.8984,2.8984,2.8961,2.8876,2.8843,2.881,2.8737,2.8678,2.8628,2.8571,2.8569,2.8534,2.8536,2.8482,2.7714,2.6419,2.6143,2.5371,2.3982,2.385,2.3873,2.3867,2.3926,2.3955,2.4005,2.4025,2.4045,2.4045,2.4074,2.4083,2.4065,2.4065,2.4036,2.4007,2.3978,2.4025,2.4043,2.4005,2.3976,2.3946,2.3946,2.3926,2.3896,2.3896,2.3855,2.3841,2.3819,2.3765,2.3674,2.3585,2.3508,2.3415,2.328,2.3151,2.3095,2.297,2.2808,2.2685,2.2569,2.2451,2.2413,2.2338,2.2319,2.2175,2.1684,2.1152,2.0686,2.0103,1.9486,1.9275,1.9165,1.9174,1.9241,1.9377,1.9412,1.9546,1.9804,1.9816,1.9648,1.9498,1.9298,1.9159,1.8977,1.8516,1.7951,1.7358,1.6724,1.642,1.6006,1.5957,1.5856,1.5806,1.5814,1.5814,1.5814,1.5814,1.5814,1.5814,1.5814,2.8984,2.8984,2.8984,2.8984,2.8984,2.8984,2.8984,2.8984,2.8984,2.8984,2.8984,2.8984,2.8984,2.8984,2.8984,2.8984,2.8984,2.8984,2.8984,2.8961,2.8938,2.8881,2.881,2.8785,2.8761,2.877,2.8752,2.877,2.8737,2.8582,2.7929,2.6517,2.6208,2.5555,2.4249,2.3987,2.4005,2.3987,2.3996,2.4016,2.4007,2.4065,2.4122,2.4104,2.4161,2.417,2.417,2.417,2.4113,2.4027,2.4007,2.4063,2.4071,2.4043,2.4016,2.4016,2.3996,2.4005,2.3987,2.3958,2.3976,2.3896,2.3855,2.3813,2.3765,2.3665,2.3585,2.3508,2.3392,2.3274,2.3135,2.3036,2.2936,2.2799,2.2667,2.2542,2.2422,2.2375,2.226,2.2082,2.1574,2.0822,2.0035,1.9316,1.8648,1.8192,1.8031,1.8084,1.816,1.8491,1.8704,1.8875,1.9035,1.8993,1.8807,1.8669,1.85,1.8347,1.8187,1.782,1.744,1.6913,1.6495,1.6177,1.5975,1.5926,1.5848,1.5835,1.5814,1.5814,1.5814,1.5814,1.5814,1.5814,1.5777,2.8984,2.8984,2.8984,2.8984,2.8984,2.8984,2.8984,2.8984,2.8984,2.8984,2.8984,2.8984,2.8984,2.8984,2.8984,2.8984,2.8984,2.8984,2.8984,2.8994,2.8994,2.8919,2.8881,2.8834,2.8819,2.8819,2.8819,2.8804,2.874,2.8254,2.7424,2.6412,2.5819,2.5053,2.4124,2.4007,2.4025,2.4056,2.4083,2.4094,2.4142,2.4161,2.418,2.417,2.419,2.4199,2.4199,2.4199,2.419,2.4151,2.4142,2.4151,2.4169,2.4151,2.4122,2.4074,2.4065,2.4045,2.4016,2.4007,2.3987,2.3967,2.3926,2.3864,2.3813,2.3765,2.3696,2.3585,2.3494,2.3383,2.3274,2.3135,2.2977,2.2799,2.2694,2.2569,2.2449,2.2377,2.218,2.1551,2.083,2.0111,1.9376,1.8657,1.8099,1.7856,1.7789,1.7789,1.7865,1.7907,1.8238,1.8002,1.8032,1.8051,1.7979,1.7873,1.7723,1.7575,1.7389,1.7152,1.6858,1.6534,1.628,1.6032,1.6004,1.5947,1.5856,1.5814,1.5814,1.5814,1.5814,1.5814,1.5814,1.5814,1.5741,2.8984,2.8984,2.8984,2.8984,2.8984,2.8984,2.8984,2.8984,2.8984,2.8984,2.8984,2.8984,2.8984,2.8984,2.8984,2.8984,2.8984,2.8984,2.8984,2.8984,2.8984,2.8975,2.8929,2.8881,2.8881,2.8891,2.8872,2.8891,2.8753,2.8068,2.7273,2.649,2.5673,2.4878,2.4167,2.4074,2.4094,2.4142,2.4151,2.4161,2.4199,2.4199,2.4199,2.4199,2.4199,2.4199,2.4199,2.4199,2.4199,2.4199,2.4199,2.4199,2.4199,2.4199,2.417,2.4142,2.4142,2.4122,2.4103,2.4074,2.4056,2.4045,2.3996,2.3946,2.3846,2.3822,2.3756,2.3696,2.3576,2.3462,2.3369,2.3217,2.3045,2.2859,2.2747,2.2597,2.2468,2.2422,2.2029,2.1288,2.05,1.9731,1.8978,1.8251,1.7881,1.7789,1.7789,1.7789,1.7797,1.7789,1.7766,1.7666,1.7597,1.7709,1.7714,1.7609,1.7519,1.7322,1.6998,1.6717,1.6525,1.6336,1.6171,1.6067,1.6032,1.5947,1.5885,1.5814,1.5814,1.5814,1.5814,1.5814,1.5814,1.5748,1.5675,2.8984,2.8984,2.8984,2.8984,2.8984,2.8984,2.8984,2.8984,2.8984,2.8984,2.8984,2.8984,2.8984,2.8984,2.8984,2.8984,2.8984,2.8984,2.8984,2.8984,2.8984,2.8984,2.8975,2.8975,2.8975,2.8984,2.8984,2.8883,2.8581,2.798,2.7227,2.6325,2.5575,2.4924,2.4299,2.419,2.419,2.419,2.4199,2.419,2.4199,2.4199,2.4199,2.4199,2.42,2.42,2.42,2.4209,2.42,2.4209,2.419,2.4199,2.4199,2.4199,2.4199,2.4199,2.419,2.419,2.4199,2.417,2.417,2.4122,2.4103,2.4045,2.3908,2.3864,2.381,2.3783,2.3638,2.3539,2.3424,2.3241,2.307,2.291,2.2808,2.2712,2.256,2.2451,2.2088,2.1288,2.0492,1.9748,1.8995,1.8318,1.7789,1.7789,1.7789,1.7789,1.7789,1.7789,1.7735,1.7635,1.7597,1.7582,1.7515,1.742,1.7338,1.7199,1.6863,1.6604,1.6479,1.6289,1.6179,1.6067,1.6004,1.5926,1.5835,1.5814,1.5814,1.5814,1.5814,1.5814,1.5814,1.5712,1.561,2.8984,2.8984,2.8984,2.8984,2.8984,2.8984,2.8957,2.8938,2.8948,2.8934,2.8966,2.8966,2.8984,2.8984,2.8984,2.8984,2.8984,2.8984,2.8984,2.8984,2.8984,2.8984,2.8984,2.8984,2.8984,2.8984,2.8984,2.8686,2.8071,2.7346,2.6447,2.5715,2.5006,2.4392,2.4245,2.4209,2.4199,2.4199,2.4199,2.4209,2.4209,2.4209,2.4209,2.4209,2.42,2.421,2.4219,2.4266,2.4266,2.4228,2.42,2.4209,2.4199,2.4199,2.4199,2.4199,2.4199,2.4199,2.4199,2.4199,2.4208,2.417,2.4132,2.4074,2.3987,2.3926,2.3852,2.3816,2.3718,2.3567,2.336,2.3193,2.3036,2.2936,2.2833,2.2738,2.2605,2.2523,2.2119,2.1359,2.0526,1.9706,1.8987,1.8259,1.7873,1.7814,1.7789,1.7789,1.7789,1.7789,1.7712,1.7635,1.7597,1.7582,1.7466,1.7346,1.7215,1.7083,1.6769,1.6517,1.6425,1.6297,1.6151,1.6067,1.6004,1.5934,1.5835,1.5814,1.5814,1.5814,1.5814,1.5814,1.5777,1.5675,1.5573,2.7879,2.7888,2.7866,2.7857,2.7888,2.7897,2.7879,2.7961,2.8319,2.8438,2.8539,2.8783,2.8975,2.8984,2.8984,2.8984,2.8984,2.8984,2.8984,2.8984,2.8984,2.8984,2.8984,2.8984,2.8984,2.8975,2.8984,2.8549,2.7787,2.6961,2.6227,2.5403,2.4575,2.4282,2.4209,2.4209,2.4228,2.4247,2.4238,2.4238,2.4238,2.4238,2.4238,2.4256,2.4257,2.4247,2.4257,2.4294,2.4266,2.4238,2.4238,2.4219,2.4199,2.4199,2.4199,2.4199,2.4199,2.4199,2.4199,2.4199,2.4199,2.4199,2.418,2.4103,2.4025,2.3967,2.3905,2.381,2.3734,2.3589,2.3327,2.3274,2.3119,2.2936,2.2859,2.2782,2.2659,2.256,2.2197,2.1394,2.0526,1.9739,1.8995,1.831,1.789,1.7789,1.7789,1.7789,1.7789,1.7789,1.7712,1.7635,1.7612,1.7559,1.7451,1.7314,1.7141,1.6973,1.6717,1.6525,1.6425,1.6262,1.6123,1.606,1.6004,1.5926,1.5856,1.5835,1.5814,1.5814,1.5814,1.5814,1.5748,1.5639,1.5573,2.6624,2.6603,2.6622,2.6612,2.6622,2.6667,2.6722,2.6778,2.7319,2.7622,2.7769,2.8466,2.8705,2.8806,2.8971,2.8984,2.8984,2.8984,2.8984,2.8984,2.8984,2.8984,2.8948,2.8833,2.8705,2.8824,2.8741,2.8282,2.7512,2.6787,2.5841,2.5192,2.4576,2.4228,2.422,2.422,2.4247,2.4275,2.4275,2.4284,2.4294,2.4294,2.4303,2.4294,2.4321,2.4321,2.4312,2.4339,2.4339,2.4321,2.433,2.4284,2.4228,2.4209,2.419,2.419,2.4199,2.4199,2.4199,2.4199,2.4199,2.4199,2.4199,2.4122,2.4036,2.3987,2.3935,2.3822,2.3703,2.3576,2.3327,2.328,2.316,2.2961,2.2876,2.2833,2.272,2.2596,2.2172,2.1624,2.0696,1.979,1.913,1.8479,1.8093,1.7789,1.7789,1.7789,1.7789,1.7758,1.7712,1.7643,1.7597,1.7512,1.7403,1.7215,1.7066,1.6889,1.6665,1.6532,1.6398,1.6234,1.6095,1.6032,1.5975,1.5898,1.5856,1.5835,1.5814,1.5814,1.5814,1.5785,1.5712,1.561,1.5544,2.6668,2.6684,2.6694,2.6643,2.6594,2.6594,2.6521,2.6622,2.6686,2.6796,2.6915,2.764,2.7989,2.8126,2.876,2.8948,2.8861,2.8952,2.8971,2.8925,2.8897,2.8888,2.8659,2.8209,2.8007,2.8007,2.7915,2.7475,2.6778,2.5979,2.5338,2.4587,2.4293,2.422,2.4266,2.4294,2.4284,2.4321,2.433,2.4312,2.4321,2.4311,2.4329,2.4339,2.4375,2.4403,2.4403,2.4438,2.4438,2.4385,2.4394,2.4339,2.4284,2.4229,2.42,2.42,2.419,2.4199,2.4199,2.4199,2.4199,2.4199,2.4199,2.4142,2.4036,2.3978,2.3915,2.3816,2.3687,2.3539,2.3327,2.328,2.3168,2.2986,2.2876,2.2842,2.272,2.257,2.2436,2.2059,2.0985,1.9917,1.936,1.8758,1.82,1.7873,1.7789,1.7789,1.7789,1.7758,1.7681,1.7612,1.7551,1.745,1.733,1.7141,1.6964,1.6837,1.6639,1.6479,1.6344,1.6214,1.6095,1.6032,1.5955,1.5885,1.5863,1.5814,1.5814,1.5814,1.5785,1.5777,1.5675,1.5573,1.5507,2.5446,2.5445,2.5454,2.5445,2.5397,2.5425,2.5397,2.5441,2.5818,2.6,2.6229,2.6801,2.7175,2.7285,2.7524,2.7938,2.8365,2.8879,2.876,2.8521,2.8383,2.8117,2.7879,2.7337,2.7218,2.7053,2.6778,2.642,2.5979,2.568,2.4973,2.4404,2.4229,2.4275,2.433,2.4367,2.4384,2.4393,2.441,2.4419,2.4454,2.4434,2.4444,2.4462,2.4481,2.4507,2.4515,2.4524,2.4506,2.4462,2.4445,2.4429,2.4375,2.4321,2.4266,2.4228,2.42,2.4199,2.4199,2.4199,2.4199,2.4199,2.418,2.4103,2.4016,2.3958,2.3882,2.3774,2.3629,2.3494,2.3313,2.325,2.3103,2.2944,2.2859,2.2782,2.2659,2.2552,2.2497,2.2392,2.1477,2.0534,1.9833,1.9164,1.8378,1.8014,1.7822,1.7789,1.7789,1.7726,1.7673,1.7574,1.7489,1.7386,1.7257,1.7091,1.6905,1.6751,1.6612,1.6452,1.6309,1.6179,1.6095,1.6004,1.5926,1.5856,1.5835,1.5814,1.5814,1.5814,1.5814,1.5777,1.5646,1.5544,1.5477,2.4339,2.4321,2.4312,2.4312,2.4303,2.4312,2.4303,2.4376,2.4966,2.5223,2.5314,2.5987,2.6392,2.6434,2.6648,2.7025,2.7625,2.825,2.8048,2.7721,2.7579,2.7221,2.6796,2.642,2.6346,2.6245,2.5614,2.5256,2.5469,2.5222,2.4809,2.4441,2.4303,2.4348,2.4411,2.4438,2.4472,2.4513,2.4512,2.4545,2.458,2.4589,2.4599,2.4599,2.4599,2.4599,2.4582,2.4582,2.4573,2.4521,2.4495,2.447,2.4429,2.4412,2.4349,2.4257,2.4219,2.42,2.4199,2.4199,2.4199,2.4199,2.4133,2.4065,2.4005,2.3905,2.381,2.3669,2.3544,2.3415,2.3289,2.316,2.3045,2.2944,2.2842,2.2773,2.2641,2.2542,2.2487,2.222,2.1705,2.1008,2.0179,1.9333,1.8504,1.7989,1.7789,1.7789,1.7789,1.7704,1.7627,1.7527,1.7426,1.7297,1.7183,1.704,1.6845,1.6683,1.6551,1.639,1.6254,1.6116,1.606,1.5975,1.5906,1.5835,1.5806,1.5814,1.5814,1.5814,1.5814,1.5748,1.5617,1.5522,1.5455,2.4429,2.4394,2.4394,2.4358,2.4303,2.4303,2.4284,2.4303,2.445,2.4441,2.4561,2.5235,2.5631,2.576,2.6368,2.67,2.6864,2.7066,2.7103,2.6855,2.6816,2.6694,2.6482,2.5844,2.5596,2.5469,2.4779,2.4863,2.5085,2.4717,2.445,2.4349,2.4375,2.442,2.4479,2.4489,2.453,2.4589,2.4596,2.4603,2.4603,2.4622,2.4606,2.4606,2.4606,2.4622,2.4622,2.4622,2.4606,2.458,2.4528,2.4495,2.4487,2.4447,2.4403,2.4339,2.4275,2.4191,2.42,2.4199,2.4199,2.419,2.4122,2.4065,2.3955,2.3831,2.37,2.353,2.3462,2.336,2.3232,2.3144,2.3045,2.2919,2.2816,2.2738,2.2614,2.2523,2.2468,2.2405,2.2,2.1185,2.0339,1.9477,1.864,1.8166,1.7789,1.7789,1.7766,1.7681,1.7566,1.7473,1.7386,1.7248,1.71,1.6956,1.6785,1.6588,1.6463,1.6336,1.6199,1.6088,1.5983,1.5934,1.5856,1.5835,1.5806,1.5814,1.5814,1.5814,1.5814,1.569,1.5558,1.5492,1.5433,2.4532,2.4506,2.4472,2.4454,2.4428,2.4419,2.4403,2.4358,2.4367,2.4339,2.4358,2.4617,2.482,2.5041,2.5659,2.601,2.6121,2.6453,2.6407,2.6074,2.599,2.5787,2.5298,2.4984,2.48,2.4726,2.4496,2.4478,2.4663,2.4598,2.4358,2.4385,2.4428,2.4489,2.4521,2.4528,2.4587,2.4645,2.4682,2.4713,2.4713,2.4723,2.4717,2.4717,2.4698,2.4707,2.4717,2.4711,2.4686,2.467,2.4622,2.4564,2.453,2.4489,2.4437,2.4385,2.4321,2.4257,2.4191,2.4209,2.4199,2.4161,2.4094,2.3976,2.3882,2.3777,2.3634,2.3508,2.3392,2.328,2.3151,2.3061,2.2961,2.2859,2.2764,2.2659,2.2587,2.2487,2.2422,2.2366,2.2271,2.1515,2.077,2.0044,1.9216,1.853,1.8033,1.7758,1.7712,1.762,1.7521,1.7435,1.7338,1.7232,1.7049,1.6889,1.6699,1.6517,1.6402,1.6281,1.6143,1.6039,1.5962,1.5913,1.5863,1.5842,1.5814,1.5814,1.5814,1.5814,1.5814,1.5683,1.5558,1.5485,1.5389,2.4645,2.4638,2.4554,2.4521,2.4512,2.4523,2.449,2.4465,2.4465,2.4429,2.4375,2.4412,2.4412,2.4495,2.4995,2.531,2.5329,2.5893,2.5745,2.5402,2.5171,2.4922,2.4644,2.4377,2.4349,2.4303,2.4377,2.4395,2.4422,2.442,2.4419,2.4438,2.4461,2.4538,2.4554,2.4603,2.466,2.4713,2.4789,2.4827,2.4827,2.4832,2.4827,2.4827,2.4827,2.4818,2.4813,2.4793,2.4763,2.4742,2.4695,2.4638,2.4582,2.4521,2.4479,2.4419,2.4348,2.4284,2.4238,2.4219,2.4209,2.4161,2.4074,2.3953,2.3777,2.3712,2.3603,2.3453,2.3369,2.3241,2.3086,2.2961,2.291,2.2808,2.2685,2.2587,2.2506,2.2432,2.2394,2.2347,2.226,2.2099,2.1378,2.0693,1.9909,1.902,1.8397,1.7828,1.7635,1.7559,1.7458,1.7354,1.7265,1.7158,1.6999,1.6803,1.6604,1.6471,1.6328,1.6219,1.6116,1.6011,1.5934,1.5885,1.5842,1.5814,1.5814,1.5814,1.5814,1.5777,1.577,1.5654,1.5558,1.5485,1.5329,2.4793,2.4768,2.4645,2.4599,2.4608,2.4599,2.4599,2.4582,2.4582,2.4573,2.4556,2.4573,2.4556,2.4594,2.4642,2.4745,2.4696,2.4662,2.4748,2.4695,2.4512,2.455,2.4393,2.4357,2.4321,2.433,2.4375,2.4403,2.4411,2.4472,2.4487,2.4504,2.4519,2.4594,2.4651,2.4707,2.4763,2.4813,2.488,2.4908,2.4898,2.4912,2.4916,2.4898,2.4894,2.488,2.4813,2.4837,2.4832,2.4796,2.4742,2.4695,2.4647,2.4554,2.4504,2.4453,2.4366,2.4312,2.4275,2.4238,2.4199,2.4189,2.4101,2.3951,2.3743,2.3658,2.3526,2.3374,2.3321,2.3201,2.307,2.2936,2.2859,2.2764,2.2632,2.256,2.2479,2.2424,2.2358,2.2319,2.2251,2.2113,2.1807,2.1088,2.028,1.9385,1.8242,1.7658,1.7566,1.7457,1.7394,1.7289,1.7183,1.7057,1.6922,1.6725,1.6543,1.6417,1.6289,1.6171,1.606,1.5955,1.5913,1.5863,1.5814,1.5814,1.5814,1.5814,1.5806,1.577,1.5704,1.5617,1.5455,1.5292,1.5149,2.4874,2.4855,2.4818,2.4763,2.472,2.467,2.466,2.4679,2.466,2.4654,2.4666,2.4666,2.465,2.4624,2.4599,2.4599,2.4589,2.458,2.4554,2.4547,2.4532,2.4524,2.4506,2.4489,2.4489,2.4472,2.4515,2.4515,2.4523,2.4547,2.4587,2.4594,2.461,2.4642,2.4698,2.4807,2.4899,2.4927,2.4982,2.5008,2.5021,2.5021,2.5034,2.5031,2.5012,2.4985,2.4926,2.4931,2.4903,2.4861,2.4802,2.4751,2.4704,2.4622,2.4547,2.4504,2.4393,2.433,2.4284,2.4228,2.417,2.4083,2.4043,2.3951,2.3721,2.3664,2.3531,2.3398,2.3289,2.3201,2.2961,2.291,2.2842,2.2712,2.2614,2.2506,2.246,2.2377,2.2358,2.2319,2.2291,2.224,2.1891,2.1448,2.0599,1.9715,1.8531,1.7551,1.748,1.7394,1.7314,1.7216,1.71,1.694,1.6803,1.6623,1.6474,1.6355,1.6242,1.6123,1.6011,1.5962,1.5892,1.5842,1.5814,1.5814,1.5814,1.5814,1.5777,1.5733,1.5675,1.5558,1.5359,1.5165,1.4996,2.4964,2.4952,2.4966,2.4913,2.4807,2.4753,2.4719,2.4729,2.4738,2.4732,2.4739,2.4729,2.4695,2.467,2.467,2.467,2.466,2.4645,2.4629,2.4613,2.4606,2.4606,2.4599,2.4589,2.4573,2.4589,2.4599,2.4589,2.4573,2.4615,2.4645,2.4692,2.4763,2.4793,2.4832,2.4936,2.5046,2.504,2.5057,2.5085,2.5095,2.5117,2.5095,2.5095,2.5073,2.506,2.5012,2.4995,2.4959,2.4903,2.4846,2.4796,2.4736,2.4663,2.4589,2.4523,2.4454,2.4375,2.4294,2.4228,2.4142,2.4045,2.4007,2.3903,2.3765,2.3669,2.3535,2.3351,2.3289,2.3193,2.2927,2.2885,2.2816,2.2685,2.256,2.2487,2.2413,2.2366,2.2338,2.2319,2.2291,2.2245,2.1911,2.1443,2.0433,1.9638,1.8751,1.7829,1.7434,1.7322,1.7232,1.7133,1.7024,1.6855,1.6649,1.6535,1.6429,1.6274,1.6151,1.6083,1.597,1.5921,1.5863,1.5842,1.5814,1.5814,1.5806,1.5806,1.577,1.5733,1.561,1.5492,1.5314,1.5118,1.4959,2.5009,2.5082,2.5019,2.4926,2.4738,2.4823,2.4794,2.4818,2.4818,2.4813,2.4817,2.4822,2.4798,2.4783,2.4783,2.4774,2.4759,2.4723,2.4707,2.4682,2.467,2.4622,2.4622,2.4622,2.4638,2.4606,2.4622,2.4638,2.4622,2.466,2.4698,2.4768,2.4899,2.4964,2.4987,2.5053,2.5079,2.5092,2.5088,2.5103,2.5115,2.5158,2.5149,2.5115,2.5103,2.511,2.5082,2.5047,2.4999,2.4959,2.488,2.4832,2.4781,2.4679,2.4606,2.4573,2.4464,2.4385,2.4312,2.4238,2.4133,2.4016,2.3978,2.3903,2.3743,2.3656,2.3544,2.336,2.3307,2.3153,2.2986,2.2876,2.2782,2.2632,2.2533,2.246,2.2386,2.2347,2.2319,2.2291,2.2234,2.2126,2.1863,2.1342,2.0294,1.9441,1.8784,1.8145,1.7552,1.7265,1.7174,1.7024,1.6914,1.6743,1.657,1.6463,1.6355,1.6226,1.6095,1.6019,1.5949,1.5871,1.5842,1.5814,1.5814,1.5814,1.5806,1.577,1.5704,1.561,1.5492,1.5366,1.5216,1.5065,1.488,2.3508,2.3507,2.3507,2.3484,2.3593,2.4588,2.4985,2.4995,2.4985,2.4972,2.4949,2.494,2.4898,2.487,2.4856,2.4847,2.4794,2.4789,2.4774,2.4759,2.4738,2.4744,2.4719,2.4723,2.4723,2.4732,2.4732,2.4732,2.4742,2.4768,2.4822,2.4903,2.4995,2.5038,2.5057,2.5095,2.511,2.5156,2.517,2.5174,2.5177,2.5198,2.5187,2.5153,2.5153,2.5149,2.512,2.5085,2.506,2.5021,2.4945,2.4899,2.4817,2.4707,2.4645,2.4606,2.4506,2.4401,2.4321,2.4238,2.4143,2.4047,2.3987,2.3933,2.3795,2.3691,2.3567,2.3415,2.3321,2.3168,2.297,2.2902,2.2799,2.2605,2.2479,2.2405,2.2366,2.2347,2.2291,2.2299,2.2262,2.2094,2.1877,2.1595,2.0663,1.9731,1.9092,1.8175,1.746,1.7231,1.7091,1.6889,1.6743,1.6604,1.649,1.6382,1.6274,1.6143,1.606,1.5983,1.5913,1.5842,1.5814,1.5814,1.5814,1.5814,1.577,1.5704,1.5573,1.5448,1.5366,1.5269,1.5111,1.4966,1.4794,2.2738,2.2738,2.2699,2.2709,2.2862,2.3818,2.4238,2.4229,2.4226,2.4325,2.4512,2.4569,2.4746,2.4881,2.4963,2.4959,2.4898,2.4884,2.488,2.4856,2.4832,2.4808,2.4794,2.4766,2.4798,2.4789,2.4794,2.4813,2.4837,2.4851,2.4922,2.5012,2.5088,2.5113,2.5134,2.5137,2.5141,2.5185,2.5198,2.52,2.5201,2.5201,2.521,2.52,2.5198,2.5166,2.516,2.5134,2.511,2.506,2.5018,2.4973,2.4865,2.4768,2.4692,2.4629,2.453,2.4445,2.4348,2.4247,2.4172,2.4094,2.4045,2.3944,2.3819,2.3734,2.3611,2.3476,2.3351,2.316,2.2995,2.2927,2.2808,2.2605,2.2479,2.2432,2.2358,2.2338,2.2291,2.2262,2.218,2.204,2.1878,2.1635,2.1184,2.0303,1.9452,1.8461,1.7496,1.7194,1.6964,1.6777,1.6631,1.6517,1.6409,1.6336,1.6199,1.606,1.6011,1.5962,1.5877,1.5835,1.5806,1.5814,1.5806,1.577,1.5704,1.561,1.5514,1.5359,1.5239,1.5142,1.5006,1.4866,1.4732,2.2697,2.2714,2.266,2.2556,2.2585,2.2545,2.2589,2.2652,2.2608,2.3072,2.3767,2.3781,2.4067,2.4764,2.4905,2.4784,2.4686,2.468,2.4615,2.4627,2.4382,2.4478,2.4478,2.4464,2.4308,2.4478,2.453,2.4336,2.4766,2.4972,2.5047,2.5088,2.5149,2.5184,2.5195,2.5197,2.5209,2.522,2.5221,2.5222,2.5222,2.5213,2.5222,2.5232,2.5231,2.52,2.5197,2.5193,2.5158,2.5098,2.5044,2.5014,2.4936,2.4817,2.4738,2.4651,2.4556,2.4481,2.4403,2.4303,2.421,2.4143,2.4074,2.3937,2.3834,2.3747,2.3634,2.3499,2.3374,2.3217,2.3045,2.2944,2.2816,2.2667,2.2533,2.2451,2.2405,2.233,2.2282,2.2189,2.2061,2.1928,2.1768,2.1565,2.1313,2.0657,1.9755,1.8873,1.7944,1.7055,1.6849,1.6639,1.6517,1.6421,1.6348,1.6262,1.6151,1.6019,1.597,1.5913,1.5856,1.5799,1.5806,1.5806,1.5799,1.5733,1.5639,1.5544,1.5455,1.5306,1.5179,1.5058,1.4921,1.4811,1.4669,2.1015,2.1003,2.1003,2.0987,2.098,2.0967,2.1578,2.2574,2.265,2.2831,2.3023,2.3013,2.3231,2.3303,2.3301,2.3336,2.3313,2.3232,2.3182,2.3265,2.3483,2.3271,2.324,2.3322,2.3234,2.324,2.3329,2.3651,2.4185,2.465,2.5084,2.5158,2.5197,2.523,2.5251,2.5271,2.5282,2.5272,2.5253,2.5253,2.5263,2.5264,2.5263,2.5262,2.5262,2.5241,2.522,2.5208,2.5184,2.5168,2.5114,2.5063,2.4987,2.4889,2.4803,2.4692,2.4589,2.4489,2.4446,2.4385,2.4303,2.421,2.4143,2.4045,2.3905,2.3768,2.3678,2.3544,2.3398,2.3241,2.3086,2.2961,2.2842,2.272,2.2587,2.2487,2.2405,2.233,2.2282,2.2152,2.2023,2.184,2.1678,2.1518,2.1224,2.0687,2.0032,1.9188,1.8255,1.7321,1.6725,1.6514,1.6417,1.6328,1.6254,1.6166,1.6055,1.597,1.5921,1.5863,1.5835,1.5806,1.5814,1.5777,1.5733,1.5639,1.5544,1.5455,1.5374,1.5246,1.5126,1.5004,1.4873,1.4725,1.4574,2.0326,2.0326,2.0341,2.034,2.0298,2.0294,2.0922,2.1671,2.1712,2.1876,2.2211,2.2211,2.2374,2.2698,2.2726,2.2725,2.2702,2.2778,2.2759,2.2756,2.248,2.266,2.2593,2.2486,2.2646,2.253,2.2589,2.2974,2.3526,2.4247,2.4755,2.5187,2.5212,2.5253,2.5283,2.5312,2.5341,2.5341,2.5322,2.5312,2.5303,2.5303,2.5293,2.5312,2.5302,2.5282,2.5252,2.5231,2.5228,2.5212,2.5154,2.5117,2.5044,2.4972,2.4851,2.4732,2.4651,2.4564,2.4506,2.4482,2.4366,2.4266,2.4209,2.4113,2.3976,2.3831,2.3734,2.3634,2.3453,2.3289,2.3126,2.3003,2.2885,2.2773,2.2623,2.2496,2.2413,2.2358,2.2237,2.2106,2.1953,2.1776,2.1595,2.1411,2.1189,2.0821,2.02,1.9337,1.835,1.7314,1.6737,1.6409,1.6336,1.6262,1.6166,1.609,1.6006,1.5921,1.5871,1.5842,1.5814,1.5777,1.577,1.5704,1.5639,1.5544,1.5485,1.5403,1.5321,1.5163,1.5004,1.4873,1.4742,1.4648,1.4465,2.0415,2.0395,2.0412,2.0359,2.0325,2.0315,2.036,2.0301,2.0404,2.0662,2.1318,2.1415,2.1741,2.2058,2.2135,2.2163,2.2077,2.2077,2.2029,2.2478,2.2124,2.2057,2.2075,2.2351,2.195,2.2218,2.2343,2.2143,2.2766,2.362,2.4561,2.5107,2.5273,2.5312,2.5322,2.5361,2.5379,2.5379,2.5341,2.5322,2.5322,2.5322,2.5313,2.5322,2.5332,2.5322,2.5302,2.5282,2.5271,2.5238,2.5193,2.5158,2.5085,2.5021,2.4889,2.4802,2.4707,2.4645,2.4564,2.4506,2.4446,2.4339,2.4247,2.4161,2.4045,2.3876,2.3759,2.3678,2.3499,2.336,2.3208,2.3028,2.291,2.2773,2.2649,2.2542,2.246,2.2341,2.2155,2.2032,2.1865,2.1694,2.1603,2.1427,2.1215,2.0927,2.0281,1.9397,1.8496,1.7446,1.6803,1.6386,1.6226,1.6159,1.609,1.6013,1.5964,1.5879,1.5842,1.5814,1.5814,1.5777,1.5733,1.5639,1.5573,1.5485,1.5403,1.5351,1.5231,1.5034,1.4873,1.4718,1.4585,1.449,1.4363,2.0463,2.0468,2.0424,2.0389,2.0384,2.0373,2.0361,2.0372,2.037,2.0452,2.059,2.0621,2.0714,2.1027,2.1085,2.1077,2.0993,2.1184,2.086,2.0955,2.0994,2.1176,2.089,2.11,2.0947,2.0774,2.086,2.1338,2.2104,2.3197,2.4139,2.4456,2.4927,2.5378,2.5369,2.5406,2.5405,2.5404,2.5386,2.5368,2.5378,2.5369,2.537,2.5369,2.5369,2.537,2.5351,2.5322,2.5301,2.527,2.5225,2.5166,2.5114,2.504,2.4977,2.4903,2.4802,2.4707,2.4645,2.4564,2.4489,2.4419,2.4339,2.4256,2.4113,2.3917,2.3762,2.3682,2.3567,2.343,2.3265,2.3086,2.2936,2.279,2.2676,2.2569,2.2487,2.2296,2.2081,2.1936,2.1776,2.1672,2.1559,2.1381,2.1199,2.0719,2.0083,1.9358,1.864,1.7731,1.6957,1.6509,1.6189,1.6075,1.6006,1.5957,1.59,1.5842,1.5814,1.5814,1.5814,1.5712,1.5639,1.5544,1.5477,1.5403,1.5351,1.5261,1.514,1.4942,1.4756,1.4599,1.4447,1.4351,1.4248,1.9383,1.9336,1.9322,1.9531,1.9837,1.9862,2.0046,2.0355,2.0388,2.0381,2.0331,2.0311,2.0294,2.0294,2.0296,2.0296,2.0264,2.0283,2.0417,2.0321,2.0236,2.034,2.0254,2.0256,2.036,2.0254,2.031,2.0797,2.1612,2.2718,2.3633,2.417,2.493,2.544,2.5448,2.5439,2.5437,2.5453,2.5435,2.5445,2.5437,2.5422,2.5396,2.5387,2.5387,2.5388,2.5379,2.5351,2.5341,2.5291,2.5227,2.5191,2.5141,2.5104,2.5031,2.4987,2.4894,2.4774,2.4713,2.4635,2.4547,2.4498,2.4456,2.4358,2.419,2.3996,2.3894,2.3786,2.362,2.3485,2.3289,2.3111,2.2986,2.2842,2.2667,2.2515,2.236,2.2203,2.2073,2.1978,2.1827,2.165,2.1505,2.1326,2.1135,2.0925,2.0225,1.9655,1.8921,1.8146,1.7355,1.6663,1.6352,1.608,1.5949,1.5892,1.5827,1.5806,1.5777,1.5741,1.5704,1.561,1.5544,1.5455,1.5403,1.5351,1.5268,1.5147,1.5018,1.4856,1.4669,1.4479,1.4326,1.4203,1.4066,1.8035,1.7917,1.7949,1.8355,1.9019,1.9183,1.9588,2.0172,2.0371,2.041,2.0409,2.0365,2.0325,2.0305,2.0308,2.0317,2.032,2.0323,2.0313,2.032,2.031,2.0313,2.0323,2.0313,2.0304,2.031,2.0327,2.072,2.1316,2.248,2.3463,2.4164,2.4851,2.5517,2.5515,2.5512,2.55,2.549,2.5498,2.5498,2.5483,2.5451,2.5427,2.5403,2.5395,2.5415,2.5406,2.5388,2.537,2.5332,2.5261,2.5216,2.5191,2.5144,2.5104,2.504,2.4996,2.4899,2.4793,2.4713,2.4622,2.4568,2.4543,2.443,2.4238,2.4122,2.4003,2.385,2.37,2.353,2.3336,2.316,2.3036,2.2859,2.2659,2.246,2.2304,2.2138,2.2064,2.1998,2.1819,2.165,2.1466,2.1263,2.1095,2.0893,2.0563,2.0028,1.9429,1.8653,1.7868,1.7099,1.6524,1.6268,1.5967,1.5856,1.5799,1.5733,1.5704,1.5668,1.561,1.5492,1.5433,1.5374,1.5321,1.5201,1.5117,1.4994,1.4871,1.4732,1.4581,1.439,1.4164,1.4007,1.3908,1.8002,1.7973,1.7971,1.809,1.8315,1.89,1.9299,1.9544,2.02,2.049,2.0482,2.0473,2.0439,2.0388,2.0372,2.0372,2.036,2.037,2.0373,2.0373,2.036,2.0379,2.0389,2.0386,2.0386,2.0382,2.0379,2.052,2.1132,2.2262,2.3037,2.3382,2.4913,2.5473,2.5511,2.5511,2.5509,2.5515,2.5515,2.5515,2.5509,2.5492,2.5476,2.5464,2.547,2.5474,2.5458,2.5423,2.5396,2.5369,2.5332,2.5271,2.5217,2.5193,2.5134,2.5095,2.5063,2.4996,2.4899,2.4768,2.4695,2.465,2.4584,2.4456,2.4312,2.42,2.4074,2.3924,2.3756,2.3598,2.3415,2.3256,2.3102,2.285,2.265,2.2515,2.2377,2.2175,2.2036,2.192,2.1759,2.1587,2.1402,2.123,2.1038,2.0843,2.0662,2.0133,1.958,1.8931,1.8343,1.7636,1.6856,1.6285,1.5918,1.5821,1.5762,1.5697,1.561,1.5551,1.547,1.5388,1.5298,1.5238,1.5133,1.5034,1.4918,1.4801,1.4644,1.4511,1.4422,1.4268,1.404,1.3841,1.3741]},{"header":{"parameterUnit":"m.s-1","parameterCategory":1,"la1":31.0,"la2":29.5877,"lo1":-88.7671,"lo2":-86.6584,"dy":0.0162,"dx":0.0185,"nx":115,"ny":88,"refTime":"2023-07-25T06:00:00:Z","depth":0,"parameterNumber":3,"parameterNumberName":"V-component_of_WINDS"},"data":[0.0,0.0,0.0,0.0,0.0,0.0,0.0,0.0,0.0,0.0,0.0,0.0,0.0,0.0,0.0,0.0,0.0,0.0,0.0,0.0,0.0,0.0,0.0,0.0,0.0,0.0,0.0,0.0,0.0,0.0,0.0,0.0,0.0,0.0,0.0,0.0,0.0,0.0,0.0,0.0,0.0,0.0,0.0,0.0,0.0,0.0,0.0,0.0,0.0,0.0,0.0,0.0,0.0,0.0,0.0,0.0,0.0,0.0,0.0,0.0,0.0,0.0,0.0,0.0,0.0,0.0,0.0,0.0,0.0,0.0,0.0,0.0,0.0,0.0,0.0,0.0,0.0,0.0,0.0,0.0,0.0,0.0,0.0,0.0,0.0,0.0,0.0,0.0,0.0,0.0,0.0,0.0,0.0,0.0,0.0,0.0,0.0,0.0,0.0,0.0,0.0,0.0,0.0,0.0,0.0,0.0,0.0,0.0,0.0,0.0,0.0,0.0,0.0,0.0,0.0,0.0,0.0,0.0,0.0,0.0,0.0,0.0,0.0,0.0,0.0,0.0,0.0,0.0,0.0,0.0,0.0,0.0,0.0,0.0,0.0,0.0,0.0,0.0,0.0,0.0,0.0,0.0,0.0,0.0,0.0,0.0,0.0,0.0,0.0,0.0,0.0,0.0,0.0,0.0,0.0,0.0,0.0,0.0,0.0,0.0,0.0,0.0,0.0,0.0,0.0,0.0,0.0,0.0,0.0,0.0,0.0,0.0,0.0,0.0,0.0,0.0,0.0,0.0,0.0,0.0,0.0,0.0,0.0,0.0,0.0,0.0,0.0,0.0,0.0,0.0,0.0,0.0,0.0,0.0,0.0,0.0,0.0,0.0,0.0,0.0,0.0,0.0,0.0,0.0,0.0,0.0,0.0,0.0,0.0,0.0,0.0,0.0,0.0,0.0,0.0,0.0,0.0,0.0,0.0,0.0,0.0,0.0,0.0,0.0,0.0,0.0,0.0,0.0,0.0,0.0,0.0,0.0,0.0,0.0,0.0,0.0,0.0,0.0,0.0,0.0,0.0,0.0,0.0,0.0,0.0,0.0,0.0,0.0,0.0,0.0,0.0,0.0,0.0,0.0,0.0,0.0,0.0,0.0,0.0,0.0,0.0,0.0,0.0,0.0,0.0,0.0,0.0,0.0,0.0,0.0,0.0,0.0,0.0,0.0,0.0,0.0,0.0,0.0,0.0,0.0,0.0,0.0,0.0,0.0,0.0,0.0,0.0,0.0,0.0,0.0,0.0,0.0,0.0,0.0,0.0,0.0,0.0,0.0,0.0,0.0,0.0,0.0,0.0,0.0,0.0,0.0,0.0,0.0,0.0,0.0,0.0,0.0,0.0,0.0,0.0,0.0,0.0,0.0,0.0,0.0,0.0,0.0,0.0,0.0,0.0,0.0,0.0,0.0,0.0,0.0,0.0,0.0,0.0,0.0,0.0,0.0,0.0,0.0,0.0,0.0,0.0,0.0,0.0,0.0,0.0,0.0,0.0,0.0,0.0,0.0,0.0,0.0,0.0,0.0,0.0,0.0,0.0,0.0,0.0,0.0,0.0,0.0,0.0,0.0,0.0,0.0,0.0,0.0,0.0,0.0,0.0,0.0,0.0,0.0,0.0,0.0,0.0,0.0,0.0,0.0,0.0,0.0,0.0,0.0,0.0,0.0,0.0,0.0,0.0,0.0,0.0,0.0,0.0,0.0,0.0,0.0,0.0,0.0,0.0,0.0,0.0,0.0,0.0,0.0,0.0,0.0,0.0,0.0,0.0,0.0,0.0,0.0,0.0,0.0,0.0,0.0,0.0,0.0,0.0,0.0,0.0,0.0,0.0,0.0,0.0,0.0,0.0,0.0,0.0,0.0,0.0,0.0,0.0,0.0,0.0,0.0,0.0,0.0,0.0,0.0,0.0,0.0,0.0,0.0,0.0,0.0,0.0,0.0,0.0,0.0,0.0,0.0,0.0,0.0,0.0,0.0,0.0,0.0,0.0,0.0,0.0,0.0,0.0,0.0,0.0,0.0,0.0,0.0,0.0,0.0,0.0,0.0,0.0,0.0,0.0,0.0,0.0,0.0,0.0,0.0,0.0,0.0,0.0,0.0,0.0,0.0,0.0,0.0,0.0,0.0,0.0,0.0,0.0,0.0,0.0,0.0,0.0,0.0,0.0,0.0,0.0,0.0,0.0,0.0,0.0,0.0,0.0,0.0,0.0,0.0,0.0,0.0,0.0,0.0,0.0,0.0,0.0,0.0,0.0,0.0,0.0,0.0,0.0,0.0,0.0,0.0,0.0,0.0,0.0,0.0,0.0,0.0,0.0,0.0,0.0,0.0,0.0,0.0,0.0,0.0,0.0,0.0,0.0,0.0,0.0,0.0,0.0,0.0,0.0,0.0,0.0,0.0,0.0,0.0,0.0,0.0,0.0,0.0,0.0,0.0,0.0,0.0,0.0,0.0,0.0,0.0,0.0,0.0,0.0,0.0,0.0,0.0,0.0,0.0,0.0,0.0,0.0,0.0,0.0,0.0,0.0,0.0,0.0,0.0,0.0,0.0,0.0,0.0,0.0,0.0,0.0,0.0,0.0,0.0,0.0,0.0,0.0,0.0,0.0,0.0,0.0,0.0,0.0,0.0,0.0,0.0,0.0,0.0,0.0,0.0,0.0,0.0,0.0,0.0,0.0,0.0,0.0,0.0,0.0,0.0,0.0,0.0,0.0,0.0,0.0,0.0,0.0,0.0,0.0,0.0,0.0,0.0,0.0,0.0,0.0,0.0,0.0,0.0,0.0,0.0,0.0,0.0,0.0,0.0,0.0,0.0,0.0,0.0,0.0,0.0,0.0,0.0,0.0,0.0,0.0,0.0,0.0,0.0,0.0,0.0,0.0,0.0,0.0,0.0,0.0,0.0,0.0,0.0,0.0,0.0,0.0,0.0,0.0,0.0,0.0,0.0,0.0,0.0,0.0,0.0,0.0,0.0,0.0,0.0,0.0,0.0,0.0,0.0,0.0,0.0,0.0,0.0,0.0,0.0,0.0,0.0,0.0,0.0,0.0,0.0,0.0,0.0,0.0,0.0,0.0,0.0,0.0,0.0,0.0,0.0,0.0,0.0,0.0,0.0,0.0,0.0,0.0,0.0,0.0,0.0,0.0,0.0,0.0,0.0,0.0,0.0,0.0,0.0,0.0,0.0,0.0,0.0,0.0,0.0,0.0,0.0,0.0,0.0,0.0,0.0,0.0,0.0,0.0,0.0,0.0,0.0,0.0,0.0,0.0,0.0,0.0,0.0,0.0,0.0,0.0,0.0,0.0,0.0,0.0,0.0,0.0,0.0,0.0,0.0,0.0,0.0,0.0,0.0,0.0,0.0,0.0,0.0,0.0,0.0,0.0,0.0,0.0,0.0,0.0,0.0,0.0,0.0,0.0,0.0,0.0,0.0,0.0,0.0,0.0,0.0,0.0,0.0,0.0,0.0,0.0,0.0,0.0,0.0,0.0,0.0,0.0,0.0,0.0,0.0,0.0,0.0,0.0,0.0,0.0,0.0,0.0,0.0,0.0,0.0,0.0,0.0,0.0,0.0,0.0,0.0,0.0,0.0,0.0,0.0,0.0,0.0,0.0,0.0,0.0,0.0,0.0,0.0,0.0,0.0,0.0,0.0,0.0,0.0,0.0,0.0,0.0,0.0,0.0,0.0,0.0,0.0,0.0,0.0,0.0,0.0,0.0,0.0,0.0,0.0,0.0,0.0,0.0,0.0,0.0,0.0,0.0,0.0,0.0,0.0,0.0,0.0,0.0,0.0,0.0,0.0,0.0,0.0,0.0,0.0,0.0,0.0,0.0,0.0,0.0,0.0,0.0,0.0,0.0,0.0,0.0,0.0,0.0,0.0,0.0,0.0,0.0,0.0,0.0,0.0,0.0,0.0,0.0,0.0,0.0,0.0,0.0,0.0,0.0,0.0,0.0,0.0,0.0,0.0,0.0,0.0,0.0,0.0,0.0,0.0,0.0,0.0,0.0,0.0,0.0,0.0,0.0,0.0,0.0,0.0,0.0,0.0,0.0,0.0,0.0,0.0,0.0,0.0,0.0,0.0,0.0,0.0,0.0,0.0,0.0,0.0,0.0,0.0,0.0,0.0,0.0,0.0,0.0,0.0,0.0,0.0,0.0,0.0,0.0,0.0,0.0,0.0,0.0,0.0,0.0,0.0,0.0,0.0,0.0,0.0,0.0,0.0,-0.2944,0.0,0.0,0.0,0.0,0.0,0.0,0.0,0.0,0.0,0.0,0.0,0.0,0.0,0.0,0.0,0.0,0.0,0.0,0.0,0.0,0.0,0.0,0.0,0.0,0.0,0.0,0.0,0.0,0.0,0.0,0.0,0.0,0.0,0.0,0.0,0.0,0.0,0.0,0.0,0.0,0.0,0.0,0.0,0.0,0.0,0.0,0.0,0.0,0.0,0.0,0.0,0.0,0.0,0.0,0.0,0.0,0.0,0.0,0.0,0.0,0.0,0.0,0.0,0.0,0.0,0.0,0.0,0.0,0.0,0.0,0.0,0.0,0.0,0.0,0.0,0.0,0.0,0.0,0.0,0.0,0.0,0.0,0.0,0.0,0.0,0.0,0.0,0.0,0.0,0.0,0.0,0.0,0.0,0.0,0.0,0.0,0.0,0.0,0.0,0.0,0.0,0.0,0.0,0.0,0.0,0.0,0.0,0.0,0.0,0.0,-0.4436,-0.4206,-0.3679,-0.3329,-0.3161,0.0,0.0,0.0,0.0,0.0,0.0,0.0,0.0,0.0,0.0,0.0,0.0,0.0,0.0,0.0,0.0,0.0,0.0,0.0,0.0,0.0,0.0,0.0,0.0,0.0,0.0,0.0,0.0,0.0,0.0,0.0,0.0,0.0,0.0,0.0,0.0,0.0,0.0,0.0,0.0,0.0,0.0,0.0,0.0,0.0,0.0,0.0,0.0,0.0,0.0,0.0,0.0,0.0,0.0,0.0,0.0,0.0,0.0,0.0,0.0,0.0,0.0,0.0,0.0,0.0,0.0,0.0,0.0,0.0,0.0,0.0,0.0,0.0,0.0,0.0,0.0,0.0,0.0,0.0,0.0,0.0,0.0,0.0,0.0,0.0,0.0,0.0,0.0,0.0,0.0,0.0,0.0,0.0,0.0,0.0,0.0,0.0,0.0,0.0,0.0,0.0,0.0,0.0,0.0,0.0,0.0,0.0,0.0,0.0,0.0,0.0,0.0,-0.3999,-0.3566,-0.3308,0.0,0.0,0.0,0.0,0.0,0.0,0.0,0.0,0.0,0.0,0.0,0.0,0.0,0.0,0.0,0.0,0.0,0.0,0.0,0.0,0.0,0.0,0.0,0.0,0.0,0.0,0.0,0.0,0.0,0.0,0.0,0.0,0.0,0.0,0.0,0.0,0.0,0.0,0.0,0.0,0.0,0.0,0.0,0.0,0.0,0.0,0.0,0.0,0.0,0.0,0.0,0.0,0.0,0.0,0.0,0.0,0.0,0.0,0.0,0.0,0.0,0.0,0.0,0.0,0.0,0.0,0.0,0.0,0.0,0.0,0.0,0.0,0.0,0.0,0.0,0.0,0.0,0.0,0.0,0.0,0.0,0.0,0.0,0.0,0.0,0.0,0.0,0.0,0.0,0.0,0.0,0.0,0.0,0.0,0.0,0.0,0.0,0.0,0.0,0.0,0.0,0.0,0.0,0.0,0.0,0.0,0.0,0.0,0.0,0.0,-0.4977,-0.4602,-0.4185,0.0,-0.3344,0.0,0.0,0.0,0.0,0.0,0.0,0.0,0.0,0.0,0.0,0.0,0.0,0.0,0.0,0.0,0.0,0.0,0.0,0.0,0.0,0.0,0.0,0.0,0.0,0.0,0.0,0.0,0.0,0.0,0.0,0.0,0.0,0.0,0.0,0.0,0.0,0.0,0.0,0.0,0.0,0.0,0.0,0.0,0.0,0.0,0.0,0.0,0.0,0.0,0.0,0.0,0.0,0.0,0.0,0.0,0.0,0.0,0.0,0.0,0.0,0.0,0.0,0.0,0.0,0.0,0.0,0.0,0.0,0.0,0.0,0.0,0.0,0.0,0.0,0.0,0.0,0.0,0.0,0.0,0.0,0.0,0.0,0.0,0.0,0.0,0.0,0.0,0.0,0.0,0.0,0.0,0.0,0.0,0.0,0.0,0.0,0.0,0.0,0.0,0.0,0.0,0.0,0.0,0.0,0.0,0.0,0.0,0.0,0.0,0.0,-0.5529,-0.5148,-0.4362,-0.3776,0.0,0.0,0.0,0.0,0.0,0.0,0.0,0.0,0.0,0.0,0.0,0.0,0.0,0.0,0.0,0.0,0.0,0.0,0.0,0.0,0.0,0.0,0.0,0.0,0.0,0.0,0.0,0.0,0.0,0.0,0.0,0.0,0.0,0.0,0.0,0.0,0.0,0.0,0.0,0.0,0.0,0.0,0.0,0.0,0.0,0.0,0.0,0.0,0.0,0.0,0.0,0.0,0.0,0.0,0.0,0.0,0.0,0.0,0.0,0.0,0.0,0.0,0.0,0.0,0.0,0.0,0.0,0.0,0.0,0.0,0.0,0.0,0.0,0.0,0.0,0.0,0.0,0.0,0.0,0.0,0.0,0.0,0.0,0.0,0.0,0.0,0.0,0.0,0.0,0.0,0.0,0.0,0.0,0.0,0.0,0.0,0.0,0.0,0.0,0.0,0.0,0.0,0.0,0.0,0.0,0.0,0.0,0.0,0.0,0.0,-0.6378,-0.5925,-0.5376,-0.4501,-0.3882,-0.3613,0.0,0.0,0.0,0.0,0.0,0.0,0.0,0.0,0.0,0.0,0.0,0.0,0.0,0.0,0.0,0.0,0.0,0.0,0.0,0.0,0.0,0.0,0.0,0.0,0.0,0.0,0.0,0.0,0.0,0.0,0.0,0.0,0.0,0.0,0.0,0.0,0.0,0.0,0.0,0.0,0.0,0.0,0.0,0.0,0.0,0.0,0.0,0.0,0.0,0.0,0.0,0.0,0.0,0.0,0.0,0.0,0.0,0.0,0.0,0.0,0.0,0.0,0.0,0.0,0.0,0.0,0.0,0.0,0.0,0.0,0.0,0.0,0.0,0.0,0.0,0.0,0.0,0.0,0.0,0.0,0.0,0.0,0.0,0.0,0.0,0.0,0.0,0.0,0.0,0.0,0.0,0.0,0.0,0.0,0.0,0.0,0.0,0.0,0.0,0.0,0.0,0.0,0.0,0.0,0.0,0.0,0.0,0.0,-0.6702,-0.6487,-0.5944,-0.5081,-0.4563,-0.414,0.0,0.0,0.0,0.0,0.0,0.0,0.0,0.0,0.0,0.0,0.0,0.0,0.0,0.0,0.0,0.0,0.0,0.0,0.0,0.0,0.0,0.0,0.0,0.0,0.0,0.0,0.0,0.0,0.0,0.0,0.0,0.0,0.0,0.0,0.0,0.0,0.0,0.0,0.0,0.0,0.0,0.0,0.0,0.0,0.0,0.0,0.0,0.0,0.0,0.0,0.0,0.0,0.0,0.0,0.0,0.0,0.0,0.0,0.0,0.0,0.0,0.0,0.0,0.0,0.0,0.0,0.0,0.0,0.0,0.0,0.0,0.0,0.0,0.0,0.0,0.0,0.0,0.0,0.0,0.0,0.0,0.0,0.0,0.0,0.0,0.0,0.0,0.0,0.0,0.0,0.0,0.0,0.0,0.0,0.0,0.0,0.0,0.0,0.0,0.0,0.0,0.0,0.0,0.0,0.0,0.0,0.0,0.0,0.0,-0.7059,-0.6271,-0.5651,-0.5204,-0.4642,-0.4258,0.0,0.0,0.0,0.0,0.0,0.0,0.0,0.0,0.0,0.0,0.0,0.0,0.0,0.0,0.0,0.0,0.0,0.0,0.0,0.0,0.0,0.0,0.0,0.0,0.0,0.0,0.0,0.0,0.0,0.0,0.0,0.0,0.0,0.0,0.0,0.0,0.0,0.0,0.0,0.0,0.0,0.0,0.0,0.0,0.0,0.0,0.0,0.0,0.0,0.0,0.0,0.0,0.0,0.0,0.0,0.0,0.0,0.0,0.0,0.0,0.0,0.0,0.0,0.0,0.0,0.0,0.0,0.0,0.0,0.0,0.0,0.0,0.0,0.0,0.0,0.0,0.0,0.0,0.0,0.0,0.0,0.0,0.0,0.0,0.0,0.0,0.0,0.0,0.0,0.0,0.0,0.0,0.0,0.0,0.0,0.0,0.0,0.0,0.0,0.0,0.0,0.0,0.0,0.0,0.0,0.0,0.0,0.0,0.0,-0.6977,0.0,-0.5432,-0.5239,-0.4784,-0.4447,0.0,0.0,0.0,0.0,0.0,0.0,0.0,0.0,0.0,0.0,0.0,0.0,0.0,0.0,0.0,0.0,0.0,0.0,0.0,0.0,0.0,0.0,0.0,0.0,0.0,0.0,0.0,0.0,0.0,0.0,0.0,0.0,0.0,0.0,0.0,0.0,0.0,0.0,0.0,0.0,0.0,0.0,0.0,0.0,0.0,0.0,0.0,0.0,0.0,0.0,0.0,0.0,0.0,0.0,0.0,0.0,0.0,0.0,0.0,0.0,0.0,0.0,0.0,0.0,0.0,0.0,0.0,0.0,0.0,0.0,0.0,0.0,0.0,0.0,0.0,0.0,0.0,0.0,0.0,0.0,0.0,0.0,0.0,0.0,0.0,0.0,0.0,0.0,0.0,0.0,0.0,0.0,0.0,0.0,0.0,0.0,0.0,0.0,0.0,0.0,0.0,0.0,0.0,0.0,0.0,0.0,0.0,0.0,-0.7058,-0.6427,-0.5835,-0.5362,-0.5099,-0.4887,-0.4738,0.0,0.0,0.0,0.0,0.0,0.0,0.0,0.0,0.0,0.0,0.0,0.0,0.0,0.0,0.0,0.0,0.0,0.0,0.0,0.0,0.0,0.0,0.0,0.0,0.0,0.0,0.0,0.0,0.0,0.0,0.0,0.0,0.0,0.0,0.0,0.0,0.0,0.0,0.0,0.0,0.0,0.0,0.0,0.0,0.0,0.0,0.0,0.0,0.0,0.0,0.0,0.0,0.0,0.0,0.0,0.0,0.0,0.0,0.0,0.0,0.0,0.0,0.0,0.0,0.0,0.0,0.0,0.0,0.0,0.0,0.0,0.0,0.0,0.0,0.0,0.0,0.0,0.0,0.0,0.0,0.0,0.0,0.0,0.0,0.0,0.0,0.0,0.0,0.0,0.0,0.0,0.0,0.0,0.0,0.0,0.0,0.0,0.0,0.0,0.0,0.0,0.0,0.0,0.0,0.0,0.0,0.0,0.0,0.0,-0.6409,-0.58,-0.533,-0.5049,-0.48,-0.4585,0.0,0.0,0.0,0.0,0.0,0.0,0.0,0.0,0.0,0.0,0.0,0.0,0.0,0.0,0.0,0.0,0.0,0.0,0.0,0.0,0.0,0.0,0.0,0.0,0.0,0.0,0.0,0.0,0.0,0.0,0.0,0.0,0.0,0.0,0.0,0.0,0.0,0.0,0.0,0.0,0.0,0.0,0.0,0.0,0.0,0.0,0.0,0.0,0.0,0.0,0.0,0.0,0.0,0.0,0.0,0.0,0.0,0.0,0.0,0.0,0.0,0.0,0.0,0.0,0.0,0.0,0.0,0.0,0.0,0.0,0.0,0.0,0.0,0.0,0.0,0.0,0.0,0.0,0.0,0.0,0.0,0.0,0.0,0.0,0.0,0.0,0.0,0.0,0.0,0.0,0.0,0.0,0.0,0.0,0.0,0.0,0.0,0.0,0.0,0.0,0.0,0.0,0.0,0.0,0.0,0.0,0.0,0.0,0.0,-0.6382,-0.58,-0.5362,-0.5046,-0.4759,-0.4586,-0.4527,0.0,0.0,0.0,0.0,0.0,0.0,0.0,0.0,0.0,0.0,0.0,0.0,0.0,0.0,0.0,0.0,0.0,0.0,0.0,0.0,0.0,0.0,0.0,0.0,0.0,0.0,0.0,0.0,0.0,0.0,0.0,0.0,0.0,0.0,0.0,0.0,0.0,0.0,0.0,0.0,0.0,0.0,0.0,0.0,0.0,0.0,0.0,0.0,0.0,0.0,0.0,0.0,0.0,0.0,0.0,0.0,0.0,0.0,0.0,0.0,0.0,0.0,0.0,0.0,0.0,0.0,0.0,0.0,0.0,0.0,0.0,0.0,0.0,0.0,0.0,0.0,0.0,0.0,0.0,0.0,0.0,0.0,0.0,0.0,0.0,0.0,0.0,0.0,0.0,0.0,0.0,0.0,0.0,0.0,0.0,0.0,0.0,0.0,0.0,0.0,0.0,0.0,0.0,0.0,0.0,0.0,0.0,0.0,-0.6417,-0.5828,-0.5397,-0.5099,-0.4785,-0.4698,0.0,0.0,0.0,0.0,0.0,0.0,0.0,0.0,0.0,0.0,0.0,0.0,0.0,0.0,0.0,0.0,0.0,0.0,0.0,0.0,0.0,0.0,0.0,0.0,0.0,0.0,0.0,0.0,0.0,0.0,0.0,0.0,0.0,0.0,0.0,0.0,0.0,0.0,0.0,0.0,0.0,0.0,0.0,0.0,0.0,0.0,0.0,0.0,0.0,0.0,0.0,0.0,0.0,0.0,0.0,0.0,0.0,0.0,0.0,0.0,0.0,0.0,0.0,0.0,0.0,0.0,0.0,0.0,0.0,0.0,0.0,0.0,0.0,0.0,0.0,0.0,0.0,0.0,0.0,0.0,0.0,0.0,0.0,0.0,0.0,0.0,0.0,0.0,0.0,0.0,0.0,0.0,0.0,0.0,0.0,0.0,0.0,0.0,0.0,0.0,0.0,0.0,0.0,0.0,0.0,0.0,0.0,0.0,0.0,-0.6535,-0.599,-0.5491,-0.5052,-0.4835,-0.4771,0.0,0.0,0.0,0.0,0.0,0.0,0.0,0.0,0.0,0.0,0.0,0.0,0.0,0.0,0.0,0.0,0.0,0.0,0.0,0.0,0.0,0.0,0.0,0.0,0.0,0.0,0.0,0.0,0.0,0.0,0.0,0.0,0.0,0.0,0.0,0.0,0.0,0.0,0.0,0.0,0.0,0.0,0.0,0.0,0.0,0.0,0.0,0.0,0.0,0.0,0.0,0.0,0.0,0.0,0.0,0.0,0.0,0.0,0.0,0.0,0.0,0.0,0.0,0.0,0.0,0.0,0.0,0.0,0.0,0.0,0.0,0.0,0.0,0.0,0.0,0.0,0.0,0.0,0.0,0.0,0.0,0.0,0.0,0.0,0.0,0.0,0.0,0.0,0.0,0.0,0.0,0.0,0.0,0.0,0.0,0.0,0.0,0.0,0.0,0.0,0.0,0.0,0.0,0.0,0.0,0.0,0.0,0.0,-0.7,-0.6708,-0.6293,-0.5881,-0.5432,-0.5022,-0.4806,0.0,0.0,0.0,0.0,0.0,0.0,0.0,0.0,0.0,0.0,0.0,0.0,0.0,0.0,0.0,0.0,0.0,0.0,0.0,0.0,0.0,0.0,0.0,0.0,0.0,0.0,0.0,0.0,0.0,0.0,0.0,0.0,0.0,0.0,0.0,0.0,0.0,0.0,0.0,0.0,0.0,0.0,0.0,0.0,0.0,0.0,0.0,0.0,0.0,0.0,0.0,0.0,0.0,0.0,0.0,0.0,0.0,0.0,0.0,0.0,0.0,0.0,0.0,0.0,0.0,0.0,0.0,0.0,0.0,0.0,0.0,0.0,0.0,0.0,0.0,0.0,0.0,0.0,0.0,0.0,0.0,0.0,0.0,0.0,0.0,0.0,0.0,0.0,0.0,0.0,0.0,0.0,0.0,0.0,0.0,0.0,0.0,0.0,0.0,0.0,0.0,0.0,0.0,0.0,0.0,0.0,0.0,0.0,-0.7116,-0.6807,-0.6654,-0.6394,-0.6049,-0.5329,-0.4973,0.0,0.0,0.0,0.0,0.0,0.0,0.0,0.0,0.0,0.0,0.0,0.0,0.0,0.0,0.0,0.0,0.0,0.0,0.0,0.0,0.0,0.0,0.0,0.0,0.0,0.0,0.0,0.0,0.0,0.0,0.0,0.0,0.0,0.0,0.0,0.0,0.0,0.0,0.0,0.0,0.0,0.0,0.0,0.0,0.0,0.0,0.0,0.0,0.0,0.0,0.0,0.0,0.0,0.0,0.0,0.0,0.0,0.0,0.0,0.0,0.0,0.0,0.0,0.0,0.0,0.0,0.0,0.0,0.0,0.0,0.0,0.0,0.0,0.0,0.0,0.0,0.0,0.0,0.0,0.0,0.0,0.0,0.0,0.0,0.0,0.0,0.0,0.0,0.0,0.0,0.0,0.0,0.0,0.0,0.0,0.0,0.0,0.0,0.0,0.0,0.0,0.0,0.0,0.0,0.0,0.0,0.0,0.0,-0.7269,-0.697,-0.6863,-0.6655,-0.6398,-0.6093,-0.5763,0.0,0.0,0.0,0.0,0.0,0.0,0.0,0.0,0.0,0.0,0.0,0.0,0.0,0.0,0.0,0.0,0.0,0.0,0.0,0.0,0.0,0.0,0.0,0.0,0.0,0.0,0.0,0.0,0.0,0.0,0.0,0.0,0.0,0.0,0.0,0.0,0.0,0.0,0.0,0.0,0.0,0.0,0.0,0.0,0.0,0.0,0.0,0.0,-0.6876,0.0,0.0,0.0,0.0,0.0,0.0,0.0,0.0,0.0,0.0,0.0,0.0,0.0,0.0,0.0,0.0,0.0,0.0,0.0,0.0,0.0,0.0,0.0,0.0,0.0,0.0,0.0,0.0,0.0,0.0,0.0,0.0,0.0,0.0,0.0,0.0,0.0,0.0,0.0,0.0,0.0,0.0,0.0,0.0,0.0,0.0,0.0,0.0,0.0,0.0,0.0,0.0,0.0,0.0,0.0,0.0,0.0,0.0,0.0,-0.7421,-0.7065,-0.7086,-0.6946,-0.6707,-0.6838,-0.6529,0.0,0.0,0.0,0.0,0.0,0.0,0.0,0.0,0.0,0.0,0.0,0.0,0.0,0.0,0.0,0.0,0.0,0.0,0.0,0.0,0.0,0.0,0.0,0.0,0.0,0.0,0.0,0.0,0.0,0.0,0.0,0.0,0.0,0.0,0.0,0.0,0.0,0.0,0.0,0.0,0.0,0.0,0.0,0.0,0.0,0.0,0.0,0.0,0.0,0.0,0.0,0.0,0.0,0.0,0.0,0.0,0.0,0.0,0.0,0.0,0.0,0.0,0.0,0.0,0.0,0.0,0.0,0.0,0.0,0.0,0.0,0.0,0.0,0.0,0.0,0.0,0.0,0.0,0.0,0.0,0.0,0.0,0.0,0.0,0.0,0.0,0.0,0.0,0.0,0.0,0.0,0.0,0.0,0.0,0.0,0.0,0.0,0.0,0.0,0.0,0.0,0.0,0.0,0.0,0.0,0.0,0.0,-0.7851,-0.7544,-0.7177,-0.7332,-0.7289,-0.6996,-0.7487,-0.7219,-0.6163,0.0,0.0,0.0,0.0,0.0,0.0,0.0,0.0,0.0,0.0,0.0,0.0,0.0,0.0,0.0,0.0,0.0,0.0,0.0,0.0,0.0,0.0,0.0,0.0,0.0,0.0,0.0,0.0,0.0,0.0,0.0,0.0,0.0,0.0,0.0,0.0,0.0,0.0,-0.6513,-0.7217,0.0,0.0,0.0,0.0,0.0,0.0,0.0,0.0,-0.7006,0.0,0.0,0.0,0.0,0.0,0.0,0.0,0.0,0.0,0.0,0.0,0.0,0.0,0.0,0.0,0.0,0.0,0.0,0.0,0.0,0.0,0.0,0.0,0.0,0.0,0.0,0.0,0.0,0.0,0.0,0.0,0.0,0.0,0.0,0.0,0.0,0.0,0.0,0.0,0.0,0.0,0.0,0.0,0.0,0.0,0.0,0.0,0.0,0.0,0.0,0.0,0.0,0.0,0.0,0.0,0.0,-0.8262,-0.7947,-0.7656,-0.7445,-0.7763,-0.7771,-0.7424,-0.7748,-0.7661,-0.7097,0.0,0.0,0.0,0.0,0.0,0.0,0.0,0.0,0.0,0.0,0.0,0.0,0.0,0.0,0.0,0.0,0.0,0.0,0.0,0.0,0.0,0.0,0.0,0.0,0.0,0.0,0.0,0.0,0.0,0.0,0.0,0.0,0.0,0.0,0.0,0.0,0.0,0.0,0.0,-0.7496,-0.7832,0.0,0.0,0.0,0.0,0.0,0.0,0.0,0.0,-0.7056,0.0,0.0,0.0,0.0,0.0,0.0,0.0,0.0,0.0,0.0,0.0,0.0,0.0,0.0,0.0,0.0,0.0,0.0,0.0,0.0,0.0,0.0,0.0,0.0,0.0,0.0,0.0,0.0,0.0,0.0,0.0,0.0,0.0,0.0,0.0,0.0,0.0,0.0,0.0,0.0,0.0,0.0,0.0,0.0,0.0,0.0,0.0,0.0,0.0,0.0,0.0,0.0,0.0,0.0,0.0,-0.829,-0.8043,-0.7783,-0.7534,-0.7711,-0.7633,-0.7261,-0.7604,-0.7617,0.0,0.0,0.0,0.0,0.0,0.0,0.0,0.0,0.0,0.0,0.0,0.0,0.0,0.0,0.0,0.0,0.0,0.0,0.0,0.0,0.0,0.0,0.0,0.0,0.0,0.0,0.0,0.0,0.0,0.0,0.0,0.0,0.0,0.0,0.0,0.0,0.0,0.0,0.0,0.0,-0.7944,-0.8327,-0.8745,0.0,0.0,0.0,0.0,0.0,0.0,-0.7897,-0.771,0.0,0.0,0.0,0.0,0.0,0.0,0.0,0.0,0.0,0.0,0.0,0.0,0.0,0.0,0.0,0.0,0.0,0.0,0.0,0.0,0.0,0.0,0.0,0.0,0.0,0.0,0.0,0.0,0.0,0.0,0.0,0.0,0.0,0.0,0.0,0.0,0.0,0.0,0.0,0.0,0.0,0.0,0.0,0.0,0.0,0.0,0.0,0.0,0.0,0.0,0.0,0.0,0.0,0.0,0.0,-0.8313,-0.8082,-0.7827,-0.7563,-0.758,-0.7464,-0.7119,-0.7479,-0.7575,0.0,0.0,0.0,0.0,0.0,0.0,0.0,0.0,0.0,0.0,0.0,0.0,0.0,0.0,0.0,0.0,0.0,0.0,0.0,0.0,0.0,0.0,0.0,0.0,0.0,0.0,0.0,0.0,0.0,0.0,0.0,0.0,0.0,0.0,0.0,0.0,0.0,0.0,0.0,0.0,0.0,-0.8865,-0.9248,-0.9175,0.0,0.0,0.0,0.0,-0.8653,-0.8479,0.0,0.0,0.0,0.0,0.0,0.0,0.0,0.0,0.0,0.0,0.0,0.0,0.0,0.0,0.0,0.0,0.0,0.0,0.0,0.0,0.0,0.0,0.0,0.0,0.0,0.0,0.0,0.0,0.0,0.0,0.0,0.0,0.0,0.0,0.0,0.0,0.0,0.0,0.0,0.0,0.0,0.0,0.0,0.0,0.0,0.0,0.0,0.0,0.0,0.0,0.0,0.0,0.0,0.0,0.0,0.0,-0.8382,-0.8075,-0.7855,-0.769,-0.7768,-0.7655,-0.7379,-0.7743,-0.7853,0.0,0.0,0.0,0.0,0.0,0.0,0.0,0.0,0.0,0.0,0.0,0.0,0.0,0.0,0.0,0.0,0.0,0.0,0.0,0.0,0.0,0.0,0.0,0.0,0.0,0.0,0.0,0.0,0.0,0.0,0.0,0.0,0.0,0.0,0.0,0.0,0.0,0.0,0.0,0.0,0.0,-0.9204,-0.9681,-0.9597,-0.9624,0.0,0.0,-0.9316,-0.9156,-0.8816,0.0,0.0,0.0,0.0,0.0,0.0,0.0,0.0,0.0,0.0,0.0,0.0,0.0,0.0,0.0,0.0,0.0,0.0,0.0,0.0,0.0,0.0,0.0,0.0,0.0,0.0,0.0,0.0,0.0,0.0,0.0,0.0,0.0,0.0,0.0,0.0,0.0,0.0,0.0,0.0,0.0,0.0,0.0,0.0,0.0,0.0,0.0,0.0,0.0,0.0,0.0,0.0,0.0,0.0,0.0,-0.8421,-0.8388,-0.8075,-0.7855,-0.7705,-0.7609,-0.7422,-0.7133,-0.7527,-0.7576,0.0,0.0,0.0,0.0,0.0,0.0,0.0,0.0,0.0,0.0,0.0,0.0,0.0,0.0,0.0,0.0,0.0,0.0,0.0,0.0,0.0,0.0,0.0,0.0,0.0,0.0,0.0,0.0,0.0,0.0,0.0,0.0,0.0,0.0,0.0,0.0,0.0,0.0,0.0,0.0,0.0,0.0,-1.0081,-1.0038,0.0,0.0,0.0,-0.9782,-0.9663,0.0,0.0,0.0,0.0,0.0,0.0,0.0,0.0,0.0,0.0,0.0,0.0,0.0,0.0,0.0,0.0,0.0,0.0,0.0,0.0,0.0,0.0,0.0,0.0,0.0,0.0,0.0,0.0,0.0,0.0,0.0,0.0,0.0,0.0,0.0,0.0,0.0,0.0,0.0,0.0,0.0,0.0,0.0,0.0,0.0,0.0,0.0,0.0,0.0,0.0,0.0,0.0,0.0,0.0,0.0,0.0,0.0,-0.8516,-0.8098,-0.7845,-0.77,-0.7509,-0.7232,-0.6988,-0.7378,0.0,0.0,0.0,0.0,0.0,0.0,0.0,0.0,0.0,0.0,0.0,0.0,0.0,0.0,0.0,0.0,0.0,0.0,0.0,0.0,0.0,0.0,0.0,0.0,0.0,0.0,0.0,-0.6694,0.0,0.0,0.0,0.0,0.0,0.0,0.0,0.0,0.0,0.0,0.0,0.0,0.0,0.0,-1.0019,-1.034,-1.0312,-1.0322,0.0,0.0,-1.0123,-1.0059,-0.9941,-0.9827,0.0,0.0,0.0,0.0,0.0,0.0,0.0,0.0,0.0,0.0,0.0,0.0,0.0,0.0,0.0,0.0,0.0,0.0,0.0,0.0,0.0,0.0,0.0,0.0,0.0,0.0,0.0,0.0,0.0,0.0,0.0,0.0,0.0,0.0,0.0,0.0,0.0,0.0,0.0,0.0,0.0,0.0,0.0,0.0,0.0,0.0,0.0,0.0,0.0,0.0,0.0,0.0,0.0,0.0,0.0,-0.8849,-0.8237,-0.7821,-0.7695,-0.7499,-0.7292,-0.7113,-0.7601,-0.7721,0.0,0.0,0.0,0.0,0.0,0.0,0.0,0.0,0.0,0.0,0.0,0.0,0.0,0.0,0.0,0.0,0.0,0.0,0.0,0.0,0.0,0.0,0.0,0.0,0.0,0.0,0.0,0.0,0.0,0.0,0.0,0.0,0.0,0.0,0.0,0.0,0.0,0.0,0.0,0.0,0.0,-1.0293,-1.0317,-1.0322,-1.0322,0.0,0.0,-1.0244,-1.0123,-1.0059,-0.9946,-0.9823,0.0,0.0,0.0,0.0,0.0,0.0,0.0,0.0,0.0,0.0,0.0,0.0,0.0,0.0,0.0,0.0,0.0,0.0,0.0,0.0,0.0,0.0,0.0,0.0,0.0,0.0,0.0,0.0,0.0,0.0,0.0,0.0,0.0,0.0,0.0,0.0,0.0,0.0,0.0,0.0,0.0,0.0,0.0,0.0,0.0,0.0,0.0,0.0,0.0,0.0,0.0,0.0,0.0,-0.8988,-0.8906,-0.8222,-0.7845,-0.7695,-0.7554,-0.7367,-0.7175,-0.7654,-0.7811,0.0,0.0,0.0,0.0,0.0,0.0,0.0,0.0,0.0,0.0,0.0,0.0,0.0,0.0,0.0,0.0,0.0,0.0,0.0,0.0,0.0,0.0,0.0,0.0,0.0,0.0,0.0,0.0,-0.7583,-0.7723,-0.8087,0.0,0.0,0.0,0.0,0.0,0.0,0.0,0.0,0.0,0.0,-1.0472,-1.0472,-1.0433,0.0,0.0,-1.0312,-1.0244,-1.0123,-1.0083,-1.0059,-0.9936,-1.0073,0.0,0.0,0.0,0.0,0.0,0.0,0.0,0.0,0.0,0.0,0.0,0.0,0.0,0.0,0.0,0.0,0.0,0.0,0.0,0.0,0.0,0.0,0.0,0.0,0.0,0.0,0.0,0.0,0.0,0.0,0.0,0.0,0.0,0.0,0.0,0.0,0.0,0.0,0.0,0.0,0.0,0.0,0.0,0.0,0.0,0.0,0.0,0.0,0.0,0.0,0.0,0.0,-0.9233,-0.8977,-0.84,-0.795,-0.7695,-0.7608,-0.7503,-0.7453,-0.7883,-0.7999,0.0,0.0,0.0,0.0,0.0,0.0,0.0,0.0,0.0,0.0,0.0,0.0,0.0,0.0,0.0,0.0,0.0,0.0,0.0,0.0,0.0,0.0,0.0,0.0,0.0,0.0,0.0,0.0,-0.8167,-0.8306,-0.8681,0.0,0.0,0.0,0.0,0.0,0.0,0.0,0.0,0.0,0.0,-1.0692,-1.0659,-1.0644,-1.0695,-1.0622,-1.0691,-1.0704,-1.0578,-1.0502,-1.0462,-1.0431,0.0,0.0,0.0,0.0,0.0,0.0,0.0,0.0,0.0,0.0,0.0,0.0,0.0,0.0,0.0,0.0,0.0,0.0,0.0,0.0,0.0,0.0,0.0,0.0,0.0,0.0,0.0,0.0,0.0,0.0,-0.5902,0.0,0.0,0.0,0.0,0.0,0.0,0.0,0.0,0.0,0.0,0.0,0.0,0.0,0.0,0.0,0.0,0.0,0.0,0.0,0.0,0.0,0.0,-0.9777,-0.9197,-0.8711,-0.8237,-0.7725,-0.7627,-0.7744,-0.8,-0.8239,-0.8415,-0.8467,0.0,0.0,0.0,0.0,0.0,0.0,0.0,0.0,0.0,0.0,0.0,0.0,0.0,0.0,0.0,0.0,0.0,0.0,0.0,0.0,0.0,0.0,0.0,0.0,0.0,0.0,-0.8906,-0.897,-0.8999,0.0,0.0,0.0,0.0,0.0,0.0,0.0,0.0,0.0,0.0,-1.0916,-1.0883,-1.0731,-1.1103,-1.1287,-1.1109,-1.1472,-1.1702,-1.1547,-1.1422,-1.1407,0.0,0.0,0.0,0.0,0.0,0.0,0.0,0.0,0.0,0.0,0.0,0.0,0.0,0.0,0.0,0.0,0.0,0.0,0.0,0.0,0.0,0.0,0.0,0.0,0.0,0.0,0.0,-0.5913,-0.5743,0.0,0.0,0.0,0.0,0.0,0.0,0.0,0.0,0.0,0.0,0.0,-0.7302,-0.7377,0.0,0.0,0.0,0.0,0.0,0.0,0.0,0.0,0.0,0.0,0.0,0.0,-0.9707,-0.9217,-0.8746,-0.8385,-0.8159,-0.8038,-0.8213,-0.8584,-0.8788,-0.8771,-0.8648,0.0,0.0,0.0,0.0,0.0,0.0,0.0,0.0,0.0,0.0,0.0,0.0,0.0,0.0,0.0,0.0,0.0,0.0,0.0,0.0,0.0,0.0,0.0,0.0,0.0,-0.8613,0.0,0.0,0.0,0.0,0.0,0.0,0.0,0.0,0.0,0.0,0.0,-1.1207,-1.1287,-1.1276,-1.1329,-1.1611,-1.1588,-1.1593,0.0,0.0,0.0,0.0,0.0,0.0,0.0,0.0,0.0,0.0,0.0,0.0,0.0,0.0,-1.3457,-1.2648,-1.2294,-1.2005,-1.1415,0.0,0.0,0.0,0.0,0.0,0.0,0.0,0.0,0.0,0.0,0.0,0.0,0.0,0.0,-0.6155,0.0,-0.6116,0.0,0.0,0.0,0.0,0.0,0.0,0.0,0.0,-0.7036,-0.7275,-0.7571,-0.7691,-0.8113,0.0,-0.9056,-0.929,0.0,0.0,0.0,0.0,0.0,0.0,0.0,0.0,-0.9753,-0.9348,-0.9003,-0.8721,-0.8603,-0.8599,-0.877,-0.9093,-0.9208,-0.9157,-0.8797,-0.839,-0.7885,0.0,0.0,0.0,0.0,0.0,0.0,0.0,0.0,0.0,0.0,0.0,0.0,0.0,0.0,0.0,0.0,0.0,0.0,0.0,0.0,0.0,0.0,0.0,-0.9166,0.0,0.0,0.0,0.0,0.0,0.0,0.0,0.0,0.0,-1.1719,-1.1839,-1.2053,-1.2136,-1.2075,-1.2173,-1.2429,0.0,0.0,0.0,0.0,0.0,0.0,0.0,-1.2273,-1.2183,-1.2503,-1.2837,-1.3114,-1.375,-1.4291,-1.4599,0.0,0.0,-1.3448,-1.3083,-1.2721,-1.1954,-1.1695,-1.1621,-1.1732,-1.1889,-1.1999,0.0,0.0,0.0,0.0,0.0,0.0,0.0,0.0,-0.6773,-0.6612,0.0,-0.6544,0.0,0.0,0.0,0.0,0.0,-0.7356,0.0,0.0,-0.7349,-0.7599,-0.7928,-0.8099,-0.8577,-0.9213,-0.9502,-0.9835,-1.0213,-1.007,0.0,0.0,0.0,0.0,0.0,0.0,-0.9911,-0.9602,-0.9471,-0.9288,-0.9043,-0.9258,-0.9437,-0.9507,-0.9622,-0.947,-0.902,-0.8688,-0.8279,-0.7746,-0.7164,0.0,0.0,0.0,0.0,0.0,0.0,0.0,0.0,0.0,0.0,0.0,0.0,0.0,0.0,0.0,0.0,0.0,0.0,0.0,0.0,-0.9815,0.0,0.0,0.0,0.0,0.0,0.0,0.0,0.0,0.0,0.0,-1.258,-1.2961,-1.3335,-1.3318,0.0,0.0,0.0,0.0,-1.3591,-1.3368,-1.3511,-1.3552,-1.3452,-1.3299,-1.3198,-1.3193,0.0,0.0,-1.4129,-1.4425,-1.4708,-1.5057,-1.5305,-1.523,-1.4439,-1.3897,-1.3415,-1.2869,-1.2376,-1.2161,-1.2204,-1.2294,-1.2407,-0.7625,0.0,0.0,0.0,0.0,-0.7395,-0.7436,-0.7317,-0.7299,-0.7204,-0.7096,-0.6865,0.0,0.0,0.0,0.0,0.0,0.0,-0.723,-0.7429,-0.7531,-0.783,-0.8161,-0.8428,-0.8919,-0.9639,-1.0022,-1.0446,-1.0974,-1.0913,-1.0664,-1.0143,0.0,0.0,0.0,0.0,-0.9949,-0.9617,-0.9546,-0.9488,-0.9417,-0.9508,-0.9678,-0.994,-0.9841,-0.9581,-0.9244,-0.8939,-0.8578,-0.8085,-0.774,0.0,0.0,0.0,0.0,0.0,0.0,0.0,0.0,0.0,0.0,0.0,0.0,0.0,0.0,0.0,0.0,0.0,0.0,0.0,-0.9656,-0.9909,-1.0138,0.0,0.0,0.0,0.0,0.0,0.0,0.0,0.0,0.0,-1.392,-1.3859,-1.3784,0.0,0.0,-1.3648,-1.4019,-1.3881,-1.3867,-1.4173,-1.41,0.0,-1.3863,-1.3716,-1.3621,-1.3515,-1.3752,-1.4087,-1.4425,-1.4743,-1.5057,-1.5406,-1.53,-1.5012,-1.4598,-1.4231,-1.3757,-1.2935,-1.2615,-1.2556,-1.2621,-1.2662,-1.2697,-0.8174,-0.7896,-0.7605,-0.7483,-0.75,-0.7627,-0.7652,-0.7564,-0.7594,-0.7535,-0.7481,-0.7226,-0.7152,-0.7173,-0.6991,0.0,0.0,0.0,-0.7402,-0.7737,-0.7884,-0.8179,-0.8651,-0.8992,-0.9514,-1.0141,-1.0541,-1.1,-1.1469,-1.159,-1.1299,-1.076,0.0,0.0,-1.0226,-1.013,-1.0036,-0.986,-0.9888,-0.9883,-0.9888,-0.9893,-0.9939,-1.0074,-0.9941,-0.9734,-0.9457,-0.9181,-0.8871,-0.8504,-0.8209,-0.7788,0.0,0.0,0.0,0.0,0.0,0.0,0.0,0.0,0.0,0.0,0.0,-0.7134,-0.7688,0.0,0.0,0.0,-0.9611,-1.0051,-1.0189,-1.0262,0.0,0.0,0.0,0.0,0.0,0.0,0.0,-1.3172,-1.3954,-1.4605,-1.485,-1.4788,-1.4654,-1.46,-1.4456,-1.4487,-1.4801,0.0,-1.4435,-1.4749,-1.4564,-1.4326,-1.4192,-1.4051,-1.3947,-1.3947,-1.4129,-1.4419,-1.4754,-1.5034,-1.5225,-1.5318,-1.5253,-1.4985,-1.4399,-1.4233,-1.3894,-1.2997,-1.2774,-1.2803,-1.2838,-1.2879,-1.2908,-0.8769,-0.8624,-0.8162,-0.7973,-0.7885,-0.7908,-0.7864,-0.7758,-0.7775,-0.7743,-0.766,-0.7692,-0.7669,-0.7573,-0.7406,0.0,-0.7502,-0.755,-0.7757,-0.815,-0.8282,-0.8686,-0.9221,-0.9638,-1.0153,-1.0714,-1.112,-1.1477,-1.1723,-1.1977,-1.1999,-1.1757,-1.0957,-1.0573,-1.0614,-1.0328,-1.0195,-1.0273,-1.0317,-1.0322,-1.0317,-1.0322,-1.0235,-1.0123,-1.0059,-0.9911,-0.9723,-0.9386,-0.9145,-0.892,-0.8627,-0.8246,-0.7853,0.0,0.0,0.0,0.0,0.0,0.0,0.0,0.0,0.0,0.0,0.0,0.0,0.0,0.0,0.0,-0.9932,0.0,-1.0813,-1.0857,0.0,0.0,0.0,-1.1572,-1.1885,-1.2567,-1.3226,-1.3662,0.0,0.0,-1.5412,-1.5614,-1.562,-1.5513,-1.5519,-1.5507,-1.5513,-1.5271,-1.5102,-1.5102,-1.4834,-1.4616,-1.4471,-1.4321,-1.428,-1.4378,-1.4466,-1.4645,-1.5006,-1.5186,-1.5178,-1.5121,-1.5156,-1.4999,-1.4101,-1.3981,-1.3793,-1.307,-1.2931,-1.2931,-1.2937,-1.3019,-1.3053,-0.9422,-0.9051,-0.883,-0.844,-0.7953,-0.8176,-0.8267,-0.8234,-0.8331,-0.8371,-0.8358,-0.8049,-0.7837,-0.7672,-0.7604,-0.7675,-0.7822,-0.7909,-0.8119,-0.85,-0.8746,-0.9048,-0.9497,-0.998,-1.0438,-1.0871,-1.1272,-1.1619,-1.2031,-1.2175,-1.2281,-1.2266,-1.1849,-1.1318,-1.0781,-1.0661,-1.0535,-1.0332,-1.0322,-1.0322,-1.0322,-1.0322,-1.0288,-1.0244,-1.0098,-0.9946,-0.9793,-0.955,-0.931,-0.8984,-0.8899,-0.8606,-0.8138,-0.8039,0.0,0.0,0.0,0.0,0.0,0.0,0.0,0.0,0.0,-0.8145,-0.9037,0.0,-1.0069,0.0,-1.1037,-1.1256,-1.1257,-1.1277,0.0,0.0,-1.1914,-1.2178,-1.2772,-1.32,-1.3637,-1.4003,-1.4562,-1.496,-1.5198,-1.543,-1.5558,-1.562,-1.5659,-1.5659,-1.5665,-1.5525,-1.5385,-1.5255,-1.5068,-1.4926,-1.4829,-1.4702,-1.4678,-1.4725,-1.4851,-1.5023,-1.5216,-1.5151,-1.5102,-1.5234,-1.4682,-1.4256,-1.4056,-1.3722,-1.3386,-1.3188,-1.3123,-1.3123,-1.3129,-1.317,-1.3176,-0.9889,-0.9566,-0.9463,-0.9035,-0.8459,-0.8554,-0.8564,-0.8581,-0.8678,-0.8689,-0.8676,-0.8472,-0.8299,-0.8192,-0.8071,-0.8068,-0.8224,-0.8265,-0.8521,-0.8956,-0.9152,-0.9453,-0.9777,-1.0257,-1.0671,-1.0972,-1.1372,-1.1778,-1.2126,-1.2283,-1.2426,-1.2578,-1.244,-1.209,-1.1436,-1.1034,-1.0755,-1.0571,-1.0376,-1.0322,-1.0322,-1.0322,-1.0322,-1.0278,-1.0098,-0.9976,-0.9906,-0.9629,-0.939,-0.9132,-0.9101,-0.8922,-0.8568,-0.8357,-0.8064,0.0,0.0,0.0,0.0,0.0,0.0,0.0,0.0,0.0,0.0,0.0,-1.0565,-1.1285,-1.1592,-1.1763,-1.1746,-1.1761,-1.194,-1.2409,-1.2458,-1.264,-1.314,-1.3367,-1.37,-1.4129,-1.4455,-1.4777,-1.5062,-1.5238,-1.5379,-1.557,-1.562,-1.5665,-1.5715,-1.5653,-1.557,-1.5435,-1.5295,-1.5159,-1.5011,-1.4932,-1.4903,-1.5,-1.5125,-1.5255,-1.543,-1.5199,-1.5024,-1.4945,-1.4409,-1.3864,-1.3699,-1.3465,-1.321,-1.321,-1.321,-1.321,-1.321,-1.321,-1.321,-1.0347,-1.0135,-1.002,-0.9643,-0.9279,-0.8988,-0.8841,-0.8808,-0.8808,-0.8808,-0.8808,-0.8808,-0.8788,-0.8774,-0.8592,-0.8524,-0.8672,-0.8669,-0.8959,-0.9409,-0.9569,-0.9777,-1.0098,-1.0514,-1.0871,-1.1171,-1.1523,-1.1882,-1.2126,-1.2377,-1.2578,-1.2735,-1.2837,-1.269,-1.2244,-1.1489,-1.105,-1.0996,-1.063,-1.0449,-1.0449,-1.0449,-1.0454,-1.0415,-1.0221,-1.0146,-1.0101,-0.9825,-0.9614,-0.9474,-0.9402,-0.928,-0.9116,-0.873,-0.8392,0.0,-0.7885,0.0,0.0,0.0,0.0,0.0,0.0,0.0,0.0,-1.0615,-1.1138,-1.1684,-1.1955,-1.2173,-1.2275,-1.2268,-1.2466,-1.2827,-1.2886,-1.2963,-1.317,-1.3319,-1.3605,-1.4087,-1.428,-1.4558,-1.4926,-1.5023,-1.5159,-1.5373,-1.5418,-1.5468,-1.5665,-1.5665,-1.562,-1.5519,-1.5396,-1.5216,-1.5165,-1.5057,-1.5062,-1.5261,-1.5351,-1.5447,-1.5659,-1.5246,-1.4861,-1.456,-1.4137,-1.3683,-1.3273,-1.3217,-1.321,-1.321,-1.321,-1.321,-1.321,-1.321,-1.321,-1.0788,-1.0469,-1.0203,-0.987,-0.9576,-0.9282,-0.9021,-0.8808,-0.8808,-0.8808,-0.8808,-0.8808,-0.8778,-0.8783,-0.8829,-0.893,-0.893,-0.9179,-0.9352,-0.9562,-0.9681,-0.9995,-1.0419,-1.062,-1.0972,-1.1423,-1.1623,-1.1977,-1.2431,-1.248,-1.2627,-1.2881,-1.2881,-1.2837,-1.2734,0.0,0.0,0.0,-1.14,-1.128,-1.118,-1.1176,-1.1128,-1.1046,-1.0911,0.0,-1.0825,-1.0689,-1.0545,-1.0272,-1.0277,0.0,0.0,0.0,0.0,0.0,0.0,0.0,0.0,0.0,0.0,0.0,-0.9671,-1.006,-1.0573,-1.1533,-1.2263,-1.2484,-1.2642,-1.2733,-1.2792,-1.2759,-1.2788,-1.2871,-1.2886,-1.2968,-1.3175,-1.3314,-1.3515,-1.381,-1.4192,-1.4425,-1.4507,-1.4713,-1.4903,-1.5006,-1.4994,-1.5096,-1.5357,-1.5486,-1.5474,-1.5345,-1.53,-1.5306,-1.5261,-1.5345,-1.5379,-1.5474,-1.5576,-1.5665,-1.5688,-1.5096,-1.4652,-1.4619,-1.3927,-1.332,-1.3217,-1.321,-1.321,-1.321,-1.321,-1.321,-1.321,-1.321,-1.321,-1.117,0.0,-1.0661,-1.0323,0.0,-0.974,-0.9509,-0.9218,-0.8931,-0.8808,-0.8808,-0.8808,-0.8857,-0.8966,-0.8959,-0.9061,-0.9215,-0.9409,-0.9569,-0.9732,-0.9943,-1.0217,-1.0522,-1.0777,-1.1124,-1.1473,-1.1723,-1.2031,-1.248,-1.2529,-1.2632,-1.2886,-1.2886,-1.2886,-1.2876,-1.2613,-1.2129,-1.1494,-1.149,-1.145,-1.1289,-1.1279,-1.1284,-1.1195,-1.1062,0.0,0.0,0.0,0.0,0.0,0.0,0.0,0.0,-0.9873,0.0,-0.9217,-0.9128,-0.9014,-0.8897,-0.9015,-0.9306,-0.9656,-1.0338,-1.0865,-1.1279,-1.2013,-1.2545,-1.2681,-1.2827,-1.2886,-1.2886,-1.2886,-1.2886,-1.2886,-1.2886,-1.2973,-1.3152,-1.3228,-1.3415,-1.3668,-1.3957,-1.414,-1.4285,-1.4477,-1.4621,-1.4743,-1.4789,-1.4891,-1.5046,-1.5255,-1.5396,-1.5312,-1.5306,-1.53,-1.5396,-1.5525,-1.5614,-1.5659,-1.5748,-1.5824,-1.5913,-1.5154,-1.4604,-1.4621,-1.3876,-1.321,-1.321,-1.321,-1.321,-1.321,-1.321,-1.321,-1.321,-1.321,-1.321,-1.1435,-1.1125,-1.1129,-1.0733,-1.0194,-1.0144,-0.995,-0.9649,0.0,0.0,0.0,-0.8808,-0.8913,-0.9075,-0.9061,-0.9159,-0.9413,-0.9569,-0.9681,-0.9851,-1.0162,-1.0419,-1.0577,-1.0968,-1.1272,-1.1528,-1.1773,-1.2076,-1.2475,-1.248,-1.2583,-1.2827,-1.2827,-1.2827,-1.2827,-1.2725,-1.2292,-1.159,-1.1602,-1.1547,-1.1417,-1.1362,-1.1362,-1.1362,-1.1227,-1.1181,-1.1181,-1.1131,-1.0986,-1.0748,-1.0698,-1.0514,-1.0149,-1.0068,-0.9843,-0.9451,-0.931,-0.9249,-0.9333,-0.9451,-0.9714,-1.0135,-1.0867,-1.1473,-1.1819,-1.225,-1.2545,-1.2671,-1.2779,-1.2886,-1.2886,-1.2886,-1.2886,-1.2886,-1.2886,-1.2978,-1.308,-1.3157,-1.3281,-1.352,-1.3668,-1.3858,-1.4087,-1.4239,-1.4378,-1.4482,-1.4534,-1.4684,-1.4771,-1.4989,-1.5216,-1.521,-1.5261,-1.5351,-1.5468,-1.5614,-1.5703,-1.5754,-1.5919,-1.5994,-1.5892,-1.529,-1.4769,-1.4734,-1.3913,-1.3329,-1.321,-1.321,-1.321,-1.321,-1.321,-1.321,-1.321,-1.321,-1.321,-1.1376,-1.1129,-1.1129,-1.0912,-1.054,-1.0224,-0.995,-0.9663,-0.9325,-0.9041,-0.8808,-0.8808,-0.886,-0.9012,-0.9113,-0.9256,-0.9413,-0.9632,-0.9847,-0.9995,-1.0316,-1.062,-1.0871,-1.1116,-1.1427,-1.1673,-1.1828,-1.2031,-1.2328,-1.2332,-1.2426,-1.2529,-1.2583,-1.2573,-1.2573,-1.2529,-1.2418,-1.2155,-1.2305,-1.2305,-1.2155,-1.2159,-1.2106,-1.1955,-1.1941,-1.1955,-1.196,-1.1893,-1.1858,-1.1706,-1.1608,-1.1411,-1.1118,-1.0847,-1.0618,-1.0366,-1.0218,-1.0038,-0.9875,-1.0041,-1.0368,-1.0761,-1.107,-1.1427,-1.1728,-1.2201,-1.2505,-1.2529,-1.2735,-1.2886,-1.2886,-1.2886,-1.2886,-1.2886,-1.2886,-1.2983,-1.308,-1.3133,-1.321,-1.3425,-1.3557,-1.3663,-1.3858,-1.3957,-1.4062,-1.4114,-1.4161,-1.4203,-1.4477,-1.4743,-1.492,-1.5011,-1.5159,-1.534,-1.5474,-1.5614,-1.5709,-1.5792,-1.5913,-1.6044,-1.6144,-1.5381,-1.4821,-1.4838,-1.3998,-1.3329,-1.3223,-1.321,-1.321,-1.321,-1.321,-1.321,-1.321,-1.321,-1.321,-1.1306,-1.1125,-1.0996,-1.0811,-1.0611,-1.0411,-1.019,-0.9913,-0.9773,-0.9456,-0.9001,-0.9041,-0.9055,-0.9117,-0.9159,-0.9312,-0.9521,-1.0023,-1.0265,-1.0382,-1.0939,-1.13,-1.151,-1.1773,-1.2043,-1.2303,-1.2461,-1.2561,-1.2619,-1.2651,-1.2593,-1.2494,-1.2529,-1.2529,-1.2529,-1.2426,-1.2382,-1.2278,-1.2377,-1.2328,-1.2224,-1.218,-1.2175,-1.2076,-1.2026,-1.1977,-1.1972,-1.1927,-1.1828,-1.1678,-1.1619,-1.1477,-1.1221,-1.1023,-1.0773,-1.0522,-1.0371,-1.0213,-0.9999,-1.0213,-1.0474,-1.0871,-1.107,-1.1322,-1.1669,-1.2121,-1.2407,-1.2475,-1.2671,-1.2827,-1.2886,-1.2886,-1.2886,-1.2886,-1.2886,-1.2929,-1.2973,-1.308,-1.3118,-1.32,-1.3329,-1.3415,-1.3568,-1.3721,-1.3815,-1.3863,-1.3968,-1.4062,-1.4161,-1.4466,-1.468,-1.4863,-1.5051,-1.5255,-1.5396,-1.5576,-1.5715,-1.5754,-1.5875,-1.6044,-1.6151,-1.557,-1.5125,-1.4902,-1.423,-1.3622,-1.3292,-1.321,-1.321,-1.321,-1.321,-1.321,-1.321,-1.321,-1.321,-1.1115,-1.0989,-1.0863,-1.0747,-1.0621,-1.0621,-1.0428,-1.0227,-1.0214,-0.9923,-0.9469,-0.9372,-0.937,-0.9378,-0.9414,-0.9578,-0.9866,-1.0423,-1.0708,-1.079,-1.144,-1.1844,-1.2004,-1.2282,-1.2495,-1.2776,-1.2936,-1.2946,-1.2938,-1.2967,-1.2866,-1.2541,-1.2419,-1.2377,-1.2382,-1.2224,-1.218,-1.218,-1.218,-1.2121,-1.2071,-1.2026,-1.2017,-1.1981,-1.1918,-1.1882,-1.1828,-1.1778,-1.1623,-1.1573,-1.1523,-1.1377,-1.1171,-1.0972,-1.0816,-1.0569,-1.0419,-1.0261,-1.0158,-1.0265,-1.0522,-1.0867,-1.1023,-1.1276,-1.1669,-1.2031,-1.2328,-1.248,-1.2627,-1.2783,-1.2886,-1.2886,-1.2886,-1.2886,-1.2886,-1.2886,-1.2934,-1.2978,-1.3085,-1.308,-1.3152,-1.3233,-1.3314,-1.3415,-1.3568,-1.3663,-1.3868,-1.3968,-1.3968,-1.4156,-1.4419,-1.4731,-1.4915,-1.5102,-1.5261,-1.548,-1.5665,-1.5715,-1.5875,-1.6001,-1.6052,-1.5781,-1.5362,-1.4932,-1.4469,-1.3883,-1.337,-1.321,-1.321,-1.321,-1.321,-1.321,-1.321,-1.321,-1.321,-1.0926,-1.0657,-1.0737,-1.0744,-1.0621,-1.0621,-1.0598,-1.0508,-1.0577,-1.0337,-1.001,-0.9766,-0.9795,-0.9994,-0.997,-1.0183,-1.0466,-1.0865,-1.1053,-1.1118,-1.1495,-1.1796,-1.2045,-1.2304,-1.2508,-1.2641,-1.2926,-1.3035,-1.3005,-1.3145,-1.3065,-1.2664,-1.22,-1.1977,-1.1932,-1.1823,-1.1773,-1.1769,-1.1778,-1.1819,-1.1927,-1.1823,-1.1723,-1.1723,-1.1728,-1.1723,-1.1728,-1.1723,-1.1678,-1.1678,-1.1578,-1.1418,-1.1272,-1.1023,-1.0828,-1.0671,-1.0569,-1.047,-1.0466,-1.0462,-1.0569,-1.0871,-1.1023,-1.1272,-1.1623,-1.1819,-1.2071,-1.2431,-1.2627,-1.2735,-1.2881,-1.2886,-1.2886,-1.2886,-1.2886,-1.2886,-1.2886,-1.2934,-1.2978,-1.3085,-1.3075,-1.3113,-1.3228,-1.3266,-1.3314,-1.3415,-1.3673,-1.3768,-1.3815,-1.3968,-1.415,-1.4425,-1.4697,-1.496,-1.5108,-1.534,-1.5525,-1.5665,-1.5875,-1.5957,-1.5941,-1.5733,-1.5327,-1.4827,-1.44,-1.3915,-1.344,-1.321,-1.321,-1.321,-1.321,-1.321,-1.321,-1.321,-1.321,-1.0867,-1.0804,-1.0681,-1.0621,-1.0621,-1.0621,-1.0621,-1.0621,-1.0621,-1.0551,-1.0381,-1.0257,-1.0127,-0.9969,-1.007,-1.0243,-1.0483,-1.0963,-1.129,-1.1425,-1.1976,-1.2317,-1.2486,-1.2781,-1.3011,-1.3169,-1.3348,-1.3411,-1.3206,-1.2846,-1.2577,-1.2393,-1.1966,-1.1778,-1.1773,-1.1728,-1.1673,-1.1569,-1.1528,-1.1423,-1.1427,-1.1519,-1.1573,-1.1573,-1.1427,-1.1372,-1.1322,-1.128,-1.1217,-1.1221,-1.1179,-1.112,-1.1074,-1.0871,-1.0769,-1.0671,-1.0569,-1.0522,-1.0522,-1.0522,-1.0573,-1.0765,-1.0922,-1.1124,-1.1423,-1.1669,-1.1932,-1.2224,-1.2426,-1.2622,-1.2774,-1.2822,-1.2886,-1.2886,-1.2886,-1.2886,-1.2886,-1.2886,-1.2934,-1.2978,-1.2978,-1.3022,-1.3109,-1.318,-1.3208,-1.3309,-1.3462,-1.3568,-1.3568,-1.3726,-1.3915,-1.4057,-1.4373,-1.4686,-1.4915,-1.5142,-1.5334,-1.5564,-1.5697,-1.5836,-1.5928,-1.5691,-1.5299,-1.4788,-1.4356,-1.3879,-1.3304,-1.3223,-1.321,-1.321,-1.321,-1.321,-1.321,-1.321,-1.321,-1.0747,-1.0747,-1.0624,-1.0621,-1.0621,-1.0621,-1.0621,-1.0621,-1.0621,-1.0621,-1.0621,-1.0621,-1.0451,-1.0139,-1.0269,-1.0443,-1.0648,-1.1152,-1.1511,-1.1722,-1.2265,-1.2621,-1.2748,-1.3058,-1.3229,-1.3398,-1.3558,-1.3612,-1.3428,-1.2757,-1.2368,-1.2277,-1.1873,-1.1633,-1.1528,-1.1528,-1.1418,-1.1322,-1.1221,-1.1124,-1.1019,-1.112,-1.1276,-1.1318,-1.1171,-1.1027,-1.1019,-1.0977,-1.0918,-1.0918,-1.0918,-1.0875,-1.082,-1.0718,-1.0616,-1.0514,-1.0415,-1.0368,-1.0423,-1.0419,-1.0526,-1.0675,-1.0769,-1.0968,-1.1272,-1.1469,-1.1728,-1.2026,-1.2283,-1.248,-1.2681,-1.2774,-1.2832,-1.2886,-1.2886,-1.2886,-1.2886,-1.2886,-1.2886,-1.2886,-1.2934,-1.2925,-1.3027,-1.3104,-1.3185,-1.3185,-1.3271,-1.3367,-1.342,-1.3573,-1.3716,-1.3815,-1.4051,-1.4362,-1.4686,-1.496,-1.5153,-1.5334,-1.5519,-1.5754,-1.5876,-1.5593,-1.5211,-1.4697,-1.4306,-1.3898,-1.3361,-1.3217,-1.321,-1.321,-1.321,-1.321,-1.321,-1.321,-1.321,-1.0621,-1.0624,-1.0621,-1.0621,-1.0621,-1.0621,-1.0621,-1.0621,-1.0621,-1.0621,-1.0621,-1.0621,-1.0604,-1.0547,-1.0836,-1.1131,-1.1246,-1.156,-1.175,-1.1815,-1.2104,-1.2432,-1.2625,-1.2744,-1.2862,-1.3042,-1.3216,-1.3437,-1.3687,-1.3137,-1.2784,-1.252,-1.1912,-1.1467,-1.1171,-1.1023,-1.0922,-1.0972,-1.0977,-1.0938,-1.0722,-1.062,-1.0671,-1.0867,-1.0922,-1.0871,-1.0867,-1.0867,-1.0867,-1.0867,-1.0867,-1.082,-1.0722,-1.0569,-1.036,-1.0106,-1.0054,-1.0102,-1.0265,-1.032,-1.0415,-1.062,-1.0667,-1.0871,-1.1226,-1.1322,-1.1523,-1.1873,-1.2022,-1.2274,-1.2578,-1.2676,-1.2783,-1.2881,-1.2886,-1.2886,-1.2886,-1.2886,-1.2886,-1.2886,-1.2886,-1.2929,-1.2929,-1.3032,-1.3075,-1.3118,-1.3147,-1.3271,-1.3319,-1.3415,-1.352,-1.3721,-1.3815,-1.3952,-1.4378,-1.4697,-1.4966,-1.5198,-1.543,-1.5674,-1.5562,-1.5434,-1.4997,-1.4569,-1.4125,-1.3696,-1.3345,-1.321,-1.321,-1.321,-1.321,-1.321,-1.321,-1.321,-1.321,-1.0621,-1.0621,-1.0621,-1.0621,-1.0621,-1.0621,-1.0621,-1.0621,-1.0621,-1.0621,-1.0621,-1.0621,-1.0621,-1.0624,-1.0807,-1.0996,-1.1185,-1.1373,-1.1619,-1.1806,-1.1926,-1.2058,-1.2309,-1.2556,-1.2683,-1.2732,-1.2977,-1.3159,-1.3239,-1.2848,-1.248,-1.2171,-1.1756,-1.1291,-1.0984,-1.082,-1.0722,-1.0675,-1.0577,-1.0466,-1.0265,-1.0205,-1.0205,-1.0308,-1.0308,-1.0304,-1.0308,-1.0304,-1.0312,-1.0304,-1.036,-1.0308,-1.0257,-1.0205,-1.0106,-0.9999,-1.0007,-1.0054,-1.011,-1.011,-1.0213,-1.0415,-1.0518,-1.0671,-1.0922,-1.1175,-1.1372,-1.1519,-1.1823,-1.2076,-1.2278,-1.2534,-1.2735,-1.2779,-1.2837,-1.2886,-1.2886,-1.2886,-1.2886,-1.2886,-1.2886,-1.2886,-1.2905,-1.292,-1.2973,-1.2973,-1.3065,-1.3132,-1.319,-1.3276,-1.3394,-1.351,-1.3673,-1.3868,-1.4104,-1.4425,-1.4691,-1.5017,-1.522,-1.5239,-1.5193,-1.4815,-1.4373,-1.4114,-1.3723,-1.3492,-1.317,-1.321,-1.321,-1.321,-1.321,-1.321,-1.321,-1.321,-1.321,-1.0621,-1.0621,-1.0621,-1.0621,-1.0621,-1.0621,-1.0621,-1.0621,-1.0621,-1.0621,-1.0621,-1.0621,-1.0621,-1.0621,-1.0688,-1.0807,-1.0996,-1.1185,-1.1369,-1.1615,-1.1681,-1.1802,-1.2062,-1.2313,-1.2432,-1.2425,-1.2613,-1.2744,-1.2716,-1.2494,-1.219,-1.1784,-1.1422,-1.1079,-1.0645,-1.0514,-1.0411,-1.0312,-1.0213,-1.0106,-0.9951,-0.9829,-0.9781,-0.9836,-0.9784,-0.9844,-1.0007,-1.0007,-1.0007,-1.0003,-0.9995,-0.9991,-0.9936,-0.994,-0.9892,-0.9892,-0.9892,-0.9892,-0.9951,-0.9947,-0.9999,-1.0209,-1.032,-1.047,-1.062,-1.0867,-1.1112,-1.1318,-1.1523,-1.1778,-1.2026,-1.2328,-1.2529,-1.2681,-1.2779,-1.2881,-1.2881,-1.2886,-1.2886,-1.2886,-1.2886,-1.2827,-1.2695,-1.2671,-1.2578,-1.2542,-1.256,-1.2649,-1.2691,-1.2904,-1.3153,-1.3221,-1.3485,-1.37,-1.391,-1.4129,-1.449,-1.4812,-1.4855,-1.483,-1.4652,-1.4268,-1.3892,-1.363,-1.341,-1.3208,-1.3135,-1.321,-1.321,-1.321,-1.321,-1.321,-1.321,-1.321,-1.321,-1.0621,-1.0621,-1.0621,-1.0621,-1.0621,-1.0621,-1.0621,-1.0621,-1.0621,-1.0621,-1.0621,-1.0621,-1.0621,-1.0621,-1.0624,-1.0684,-1.0811,-1.0996,-1.1181,-1.1369,-1.1498,-1.1619,-1.1806,-1.1996,-1.2123,-1.2123,-1.2127,-1.2185,-1.2297,-1.2189,-1.1871,-1.1382,-1.1189,-1.0778,-1.0054,-1.0054,-1.0003,-0.9999,-0.994,-0.9832,-0.9784,-0.9558,-0.9447,-0.9413,-0.9312,-0.9472,-0.9951,-0.9951,-0.9951,-0.9943,-0.9928,-0.9917,-0.9769,-0.9784,-0.9732,-0.9618,-0.9618,-0.9681,-0.9795,-0.9799,-0.9844,-1.0003,-1.0213,-1.0316,-1.0466,-1.0553,-1.0744,-1.1116,-1.1326,-1.1477,-1.1828,-1.2026,-1.2274,-1.2622,-1.2681,-1.2779,-1.2886,-1.2886,-1.2886,-1.2881,-1.2842,-1.2676,-1.2373,-1.2236,-1.2109,-1.1876,-1.1768,-1.1832,-1.198,-1.2253,-1.2493,-1.2726,-1.2996,-1.3253,-1.358,-1.3884,-1.4242,-1.455,-1.4495,-1.4422,-1.4204,-1.3867,-1.3584,-1.3332,-1.3269,-1.3084,-1.317,-1.321,-1.321,-1.321,-1.321,-1.321,-1.321,-1.321,-1.321,-1.0621,-1.0621,-1.0621,-1.0621,-1.0621,-1.0621,-1.0621,-1.0621,-1.0621,-1.0621,-1.0621,-1.0621,-1.0621,-1.0621,-1.0621,-1.0618,-1.0684,-1.0747,-1.0874,-1.1122,-1.1247,-1.1306,-1.1494,-1.1689,-1.1879,-1.2058,-1.1992,-1.2046,-1.2123,-1.212,-1.1782,-1.1283,-1.1103,-1.0695,-1.0037,-0.9899,-0.9844,-0.9721,-0.9618,-0.9521,-0.9424,-0.9309,-0.9253,-0.926,-0.9211,-0.9316,-0.9424,-0.942,-0.9417,-0.9469,-0.9469,-0.9409,-0.9413,-0.9364,-0.942,-0.9462,-0.9462,-0.9517,-0.9621,-0.9677,-0.9732,-0.9844,-0.9959,-1.0114,-1.032,-1.0466,-1.0608,-1.0875,-1.1124,-1.1372,-1.1528,-1.1778,-1.2076,-1.2377,-1.2583,-1.2676,-1.2783,-1.2837,-1.2886,-1.2837,-1.2622,-1.2383,-1.2156,-1.2017,-1.1699,-1.1596,-1.1542,-1.1547,-1.165,-1.1801,-1.2018,-1.2196,-1.2436,-1.2703,-1.2986,-1.3218,-1.3459,-1.3729,-1.3818,-1.3906,-1.3709,-1.3509,-1.3235,-1.3132,-1.3061,-1.3056,-1.3182,-1.321,-1.321,-1.321,-1.321,-1.321,-1.321,-1.321,-1.321,-1.0621,-1.0621,-1.0621,-1.0621,-1.0621,-1.0621,-1.0621,-1.0621,-1.0621,-1.0621,-1.0621,-1.0621,-1.0621,-1.0621,-1.0621,-1.0621,-1.0621,-1.0621,-1.0684,-1.094,-1.1,-1.1059,-1.1247,-1.1369,-1.1494,-1.1689,-1.1615,-1.1674,-1.1747,-1.1725,-1.1409,-1.0808,-1.0762,-1.038,-0.975,-0.9636,-0.9524,-0.9462,-0.9364,-0.9316,-0.9215,-0.9162,-0.911,-0.911,-0.9061,-0.9064,-0.9057,-0.9057,-0.9106,-0.9155,-0.9204,-0.9162,-0.9169,-0.9215,-0.9263,-0.9312,-0.9312,-0.9364,-0.9413,-0.9413,-0.9517,-0.9632,-0.9684,-0.9844,-1.011,-1.0316,-1.0466,-1.0671,-1.0918,-1.1167,-1.1326,-1.1578,-1.1873,-1.2126,-1.2382,-1.2573,-1.2681,-1.2832,-1.2886,-1.2803,-1.252,-1.2212,-1.1943,-1.1606,-1.125,-1.1185,-1.1121,-1.1126,-1.1165,-1.13,-1.1492,-1.1687,-1.1958,-1.2203,-1.2397,-1.2542,-1.2652,-1.2862,-1.3043,-1.3208,-1.3222,-1.3021,-1.2775,-1.2944,-1.2961,-1.3037,-1.3129,-1.3204,-1.321,-1.321,-1.321,-1.321,-1.321,-1.321,-1.321,-1.0621,-1.0621,-1.0621,-1.0621,-1.0621,-1.0621,-1.0621,-1.0621,-1.0621,-1.0621,-1.0621,-1.0621,-1.0621,-1.0621,-1.0621,-1.0621,-1.0621,-1.0621,-1.0621,-1.0684,-1.0747,-1.087,-1.1059,-1.1122,-1.1185,-1.1188,-1.1181,-1.1188,-1.1247,-1.1187,-1.0791,-1.0245,-1.0126,-0.981,-0.9369,-0.9208,-0.9215,-0.9208,-0.9211,-0.9159,-0.9155,-0.9057,-0.8959,-0.8952,-0.8854,-0.8857,-0.8857,-0.8857,-0.8956,-0.9103,-0.9155,-0.9117,-0.918,-0.9169,-0.9159,-0.9159,-0.9211,-0.9215,-0.9208,-0.9256,-0.9263,-0.9413,-0.9517,-0.9621,-0.9844,-1.0106,-1.0316,-1.0466,-1.0722,-1.0977,-1.1221,-1.1423,-1.1623,-1.1868,-1.218,-1.2431,-1.2686,-1.2788,-1.2852,-1.2749,-1.2456,-1.2021,-1.1626,-1.1152,-1.0767,-1.0503,-1.041,-1.0494,-1.0538,-1.0784,-1.0962,-1.1229,-1.1494,-1.1639,-1.1809,-1.2008,-1.2071,-1.2144,-1.2383,-1.2653,-1.2846,-1.2687,-1.2657,-1.281,-1.2937,-1.3012,-1.3123,-1.317,-1.321,-1.321,-1.321,-1.321,-1.321,-1.321,-1.3239,-1.0621,-1.0621,-1.0621,-1.0621,-1.0621,-1.0621,-1.0621,-1.0621,-1.0621,-1.0621,-1.0621,-1.0621,-1.0621,-1.0621,-1.0621,-1.0621,-1.0621,-1.0621,-1.0621,-1.0624,-1.0624,-1.0741,-1.087,-1.0996,-1.1062,-1.1062,-1.1062,-1.1129,-1.1104,-1.0846,-1.0527,-1.0139,-0.9911,-0.9617,-0.926,-0.9155,-0.9162,-0.9054,-0.9064,-0.9008,-0.8906,-0.8854,-0.886,-0.8857,-0.8804,-0.8808,-0.8808,-0.8808,-0.8804,-0.891,-0.8906,-0.891,-0.8917,-0.891,-0.8959,-0.9061,-0.9057,-0.911,-0.9159,-0.9155,-0.9208,-0.926,-0.9364,-0.9521,-0.9621,-0.9844,-1.0058,-1.0316,-1.0522,-1.0718,-1.0977,-1.1221,-1.1519,-1.1868,-1.213,-1.2382,-1.2637,-1.2725,-1.2677,-1.238,-1.2026,-1.1611,-1.1186,-1.0771,-1.0449,-1.0361,-1.0322,-1.0322,-1.0366,-1.0391,-1.0636,-1.071,-1.0888,-1.1008,-1.118,-1.1386,-1.151,-1.1523,-1.1784,-1.2178,-1.2417,-1.2573,-1.2663,-1.2867,-1.2902,-1.2972,-1.3129,-1.321,-1.321,-1.321,-1.321,-1.321,-1.321,-1.321,-1.3267,-1.0621,-1.0621,-1.0621,-1.0621,-1.0621,-1.0621,-1.0621,-1.0621,-1.0621,-1.0621,-1.0621,-1.0621,-1.0621,-1.0621,-1.0621,-1.0621,-1.0621,-1.0621,-1.0621,-1.0621,-1.0621,-1.0618,-1.0744,-1.087,-1.087,-1.0874,-1.0867,-1.0874,-1.0822,-1.0564,-1.0265,-0.9904,-0.9663,-0.9363,-0.9036,-0.9061,-0.9008,-0.8906,-0.891,-0.8854,-0.8808,-0.8808,-0.8808,-0.8808,-0.8808,-0.8808,-0.8808,-0.8808,-0.8808,-0.8808,-0.8808,-0.8808,-0.8808,-0.8808,-0.8857,-0.8906,-0.8906,-0.8959,-0.9012,-0.9061,-0.9054,-0.911,-0.9211,-0.9312,-0.9514,-0.9625,-0.984,-1.0058,-1.0312,-1.0569,-1.0773,-1.1074,-1.1427,-1.1773,-1.2031,-1.2269,-1.2583,-1.2686,-1.2527,-1.2229,-1.1836,-1.1392,-1.0957,-1.0537,-1.0376,-1.0322,-1.0322,-1.0322,-1.0327,-1.0322,-1.0361,-1.051,-1.0626,-1.0799,-1.1015,-1.1218,-1.1377,-1.1357,-1.1682,-1.1979,-1.2228,-1.2478,-1.2691,-1.2838,-1.2867,-1.2972,-1.3094,-1.321,-1.321,-1.321,-1.321,-1.321,-1.321,-1.3273,-1.3329,-1.0621,-1.0621,-1.0621,-1.0621,-1.0621,-1.0621,-1.0621,-1.0621,-1.0621,-1.0621,-1.0621,-1.0621,-1.0621,-1.0621,-1.0621,-1.0621,-1.0621,-1.0621,-1.0621,-1.0621,-1.0621,-1.0621,-1.0618,-1.0618,-1.0618,-1.0621,-1.0621,-1.0584,-1.0473,-1.0184,-0.991,-0.9647,-0.9309,-0.9072,-0.8904,-0.8804,-0.8804,-0.8804,-0.8808,-0.8804,-0.8808,-0.8808,-0.8808,-0.8808,-0.8748,-0.8748,-0.8748,-0.8752,-0.8748,-0.8752,-0.8804,-0.8808,-0.8808,-0.8808,-0.8808,-0.8808,-0.8804,-0.8804,-0.8808,-0.8857,-0.8857,-0.8959,-0.9012,-0.911,-0.9357,-0.9521,-0.9681,-0.9851,-1.0217,-1.0419,-1.0675,-1.1023,-1.1377,-1.1673,-1.1873,-1.2076,-1.2377,-1.2573,-1.2561,-1.2229,-1.1831,-1.1401,-1.0967,-1.0576,-1.0322,-1.0322,-1.0322,-1.0322,-1.0322,-1.0322,-1.0395,-1.0544,-1.0626,-1.0669,-1.0891,-1.1098,-1.126,-1.1384,-1.1808,-1.2119,-1.2305,-1.2556,-1.2697,-1.2838,-1.2902,-1.3012,-1.317,-1.321,-1.321,-1.321,-1.321,-1.321,-1.321,-1.3301,-1.3391,-1.0621,-1.0621,-1.0621,-1.0621,-1.0621,-1.0621,-1.0611,-1.0604,-1.0608,-1.0531,-1.0614,-1.0614,-1.0621,-1.0621,-1.0621,-1.0621,-1.0621,-1.0621,-1.0621,-1.0621,-1.0621,-1.0621,-1.0621,-1.0621,-1.0621,-1.0621,-1.0621,-1.0441,-1.0217,-0.9953,-0.9626,-0.9296,-0.9102,-0.8878,-0.8824,-0.8752,-0.8808,-0.8808,-0.8808,-0.8752,-0.8752,-0.8752,-0.8752,-0.8752,-0.8689,-0.8633,-0.8636,-0.8533,-0.8533,-0.8639,-0.8748,-0.8752,-0.8808,-0.8808,-0.8808,-0.8808,-0.8808,-0.8808,-0.8808,-0.8808,-0.8811,-0.8857,-0.8962,-0.9061,-0.9208,-0.9364,-0.9577,-0.9744,-1.0007,-1.0308,-1.0769,-1.1124,-1.1423,-1.1623,-1.1823,-1.2026,-1.2274,-1.2485,-1.2387,-1.2085,-1.1791,-1.1435,-1.0962,-1.0542,-1.0371,-1.0337,-1.0322,-1.0322,-1.0322,-1.0322,-1.0433,-1.0544,-1.0626,-1.0669,-1.0914,-1.1158,-1.1341,-1.1522,-1.1906,-1.2222,-1.2377,-1.2562,-1.2733,-1.2838,-1.2902,-1.3019,-1.317,-1.321,-1.321,-1.321,-1.321,-1.321,-1.3239,-1.3329,-1.3419,-1.0147,-1.015,-1.0211,-1.0208,-1.015,-1.0154,-1.0147,-1.0177,-1.0307,-1.0351,-1.0388,-1.0547,-1.0618,-1.0621,-1.0621,-1.0621,-1.0621,-1.0621,-1.0621,-1.0621,-1.0621,-1.0621,-1.0621,-1.0621,-1.0621,-1.0618,-1.0621,-1.0391,-1.0114,-0.9813,-0.9546,-0.9183,-0.8945,-0.8778,-0.8692,-0.8692,-0.8639,-0.8586,-0.8643,-0.8643,-0.8643,-0.8643,-0.8643,-0.859,-0.853,-0.8527,-0.8471,-0.8424,-0.8474,-0.8524,-0.8583,-0.8695,-0.8808,-0.8808,-0.8808,-0.8808,-0.8808,-0.8808,-0.8808,-0.8808,-0.8808,-0.8808,-0.886,-0.9012,-0.9162,-0.926,-0.9417,-0.9681,-0.9892,-1.0257,-1.0816,-1.0977,-1.1276,-1.1623,-1.1773,-1.1923,-1.2175,-1.2377,-1.2368,-1.2043,-1.1791,-1.1396,-1.0967,-1.0571,-1.0381,-1.0322,-1.0322,-1.0322,-1.0322,-1.0322,-1.0433,-1.0544,-1.0582,-1.0708,-1.0957,-1.119,-1.1453,-1.1666,-1.1979,-1.2228,-1.2377,-1.2591,-1.2768,-1.2832,-1.2902,-1.3012,-1.3129,-1.317,-1.321,-1.321,-1.321,-1.321,-1.3273,-1.3357,-1.3419,-0.9625,-0.9683,-0.9689,-0.9686,-0.9689,-0.9706,-0.9726,-0.9746,-0.9943,-1.0053,-1.0107,-1.0361,-1.0448,-1.0484,-1.0544,-1.0621,-1.0621,-1.0621,-1.0621,-1.0621,-1.0621,-1.0621,-1.0608,-1.0494,-1.0448,-1.0491,-1.0461,-1.0294,-1.0013,-0.975,-0.9406,-0.9107,-0.8884,-0.8699,-0.8577,-0.8577,-0.8527,-0.8477,-0.8477,-0.848,-0.8424,-0.8424,-0.8368,-0.8424,-0.8374,-0.8374,-0.8371,-0.8321,-0.8321,-0.8374,-0.8378,-0.848,-0.8639,-0.8752,-0.8804,-0.8804,-0.8808,-0.8808,-0.8808,-0.8808,-0.8808,-0.8808,-0.8808,-0.8959,-0.9106,-0.9208,-0.9368,-0.9625,-0.994,-1.0312,-1.0816,-1.0918,-1.1171,-1.1573,-1.1719,-1.1823,-1.2081,-1.2332,-1.2353,-1.2172,-1.1829,-1.1426,-1.1045,-1.0669,-1.0498,-1.0322,-1.0322,-1.0322,-1.0322,-1.0356,-1.0433,-1.0549,-1.0626,-1.0784,-1.1033,-1.1341,-1.1565,-1.1771,-1.2052,-1.2233,-1.2413,-1.2627,-1.2803,-1.2867,-1.2937,-1.3047,-1.3129,-1.317,-1.321,-1.321,-1.321,-1.3245,-1.3301,-1.3391,-1.3452,-0.9444,-0.9515,-0.9518,-0.9631,-0.9679,-0.9679,-0.9653,-0.9689,-0.9713,-0.9753,-0.9796,-1.006,-1.0187,-1.0237,-1.0468,-1.0608,-1.0504,-1.0538,-1.0544,-1.0528,-1.0518,-1.0514,-1.0431,-1.0267,-1.0194,-1.0194,-1.016,-1.0,-0.9746,-0.9456,-0.916,-0.8767,-0.8662,-0.8577,-0.8474,-0.8424,-0.8421,-0.8315,-0.8318,-0.8371,-0.8315,-0.8253,-0.82,-0.8262,-0.8215,-0.8165,-0.8165,-0.8058,-0.8058,-0.8218,-0.8221,-0.8321,-0.848,-0.858,-0.8689,-0.8748,-0.8804,-0.8808,-0.8808,-0.8808,-0.8808,-0.8808,-0.8808,-0.8906,-0.9106,-0.9204,-0.942,-0.9744,-1.0054,-1.0419,-1.0816,-1.0918,-1.1175,-1.1523,-1.1719,-1.1828,-1.2081,-1.2318,-1.2501,-1.2354,-1.1933,-1.1557,-1.1234,-1.083,-1.0508,-1.0371,-1.0322,-1.0322,-1.0322,-1.0356,-1.0467,-1.0582,-1.0703,-1.0904,-1.1147,-1.1453,-1.1714,-1.1844,-1.2089,-1.2305,-1.2484,-1.2668,-1.2803,-1.2867,-1.2978,-1.3094,-1.3135,-1.321,-1.321,-1.321,-1.3245,-1.3239,-1.3329,-1.3419,-1.348,-0.8886,-0.8948,-0.8951,-0.8948,-0.9056,-0.9004,-0.9056,-0.9134,-0.927,-0.9399,-0.9482,-0.9623,-0.9824,-0.9864,-0.995,-1.0099,-1.0324,-1.0511,-1.0468,-1.0381,-1.0331,-1.0234,-1.0147,-0.995,-0.9907,-0.9846,-0.9746,-0.9616,-0.9456,-0.922,-0.8905,-0.8642,-0.8521,-0.8418,-0.8318,-0.8271,-0.8159,-0.8103,-0.8049,-0.8052,-0.7946,-0.788,-0.7883,-0.7889,-0.7895,-0.7845,-0.7788,-0.7791,-0.7785,-0.7889,-0.7943,-0.8055,-0.8215,-0.8374,-0.8474,-0.8639,-0.8748,-0.8808,-0.8808,-0.8808,-0.8808,-0.8808,-0.886,-0.9012,-0.9159,-0.9256,-0.9528,-0.9847,-1.0213,-1.0522,-1.0871,-1.1027,-1.1331,-1.1628,-1.1773,-1.1923,-1.2175,-1.2372,-1.2471,-1.254,-1.2213,-1.1855,-1.1508,-1.1064,-1.061,-1.04,-1.0342,-1.0322,-1.0322,-1.039,-1.0462,-1.0664,-1.0822,-1.1023,-1.126,-1.1528,-1.1782,-1.1949,-1.2125,-1.2341,-1.2514,-1.2697,-1.2803,-1.2902,-1.3012,-1.3129,-1.317,-1.321,-1.321,-1.321,-1.321,-1.3239,-1.3363,-1.3452,-1.3514,-0.8321,-0.8374,-0.8371,-0.8371,-0.8368,-0.8371,-0.8487,-0.8572,-0.878,-0.8932,-0.9026,-0.9202,-0.9346,-0.9491,-0.9502,-0.9636,-0.9987,-1.0212,-1.0139,-0.9953,-0.997,-0.984,-0.9753,-0.9616,-0.9589,-0.9552,-0.9259,-0.913,-0.9144,-0.8993,-0.8785,-0.8535,-0.8368,-0.8265,-0.8109,-0.8058,-0.7892,-0.7729,-0.767,-0.7563,-0.7515,-0.7518,-0.7521,-0.7521,-0.7521,-0.7521,-0.7574,-0.7574,-0.7571,-0.7673,-0.7723,-0.7833,-0.8055,-0.8168,-0.8325,-0.8471,-0.8636,-0.8748,-0.8808,-0.8808,-0.8808,-0.8808,-0.8903,-0.9057,-0.9215,-0.9417,-0.9681,-1.0047,-1.036,-1.0671,-1.0922,-1.1171,-1.1427,-1.1628,-1.1828,-1.1981,-1.2229,-1.2431,-1.2529,-1.2507,-1.2405,-1.2129,-1.1709,-1.1162,-1.0684,-1.0386,-1.0322,-1.0322,-1.0322,-1.0428,-1.0539,-1.0741,-1.0942,-1.1179,-1.1373,-1.1602,-1.185,-1.201,-1.2191,-1.2407,-1.2585,-1.2762,-1.2832,-1.2937,-1.3053,-1.317,-1.3204,-1.321,-1.321,-1.321,-1.321,-1.3273,-1.3397,-1.3493,-1.3554,-0.8055,-0.8221,-0.8221,-0.8268,-0.8368,-0.8368,-0.8421,-0.8427,-0.8479,-0.8475,-0.8577,-0.8751,-0.8888,-0.8996,-0.9208,-0.9324,-0.9447,-0.9518,-0.9531,-0.9444,-0.9496,-0.9518,-0.9443,-0.9342,-0.9253,-0.9144,-0.8897,-0.8866,-0.8883,-0.8753,-0.8538,-0.8325,-0.8215,-0.8112,-0.7836,-0.7839,-0.7676,-0.7518,-0.7461,-0.7405,-0.7405,-0.741,-0.7464,-0.7464,-0.7464,-0.741,-0.741,-0.741,-0.7464,-0.7515,-0.7616,-0.7723,-0.778,-0.8062,-0.8165,-0.8321,-0.8477,-0.8685,-0.8748,-0.8808,-0.8808,-0.8804,-0.8959,-0.9057,-0.9316,-0.9629,-0.9999,-1.0415,-1.0569,-1.0769,-1.1019,-1.1226,-1.1427,-1.1678,-1.1877,-1.2026,-1.2278,-1.2485,-1.2583,-1.2676,-1.2638,-1.2231,-1.1802,-1.1245,-1.0762,-1.0488,-1.0322,-1.0322,-1.0361,-1.0467,-1.0659,-1.0866,-1.1023,-1.1255,-1.148,-1.1708,-1.1918,-1.2108,-1.2294,-1.2478,-1.2656,-1.2797,-1.2943,-1.3019,-1.3129,-1.317,-1.3204,-1.321,-1.321,-1.321,-1.321,-1.3342,-1.3465,-1.3527,-1.3594,-0.7735,-0.7785,-0.7892,-0.7946,-0.7996,-0.8052,-0.8165,-0.8268,-0.8271,-0.8321,-0.8387,-0.8536,-0.8546,-0.8622,-0.8898,-0.9019,-0.9058,-0.9173,-0.9157,-0.9042,-0.9076,-0.9005,-0.8896,-0.8786,-0.8721,-0.8756,-0.8614,-0.8488,-0.8492,-0.847,-0.8268,-0.8218,-0.7996,-0.7839,-0.7673,-0.7616,-0.7458,-0.73,-0.7136,-0.7028,-0.7028,-0.7031,-0.7087,-0.7087,-0.7082,-0.7085,-0.7087,-0.7144,-0.7195,-0.7249,-0.741,-0.7568,-0.7676,-0.7839,-0.7999,-0.8218,-0.8374,-0.853,-0.8685,-0.8752,-0.8808,-0.8854,-0.9008,-0.9263,-0.9528,-0.9788,-1.0154,-1.0466,-1.0722,-1.0918,-1.1167,-1.1372,-1.1573,-1.1773,-1.1977,-1.2175,-1.2328,-1.2529,-1.2686,-1.2783,-1.2793,-1.2422,-1.2052,-1.1631,-1.115,-1.0698,-1.0464,-1.0356,-1.0433,-1.0587,-1.0789,-1.1001,-1.1152,-1.1298,-1.1554,-1.1771,-1.2022,-1.2222,-1.236,-1.255,-1.2726,-1.2873,-1.2984,-1.306,-1.3135,-1.3176,-1.321,-1.321,-1.321,-1.321,-1.321,-1.3335,-1.3465,-1.352,-1.3615,-0.73,-0.7357,-0.7566,-0.7673,-0.767,-0.7732,-0.7898,-0.8008,-0.8008,-0.8055,-0.8156,-0.8168,-0.8168,-0.8196,-0.8363,-0.8407,-0.8475,-0.8789,-0.8739,-0.8623,-0.8606,-0.852,-0.8486,-0.8394,-0.8443,-0.8368,-0.8394,-0.834,-0.8231,-0.8112,-0.8052,-0.8058,-0.783,-0.7619,-0.7566,-0.7405,-0.7246,-0.7028,-0.6758,-0.6652,-0.6652,-0.6596,-0.6652,-0.6652,-0.6652,-0.665,-0.6707,-0.6817,-0.6925,-0.7036,-0.7198,-0.7357,-0.7574,-0.7673,-0.7836,-0.8052,-0.8265,-0.848,-0.8583,-0.8695,-0.8752,-0.8854,-0.9061,-0.9375,-0.9788,-0.9943,-1.0201,-1.0565,-1.0773,-1.1023,-1.1322,-1.1573,-1.1673,-1.1873,-1.2126,-1.2328,-1.2475,-1.2627,-1.2735,-1.2837,-1.2852,-1.2759,-1.2405,-1.2068,-1.1552,-1.0981,-1.0675,-1.0449,-1.0544,-1.0708,-1.0909,-1.1109,-1.1266,-1.141,-1.1628,-1.1875,-1.2119,-1.23,-1.2473,-1.2615,-1.2762,-1.2908,-1.3019,-1.3094,-1.3176,-1.321,-1.321,-1.321,-1.321,-1.3239,-1.3232,-1.3369,-1.3465,-1.352,-1.3682,-0.6817,-0.6869,-0.73,-0.7521,-0.7523,-0.7521,-0.7521,-0.7574,-0.7574,-0.7571,-0.7625,-0.7571,-0.7625,-0.7637,-0.7711,-0.7743,-0.7668,-0.7776,-0.7862,-0.7964,-0.8083,-0.8155,-0.8162,-0.8209,-0.8315,-0.8318,-0.8215,-0.8165,-0.8109,-0.7892,-0.778,-0.7726,-0.7613,-0.7402,-0.7244,-0.7085,-0.6925,-0.6707,-0.6492,-0.6384,-0.6381,-0.6327,-0.627,-0.6381,-0.6438,-0.6492,-0.6707,-0.6655,-0.6712,-0.6877,-0.7036,-0.7198,-0.7359,-0.7566,-0.7726,-0.7886,-0.8212,-0.8371,-0.8477,-0.8643,-0.8808,-0.8864,-0.9071,-0.9435,-0.9895,-0.9921,-1.023,-1.0714,-1.0875,-1.1129,-1.1377,-1.1623,-1.1773,-1.1977,-1.2224,-1.2377,-1.2524,-1.2622,-1.2779,-1.2886,-1.2847,-1.2831,-1.2717,-1.236,-1.1827,-1.1248,-1.0746,-1.0505,-1.0659,-1.0855,-1.0975,-1.1174,-1.1373,-1.156,-1.1739,-1.1985,-1.2186,-1.2371,-1.2556,-1.2691,-1.2832,-1.2978,-1.306,-1.3135,-1.321,-1.321,-1.321,-1.321,-1.3204,-1.3232,-1.3295,-1.3397,-1.3554,-1.3709,-1.3881,-0.6317,-0.6312,-0.665,-0.6925,-0.7147,-0.7249,-0.7246,-0.7252,-0.7246,-0.7303,-0.7365,-0.7365,-0.7419,-0.747,-0.7521,-0.7521,-0.7518,-0.7515,-0.7566,-0.7622,-0.7735,-0.7791,-0.7785,-0.7839,-0.7839,-0.7892,-0.7788,-0.7788,-0.7732,-0.7622,-0.7458,-0.7402,-0.7348,-0.7241,-0.7082,-0.6763,-0.6497,-0.6389,-0.6171,-0.6062,-0.6007,-0.6007,-0.5952,-0.6009,-0.6005,-0.6114,-0.6273,-0.6332,-0.644,-0.6603,-0.682,-0.7039,-0.7201,-0.741,-0.7622,-0.7726,-0.8103,-0.8318,-0.8421,-0.8639,-0.8857,-0.9064,-0.9169,-0.9435,-0.9947,-0.9984,-1.0293,-1.0663,-1.0922,-1.1129,-1.1573,-1.1673,-1.1828,-1.2076,-1.2278,-1.2475,-1.2578,-1.2725,-1.2779,-1.2886,-1.2934,-1.2905,-1.2767,-1.2634,-1.2074,-1.1497,-1.1025,-1.0703,-1.0817,-1.0975,-1.1136,-1.1287,-1.148,-1.1697,-1.1875,-1.2077,-1.2246,-1.2437,-1.2633,-1.2768,-1.2908,-1.2984,-1.31,-1.3176,-1.321,-1.321,-1.321,-1.321,-1.3239,-1.326,-1.3329,-1.3465,-1.3648,-1.3835,-1.4046,-0.5993,-0.5875,-0.6109,-0.6443,-0.6763,-0.6923,-0.6972,-0.6974,-0.6977,-0.7033,-0.7152,-0.7149,-0.7198,-0.7249,-0.7249,-0.7249,-0.7246,-0.73,-0.7354,-0.7408,-0.7464,-0.7464,-0.7521,-0.7518,-0.7571,-0.7518,-0.7521,-0.7518,-0.7571,-0.7467,-0.73,-0.7139,-0.6925,-0.6817,-0.6712,-0.6391,-0.6071,-0.6012,-0.59,-0.5734,-0.5736,-0.5683,-0.5736,-0.5736,-0.5789,-0.5843,-0.6005,-0.6116,-0.6223,-0.644,-0.6657,-0.6877,-0.7093,-0.7306,-0.7518,-0.7732,-0.7946,-0.8215,-0.8424,-0.8639,-0.8906,-0.911,-0.9155,-0.9476,-0.9844,-1.0047,-1.0356,-1.0765,-1.0922,-1.1124,-1.1619,-1.1723,-1.1877,-1.2126,-1.2377,-1.2529,-1.2681,-1.2783,-1.2832,-1.2886,-1.2934,-1.2973,-1.2907,-1.2757,-1.2277,-1.1742,-1.1379,-1.1033,-1.0947,-1.1142,-1.1298,-1.1448,-1.1591,-1.1802,-1.2041,-1.218,-1.2324,-1.2544,-1.2733,-1.285,-1.299,-1.3066,-1.3135,-1.3176,-1.321,-1.321,-1.3204,-1.3204,-1.3232,-1.326,-1.3391,-1.3527,-1.3728,-1.3914,-1.4072,-0.5716,-0.5618,-0.5719,-0.5984,-0.634,-0.6593,-0.6701,-0.665,-0.665,-0.6707,-0.6766,-0.6709,-0.6761,-0.6815,-0.6815,-0.6812,-0.6866,-0.7031,-0.7085,-0.7136,-0.7249,-0.741,-0.741,-0.741,-0.7357,-0.7464,-0.741,-0.7357,-0.741,-0.7246,-0.7082,-0.6869,-0.6497,-0.6282,-0.623,-0.5957,-0.5848,-0.5793,-0.5677,-0.5565,-0.551,-0.5405,-0.5403,-0.551,-0.5565,-0.5624,-0.5791,-0.5898,-0.6059,-0.6223,-0.6492,-0.6712,-0.6931,-0.7252,-0.7464,-0.7571,-0.7949,-0.8218,-0.8431,-0.8643,-0.8903,-0.9159,-0.9204,-0.9476,-0.9895,-1.0102,-1.036,-1.0769,-1.093,-1.123,-1.1523,-1.1719,-1.1923,-1.2224,-1.2426,-1.2578,-1.273,-1.2837,-1.2886,-1.2934,-1.3032,-1.3099,-1.3007,-1.2887,-1.2375,-1.1972,-1.168,-1.1449,-1.1236,-1.1266,-1.1421,-1.1591,-1.1734,-1.1943,-1.215,-1.2294,-1.2437,-1.2621,-1.2803,-1.2914,-1.3031,-1.3141,-1.3176,-1.321,-1.321,-1.321,-1.3204,-1.3232,-1.3295,-1.3391,-1.3527,-1.3655,-1.3822,-1.3987,-1.4183,-0.4997,-0.505,-0.505,-0.5153,-0.5339,-0.5846,-0.6114,-0.6116,-0.6114,-0.6168,-0.622,-0.6218,-0.6381,-0.649,-0.6544,-0.6542,-0.6701,-0.6758,-0.6812,-0.6866,-0.6977,-0.692,-0.6972,-0.7031,-0.7031,-0.7033,-0.7033,-0.7033,-0.7036,-0.6869,-0.6709,-0.644,-0.6116,-0.5896,-0.59,-0.5736,-0.5624,-0.5462,-0.535,-0.5236,-0.5122,-0.5069,-0.5124,-0.5289,-0.5289,-0.5403,-0.5626,-0.5734,-0.5843,-0.6007,-0.6277,-0.6497,-0.6766,-0.7085,-0.73,-0.7464,-0.7785,-0.8046,-0.8315,-0.8583,-0.8847,-0.905,-0.9208,-0.9427,-0.9795,-0.9995,-1.0308,-1.0671,-1.0875,-1.1175,-1.1578,-1.1669,-1.1868,-1.2274,-1.2524,-1.2676,-1.2783,-1.2837,-1.2934,-1.2939,-1.2983,-1.321,-1.321,-1.3298,-1.2912,-1.2449,-1.2163,-1.1747,-1.1502,-1.1459,-1.1528,-1.1771,-1.1943,-1.2119,-1.2258,-1.2401,-1.2544,-1.2726,-1.2832,-1.2943,-1.306,-1.3176,-1.321,-1.321,-1.321,-1.321,-1.3232,-1.3295,-1.3419,-1.3547,-1.3655,-1.3749,-1.3908,-1.4078,-1.4287,-0.442,-0.4471,-0.4567,-0.4569,-0.4651,-0.5226,-0.554,-0.5538,-0.5593,-0.5728,-0.5828,-0.5842,-0.5941,-0.6088,-0.6166,-0.6223,-0.6381,-0.6436,-0.6492,-0.6544,-0.6596,-0.6647,-0.6701,-0.6694,-0.6761,-0.6758,-0.6701,-0.6707,-0.6655,-0.6601,-0.6329,-0.6005,-0.5677,-0.5567,-0.5515,-0.5458,-0.5344,-0.5181,-0.5069,-0.5013,-0.4956,-0.4956,-0.4958,-0.5013,-0.5069,-0.5177,-0.5348,-0.5515,-0.5624,-0.5843,-0.6064,-0.6284,-0.6547,-0.6869,-0.7139,-0.7354,-0.7676,-0.7943,-0.8265,-0.8527,-0.8738,-0.9008,-0.911,-0.9372,-0.9684,-0.9892,-1.0205,-1.0514,-1.0765,-1.1171,-1.1528,-1.1619,-1.1873,-1.2274,-1.2524,-1.2627,-1.2779,-1.2832,-1.2934,-1.2983,-1.3065,-1.3243,-1.3472,-1.3585,-1.3495,-1.3059,-1.2632,-1.2219,-1.1801,-1.1707,-1.1714,-1.1912,-1.2083,-1.2222,-1.2365,-1.2478,-1.2656,-1.2832,-1.2908,-1.2984,-1.3088,-1.317,-1.3204,-1.321,-1.3204,-1.3232,-1.3295,-1.3391,-1.3486,-1.3648,-1.3782,-1.3875,-1.3993,-1.4169,-1.4351,-0.4002,-0.3903,-0.4149,-0.4231,-0.4339,-0.4638,-0.4905,-0.5074,-0.522,-0.538,-0.5542,-0.5436,-0.5501,-0.5604,-0.5692,-0.5779,-0.5813,-0.5925,-0.6023,-0.614,-0.6192,-0.633,-0.6445,-0.6498,-0.64,-0.6559,-0.6516,-0.6294,-0.6347,-0.6168,-0.5898,-0.5677,-0.5403,-0.5238,-0.5183,-0.5126,-0.5014,-0.4959,-0.4903,-0.4846,-0.4846,-0.4844,-0.4846,-0.4847,-0.4904,-0.5013,-0.5126,-0.524,-0.5405,-0.5679,-0.5955,-0.6121,-0.6391,-0.6766,-0.6977,-0.7244,-0.7625,-0.7895,-0.8165,-0.8368,-0.8633,-0.8847,-0.9061,-0.9309,-0.9569,-0.9836,-1.0154,-1.0462,-1.0714,-1.1074,-1.1427,-1.1628,-1.1877,-1.218,-1.2426,-1.2573,-1.2676,-1.2827,-1.2929,-1.307,-1.319,-1.3372,-1.3668,-1.3805,-1.3907,-1.3608,-1.32,-1.285,-1.2391,-1.1942,-1.1963,-1.2089,-1.2222,-1.2318,-1.2431,-1.2591,-1.2733,-1.2914,-1.299,-1.306,-1.3129,-1.3198,-1.3204,-1.3204,-1.3198,-1.326,-1.3357,-1.3452,-1.3554,-1.3722,-1.3848,-1.398,-1.4098,-1.4241,-1.4415,-0.3281,-0.3233,-0.342,-0.3512,-0.3558,-0.3744,-0.4146,-0.4644,-0.4711,-0.4801,-0.4789,-0.4787,-0.4938,-0.5113,-0.5166,-0.528,-0.5382,-0.547,-0.5512,-0.5585,-0.5638,-0.5641,-0.5687,-0.5761,-0.5793,-0.5848,-0.5817,-0.5733,-0.5639,-0.5578,-0.5561,-0.5405,-0.5126,-0.4961,-0.4851,-0.4798,-0.4743,-0.4741,-0.4737,-0.4737,-0.4682,-0.4625,-0.4682,-0.4739,-0.4796,-0.4849,-0.4959,-0.5071,-0.5238,-0.5407,-0.574,-0.5959,-0.623,-0.6495,-0.6704,-0.7139,-0.7518,-0.7839,-0.8002,-0.8218,-0.8427,-0.8633,-0.8847,-0.911,-0.9417,-0.9784,-1.0051,-1.036,-1.0663,-1.1023,-1.1322,-1.1573,-1.1828,-1.2081,-1.2328,-1.2529,-1.2676,-1.2827,-1.2929,-1.3113,-1.3233,-1.3515,-1.381,-1.4041,-1.4114,-1.4019,-1.3767,-1.3373,-1.2901,-1.2412,-1.2152,-1.2275,-1.2371,-1.2473,-1.2585,-1.2745,-1.2885,-1.299,-1.3066,-1.3135,-1.317,-1.3204,-1.321,-1.3239,-1.326,-1.3357,-1.3452,-1.3554,-1.3661,-1.3788,-1.3921,-1.4052,-1.4176,-1.4344,-1.4511,-0.2721,-0.2721,-0.2904,-0.304,-0.3124,-0.3214,-0.3548,-0.3968,-0.4122,-0.4252,-0.4368,-0.4418,-0.4501,-0.4721,-0.4779,-0.483,-0.4981,-0.4998,-0.4994,-0.5097,-0.5035,-0.5127,-0.5112,-0.514,-0.5228,-0.5253,-0.5215,-0.5198,-0.5054,-0.5043,-0.5093,-0.5124,-0.4901,-0.4737,-0.4629,-0.4577,-0.4468,-0.4468,-0.4522,-0.452,-0.4519,-0.4462,-0.4574,-0.4577,-0.4632,-0.4686,-0.4794,-0.4904,-0.5018,-0.5244,-0.5519,-0.5683,-0.5955,-0.6168,-0.6601,-0.7033,-0.7244,-0.7568,-0.7785,-0.7955,-0.8212,-0.8474,-0.8692,-0.8956,-0.9263,-0.9629,-0.9892,-1.0154,-1.0565,-1.0922,-1.1217,-1.1469,-1.1723,-1.1981,-1.2283,-1.2534,-1.2681,-1.2779,-1.2968,-1.3152,-1.3387,-1.3673,-1.3957,-1.4239,-1.4427,-1.4377,-1.421,-1.3857,-1.3271,-1.2637,-1.2384,-1.2365,-1.2478,-1.2591,-1.2745,-1.2856,-1.2961,-1.3066,-1.3141,-1.3176,-1.321,-1.3239,-1.3232,-1.3295,-1.3357,-1.3452,-1.352,-1.3628,-1.3735,-1.3894,-1.4052,-1.4176,-1.4298,-1.4395,-1.4592,-0.2326,-0.2414,-0.2597,-0.2771,-0.2947,-0.2946,-0.3043,-0.317,-0.3506,-0.3783,-0.4047,-0.4114,-0.4177,-0.4338,-0.4353,-0.4409,-0.4492,-0.4492,-0.4532,-0.4624,-0.4602,-0.4638,-0.4692,-0.4802,-0.4716,-0.4773,-0.4749,-0.4606,-0.4632,-0.4645,-0.4719,-0.4824,-0.4684,-0.452,-0.4408,-0.4301,-0.419,-0.419,-0.4298,-0.4351,-0.4408,-0.4408,-0.4463,-0.4465,-0.4467,-0.4522,-0.4632,-0.4743,-0.4798,-0.502,-0.524,-0.5405,-0.5734,-0.6007,-0.6495,-0.682,-0.7085,-0.73,-0.7568,-0.7785,-0.8002,-0.8321,-0.8646,-0.8854,-0.911,-0.9465,-0.9781,-1.0051,-1.0462,-1.0769,-1.107,-1.1418,-1.1673,-1.1981,-1.2234,-1.2431,-1.2578,-1.2769,-1.305,-1.3238,-1.353,-1.3821,-1.3962,-1.4249,-1.4581,-1.4653,-1.4533,-1.4223,-1.3749,-1.2968,-1.2719,-1.2574,-1.2621,-1.2739,-1.2856,-1.2967,-1.3043,-1.3148,-1.3176,-1.321,-1.321,-1.3239,-1.326,-1.3357,-1.3419,-1.352,-1.3628,-1.3701,-1.3835,-1.402,-1.4176,-1.4337,-1.4458,-1.4554,-1.4679,-0.2061,-0.2287,-0.2417,-0.2458,-0.2503,-0.2592,-0.2681,-0.2818,-0.2908,-0.3148,-0.3399,-0.3451,-0.3606,-0.385,-0.386,-0.3906,-0.4033,-0.4022,-0.4055,-0.4073,-0.4081,-0.4116,-0.4155,-0.4197,-0.4167,-0.4085,-0.4055,-0.4051,-0.4097,-0.4143,-0.4256,-0.4257,-0.4227,-0.4133,-0.4132,-0.4024,-0.3967,-0.391,-0.3964,-0.4075,-0.4076,-0.4189,-0.4245,-0.4189,-0.4189,-0.4302,-0.4413,-0.4579,-0.4689,-0.4855,-0.5132,-0.5464,-0.574,-0.6012,-0.6228,-0.644,-0.682,-0.7085,-0.73,-0.7568,-0.7839,-0.8052,-0.8321,-0.859,-0.8956,-0.9361,-0.9721,-0.9991,-1.0308,-1.0616,-1.0972,-1.1322,-1.1623,-1.1927,-1.2184,-1.2382,-1.2529,-1.2808,-1.3137,-1.3377,-1.3673,-1.3873,-1.4067,-1.4354,-1.4638,-1.4711,-1.4591,-1.4325,-1.4046,-1.3483,-1.3129,-1.2956,-1.2763,-1.2844,-1.2961,-1.3037,-1.3107,-1.3176,-1.321,-1.321,-1.321,-1.3301,-1.3357,-1.3452,-1.3514,-1.3628,-1.3701,-1.3801,-1.3934,-1.4118,-1.4312,-1.4472,-1.4637,-1.4732,-1.4818,-0.1653,-0.1947,-0.1988,-0.2053,-0.2041,-0.2175,-0.2373,-0.2499,-0.2549,-0.2683,-0.2903,-0.3036,-0.3214,-0.3396,-0.3442,-0.3442,-0.3573,-0.3576,-0.36,-0.3583,-0.3614,-0.3587,-0.3571,-0.3617,-0.359,-0.3571,-0.3535,-0.3527,-0.3568,-0.37,-0.3796,-0.3774,-0.3781,-0.3802,-0.3747,-0.3745,-0.3688,-0.3577,-0.3631,-0.3633,-0.3688,-0.3856,-0.4022,-0.4021,-0.4078,-0.4135,-0.419,-0.4356,-0.4468,-0.4745,-0.5075,-0.5297,-0.5574,-0.5738,-0.6009,-0.623,-0.6554,-0.6812,-0.7028,-0.7297,-0.7622,-0.7842,-0.8005,-0.8328,-0.8804,-0.9211,-0.9472,-0.9792,-1.0209,-1.0518,-1.0922,-1.1272,-1.1523,-1.1828,-1.218,-1.248,-1.2715,-1.2949,-1.3132,-1.3271,-1.3573,-1.3926,-1.4167,-1.4452,-1.473,-1.4926,-1.4762,-1.4744,-1.4388,-1.405,-1.3682,-1.3313,-1.3124,-1.2963,-1.3031,-1.31,-1.3163,-1.3204,-1.3239,-1.3267,-1.3295,-1.3391,-1.3452,-1.3554,-1.3628,-1.3701,-1.3808,-1.3941,-1.4066,-1.4222,-1.4415,-1.4606,-1.477,-1.4902,-1.5018,-0.1222,-0.1489,-0.1452,-0.1525,-0.1664,-0.1805,-0.1972,-0.2209,-0.2186,-0.228,-0.2461,-0.2726,-0.2947,-0.308,-0.3126,-0.3127,-0.3173,-0.3219,-0.3217,-0.3173,-0.3171,-0.3217,-0.3219,-0.3217,-0.3216,-0.3171,-0.3129,-0.3143,-0.3186,-0.3259,-0.335,-0.3342,-0.3437,-0.3473,-0.3416,-0.3359,-0.3301,-0.3299,-0.3244,-0.3244,-0.3355,-0.352,-0.3687,-0.3853,-0.3965,-0.3968,-0.4024,-0.4135,-0.4302,-0.4524,-0.4853,-0.513,-0.5297,-0.5517,-0.5738,-0.6012,-0.6232,-0.6497,-0.6817,-0.7028,-0.741,-0.7687,-0.7797,-0.8115,-0.8643,-0.8959,-0.9274,-0.9636,-0.9999,-1.0415,-1.082,-1.1171,-1.1423,-1.1773,-1.2175,-1.2578,-1.2813,-1.304,-1.3127,-1.3218,-1.3568,-1.3926,-1.4208,-1.4545,-1.4771,-1.4971,-1.5077,-1.5092,-1.4976,-1.4639,-1.4277,-1.3846,-1.3501,-1.3351,-1.3163,-1.3129,-1.3198,-1.326,-1.3295,-1.3323,-1.3391,-1.3527,-1.3594,-1.3661,-1.3735,-1.3868,-1.3974,-1.4105,-1.4235,-1.4351,-1.4518,-1.4707,-1.4925,-1.5086,-1.5178,-0.0747,-0.0942,-0.0785,-0.0948,-0.1281,-0.1446,-0.1604,-0.171,-0.1723,-0.1883,-0.2062,-0.2152,-0.2374,-0.2775,-0.2818,-0.2818,-0.2907,-0.2908,-0.2954,-0.2954,-0.2907,-0.2909,-0.2911,-0.2865,-0.2865,-0.2819,-0.2773,-0.2747,-0.2735,-0.2832,-0.2931,-0.2923,-0.3114,-0.3128,-0.3132,-0.3132,-0.3076,-0.302,-0.302,-0.302,-0.3076,-0.313,-0.3184,-0.3352,-0.3523,-0.3637,-0.3748,-0.3913,-0.4022,-0.4189,-0.4467,-0.4798,-0.5073,-0.524,-0.5515,-0.5736,-0.5959,-0.6232,-0.6497,-0.6869,-0.7198,-0.7419,-0.7634,-0.8005,-0.8431,-0.8748,-0.9061,-0.9424,-0.984,-1.0261,-1.0671,-1.0968,-1.1267,-1.1769,-1.217,-1.248,-1.2725,-1.2997,-1.3175,-1.3367,-1.3663,-1.3952,-1.4233,-1.4523,-1.4868,-1.5074,-1.5289,-1.531,-1.5229,-1.5058,-1.4854,-1.4409,-1.3957,-1.3544,-1.3298,-1.3217,-1.3226,-1.3288,-1.3391,-1.3459,-1.3567,-1.3674,-1.3775,-1.3841,-1.3927,-1.402,-1.4157,-1.4293,-1.4454,-1.4574,-1.4676,-1.4839,-1.5056,-1.5238,-1.5328]}]]